[[{"header":{"parameterUnit":"m.s-1","parameterCategory":1,"la1":30.6,"la2":28.766,"lo1":-90.7593,"lo2":-88.6598,"dy":0.0162,"dx":0.0183,"nx":116,"ny":114,"refTime":"2023-09-09T06:00:00:Z","depth":0,"parameterNumber":2,"parameterNumberName":"U-component_of_WINDS"},"data":[0.0,0.0,0.0,0.0,0.0,0.0,0.0,0.0,0.0,0.0,0.0,0.0,0.0,0.0,0.0,0.0,0.0,0.0,0.0,0.0,0.0,0.0,0.0,0.0,0.0,0.0,0.0,0.0,0.0,0.0,0.0,0.0,0.0,0.0,0.0,0.0,0.0,0.0,0.0,0.0,0.0,0.0,0.0,0.0,0.0,0.0,0.0,0.0,0.0,0.0,0.0,0.0,0.0,0.0,0.0,0.0,0.0,0.0,0.0,0.0,0.0,0.0,0.0,0.0,0.0,0.0,0.0,0.0,0.0,0.0,0.0,0.0,0.0,0.0,0.0,0.0,0.0,0.0,0.0,0.0,0.0,0.0,0.0,0.0,0.0,0.0,0.0,0.0,0.0,0.0,0.0,0.0,0.0,0.0,0.0,0.0,0.0,0.0,0.0,0.0,0.0,0.0,0.0,0.0,0.0,0.0,0.0,0.0,0.0,0.0,0.0,0.0,0.0,0.0,0.0,0.0,0.0,0.0,0.0,0.0,0.0,0.0,0.0,0.0,0.0,0.0,0.0,0.0,0.0,0.0,0.0,0.0,0.0,0.0,0.0,0.0,0.0,0.0,0.0,0.0,0.0,0.0,0.0,0.0,0.0,0.0,0.0,0.0,0.0,0.0,0.0,0.0,0.0,0.0,0.0,0.0,0.0,0.0,0.0,0.0,0.0,0.0,0.0,0.0,0.0,0.0,0.0,0.0,0.0,0.0,0.0,0.0,0.0,0.0,0.0,0.0,0.0,0.0,0.0,0.0,0.0,0.0,0.0,0.0,0.0,0.0,0.0,0.0,0.0,0.0,0.0,0.0,0.0,0.0,0.0,0.0,0.0,0.0,0.0,0.0,0.0,0.0,0.0,0.0,0.0,0.0,0.0,0.0,0.0,0.0,0.0,0.0,0.0,0.0,0.0,0.0,0.0,0.0,0.0,0.0,0.0,0.0,0.0,0.0,0.0,0.0,0.0,0.0,0.0,0.0,0.0,0.0,0.0,0.0,0.0,0.0,0.0,0.0,0.0,0.0,0.0,0.0,0.0,0.0,0.0,0.0,0.0,0.0,0.0,0.0,0.0,0.0,0.0,0.0,0.0,0.0,0.0,0.0,0.0,0.0,0.0,0.0,0.0,0.0,0.0,0.0,0.0,0.0,0.0,0.0,0.0,0.0,0.0,0.0,0.0,0.0,0.0,0.0,0.0,0.0,0.0,0.0,0.0,0.0,0.0,0.0,0.0,0.0,0.0,0.0,0.0,0.0,0.0,0.0,0.0,0.0,0.0,0.0,0.0,0.0,0.0,0.0,0.0,0.0,0.0,0.0,0.0,0.0,0.0,0.0,0.0,0.0,0.0,0.0,0.0,0.0,0.0,0.0,0.0,0.0,0.0,0.0,0.0,0.0,0.0,0.0,0.0,0.0,0.0,0.0,0.0,0.0,0.0,0.0,0.0,0.0,0.0,0.0,0.0,0.0,0.0,0.0,0.0,0.0,0.0,0.0,0.0,0.0,0.0,0.0,0.0,0.0,0.0,0.0,0.0,0.0,0.0,0.0,0.0,0.0,0.0,0.0,0.0,0.0,0.0,0.0,0.0,0.0,0.0,0.0,0.0,0.0,0.0,0.0,0.0,0.0,0.0,0.0,0.0,0.0,0.0,0.0,0.0,0.0,0.0,0.0,0.0,0.0,0.0,0.0,0.0,0.0,0.0,0.0,0.0,0.0,0.0,0.0,0.0,0.0,0.0,0.0,0.0,0.0,0.0,0.0,0.0,0.0,0.0,0.0,0.0,0.0,0.0,0.0,0.0,0.0,0.0,0.0,0.0,0.0,0.0,0.0,0.0,0.0,0.0,0.0,0.0,0.0,0.0,0.0,0.0,0.0,0.0,0.0,0.0,0.0,0.0,0.0,0.0,0.0,0.0,0.0,0.0,0.0,0.0,0.0,0.0,0.0,0.0,0.0,0.0,0.0,0.0,0.0,0.0,0.0,0.0,0.0,0.0,0.0,0.0,0.0,0.0,0.0,0.0,0.0,0.0,0.0,0.0,0.0,0.0,0.0,0.0,0.0,0.0,0.0,0.0,0.0,0.0,0.0,0.0,0.0,0.0,0.0,0.0,0.0,0.0,0.0,0.0,0.0,0.0,0.0,0.0,0.0,0.0,0.0,0.0,0.0,0.0,0.0,0.0,0.0,0.0,0.0,0.0,0.0,0.0,0.0,0.0,0.0,0.0,0.0,0.0,0.0,0.0,0.0,0.0,0.0,0.0,0.0,0.0,0.0,0.0,0.0,0.0,0.0,0.0,0.0,0.0,0.0,0.0,0.0,0.0,0.0,0.0,0.0,0.0,0.0,0.0,0.0,0.0,0.0,0.0,0.0,0.0,0.0,0.0,0.0,0.0,0.0,0.0,0.0,0.0,0.0,0.0,0.0,0.0,0.0,0.0,0.0,0.0,0.0,0.0,0.0,0.0,0.0,0.0,0.0,0.0,0.0,0.0,0.0,0.0,0.0,0.0,0.0,0.0,0.0,0.0,0.0,0.0,0.0,0.0,0.0,0.0,0.0,0.0,0.0,0.0,0.0,0.0,0.0,0.0,0.0,0.0,0.0,0.0,0.0,0.0,0.0,0.0,0.0,0.0,0.0,0.0,0.0,0.0,0.0,0.0,0.0,0.0,0.0,0.0,0.0,0.0,0.0,0.0,0.0,0.0,0.0,0.0,0.0,0.0,0.0,0.0,0.0,0.0,0.0,0.0,0.0,0.0,0.0,0.0,0.0,0.0,0.0,0.0,0.0,0.0,0.0,0.0,0.0,0.0,0.0,0.0,0.0,0.0,0.0,0.0,0.0,0.0,0.0,0.0,0.0,0.0,0.0,0.0,0.0,0.0,0.0,0.0,0.0,0.0,0.0,0.0,0.0,0.0,0.0,0.0,0.0,0.0,0.0,0.0,0.0,0.0,0.0,0.0,0.0,0.0,0.0,0.0,0.0,0.0,0.0,0.0,0.0,0.0,0.0,0.0,0.0,0.0,0.0,0.0,0.0,0.0,0.0,0.0,0.0,0.0,0.0,0.0,0.0,0.0,0.0,0.0,0.0,0.0,0.0,0.0,0.0,0.0,0.0,0.0,0.0,0.0,0.0,0.0,0.0,0.0,0.0,0.0,0.0,0.0,0.0,0.0,0.0,0.0,0.0,0.0,0.0,0.0,0.0,0.0,0.0,0.0,0.0,0.0,0.0,0.0,0.0,0.0,0.0,0.0,0.0,0.0,0.0,0.0,0.0,0.0,0.0,0.0,0.0,0.0,0.0,0.0,0.0,0.0,0.0,0.0,0.0,0.0,0.0,0.0,0.0,0.0,0.0,0.0,0.0,0.0,0.0,0.0,0.0,0.0,0.0,0.0,0.0,0.0,0.0,0.0,0.0,0.0,0.0,0.0,0.0,0.0,0.0,0.0,0.0,0.0,0.0,0.0,0.0,0.0,0.0,0.0,0.0,0.0,0.0,0.0,0.0,0.0,0.0,0.0,0.0,0.0,0.0,0.0,0.0,0.0,0.0,0.0,0.0,0.0,0.0,0.0,0.0,0.0,0.0,0.0,0.0,0.0,0.0,0.0,0.0,0.0,0.0,0.0,0.0,0.0,0.0,0.0,0.0,0.0,0.0,0.0,0.0,0.0,0.0,0.0,0.0,0.0,0.0,0.0,0.0,0.0,0.0,0.0,0.0,0.0,0.0,0.0,0.0,0.0,0.0,0.0,0.0,0.0,0.0,0.0,0.0,0.0,0.0,0.0,0.0,0.0,0.0,0.0,0.0,0.0,0.0,0.0,0.0,0.0,0.0,0.0,0.0,0.0,0.0,0.0,0.0,0.0,0.0,0.0,0.0,0.0,0.0,0.0,0.0,0.0,0.0,0.0,0.0,0.0,0.0,0.0,0.0,0.0,0.0,0.0,0.0,0.0,0.0,0.0,0.0,0.0,0.0,0.0,0.0,0.0,0.0,0.0,0.0,0.0,0.0,0.0,0.0,0.0,0.0,0.0,0.0,0.0,0.0,0.0,0.0,0.0,0.0,0.0,0.0,0.0,0.0,0.0,0.0,0.0,0.0,0.0,0.0,0.0,0.0,0.0,0.0,0.0,0.0,0.0,0.0,0.0,0.0,0.0,0.0,0.0,0.0,0.0,0.0,0.0,0.0,0.0,0.0,0.0,0.0,0.0,0.0,0.0,0.0,0.0,0.0,0.0,0.0,0.0,0.0,0.0,0.0,0.0,0.0,0.0,0.0,0.0,0.0,0.0,0.0,0.0,0.0,0.0,0.0,0.0,0.0,0.0,0.0,0.0,0.0,0.0,0.0,0.0,0.0,0.0,0.0,0.0,0.0,0.0,0.0,0.0,0.0,0.0,0.0,0.0,0.0,0.0,0.0,0.0,0.0,0.0,0.0,0.0,0.0,0.0,0.0,0.0,0.0,0.0,0.0,0.0,0.0,0.0,0.0,0.0,0.0,0.0,0.0,0.0,0.0,0.0,0.0,0.0,0.0,0.0,0.0,0.0,0.0,0.0,0.0,0.0,0.0,0.0,0.0,0.0,0.0,0.0,0.0,0.0,0.0,0.0,0.0,0.0,0.0,0.0,0.0,0.0,0.0,0.0,0.0,0.0,0.0,0.0,0.0,0.0,0.0,0.0,0.0,0.0,0.0,0.0,0.0,0.0,0.0,0.0,0.0,0.0,0.0,0.0,0.0,0.0,0.0,0.0,0.0,0.0,0.0,0.0,0.0,0.0,0.0,0.0,0.0,0.0,0.0,0.0,0.0,0.0,0.0,0.0,0.0,0.0,0.0,0.0,0.0,0.0,0.0,0.0,0.0,0.0,0.0,0.0,0.0,0.0,0.0,0.0,0.0,0.0,0.0,0.0,0.0,0.0,0.0,0.0,0.0,0.0,0.0,0.0,0.0,0.0,0.0,0.0,0.0,0.0,0.0,0.0,0.0,0.0,0.0,0.0,0.0,0.0,0.0,0.0,0.0,0.0,0.0,0.0,0.0,0.0,0.0,0.0,0.0,0.0,0.0,0.0,0.0,0.0,0.0,0.0,0.0,0.0,0.0,0.0,0.0,0.0,0.0,0.0,0.0,0.0,0.0,0.0,0.0,0.0,0.0,0.0,0.0,0.0,0.0,0.0,0.0,0.0,0.0,0.0,0.0,0.0,0.0,0.0,0.0,0.0,0.0,0.0,0.0,0.0,0.0,0.0,0.0,0.0,0.0,0.0,0.0,0.0,0.0,0.0,0.0,0.0,0.0,0.0,0.0,0.0,0.0,0.0,0.0,0.0,0.0,0.0,0.0,0.0,0.0,0.0,0.0,0.0,0.0,0.0,0.0,0.0,0.0,0.0,0.0,0.0,0.0,0.0,0.0,0.0,0.0,0.0,0.0,0.0,0.0,0.0,0.0,0.0,0.0,0.0,0.0,0.0,0.0,0.0,0.0,0.0,0.0,0.0,0.0,0.0,0.0,0.0,0.0,0.0,0.0,0.0,0.0,0.0,0.0,0.0,0.0,0.0,0.0,0.0,0.0,0.0,0.0,0.0,0.0,0.0,0.0,0.0,0.0,0.0,0.0,0.0,0.0,0.0,0.0,0.0,0.0,0.0,0.0,0.0,0.0,0.0,0.0,0.0,0.0,0.0,0.0,0.0,0.0,0.0,0.0,0.0,0.0,0.0,0.0,0.0,0.0,0.0,0.0,0.0,0.0,0.0,0.0,0.0,0.0,0.0,0.0,0.0,0.0,0.0,0.0,0.0,0.0,0.0,0.0,0.0,0.0,0.0,0.0,0.0,0.0,0.0,0.0,0.0,0.0,0.0,0.0,0.0,0.0,0.0,0.0,0.0,0.0,0.0,0.0,0.0,0.0,0.0,0.0,0.0,0.0,0.0,0.0,0.0,0.0,0.0,0.0,0.0,0.0,0.0,0.0,0.0,0.0,0.0,0.0,0.0,0.0,0.0,0.0,0.0,0.0,0.0,0.0,0.0,0.0,0.0,0.0,0.0,0.0,0.0,0.0,0.0,0.0,0.0,0.0,-2.9179,0.0,0.0,0.0,0.0,0.0,0.0,0.0,0.0,0.0,0.0,0.0,0.0,0.0,0.0,0.0,0.0,0.0,0.0,0.0,0.0,0.0,0.0,0.0,0.0,0.0,0.0,0.0,0.0,0.0,0.0,0.0,0.0,0.0,0.0,0.0,0.0,0.0,0.0,0.0,1.9673,1.6481,1.1751,1.1011,1.0272,0.957,0.0,0.0,0.0,0.0,0.0,0.0,0.0,0.0,0.0,0.0,0.0,0.0,0.0,0.0,0.0,0.0,0.0,0.0,0.0,0.0,0.0,0.0,0.0,0.0,0.0,0.0,0.0,0.0,0.0,0.0,0.0,0.0,0.0,0.0,0.0,0.0,0.0,0.0,0.0,0.0,0.0,0.0,0.0,0.0,0.0,0.0,0.0,0.0,0.0,0.0,0.0,0.0,0.0,0.0,0.0,0.0,0.0,0.0,0.0,0.0,0.0,0.0,0.0,0.0,0.0,0.0,0.0,0.0,0.0,0.0,0.0,-2.8421,0.0,0.0,0.0,0.0,0.0,0.0,0.0,0.0,0.0,0.0,0.0,0.0,0.0,0.0,0.0,0.0,0.0,0.0,0.0,0.0,0.0,0.0,0.0,0.0,0.0,0.0,0.0,0.0,0.0,0.0,0.0,0.0,0.0,0.0,0.0,2.4162,2.2243,2.0352,1.6494,1.2695,0.8977,0.4984,0.4115,0.5945,0.6149,0.0,0.0,0.0,0.0,0.0,0.0,0.0,0.0,0.0,0.0,0.0,0.0,0.0,0.0,0.0,0.0,0.0,0.0,0.0,0.0,0.0,0.0,0.0,0.0,0.0,0.0,0.0,0.0,0.0,0.0,0.0,0.0,0.0,0.0,0.0,0.0,0.0,0.0,0.0,0.0,0.0,0.0,0.0,0.0,0.0,0.0,0.0,0.0,0.0,0.0,0.0,0.0,0.0,0.0,0.0,0.0,0.0,0.0,0.0,0.0,0.0,0.0,0.0,0.0,-3.6808,-3.7118,-3.7001,-3.6274,-3.4959,-3.2209,-2.9846,-2.804,0.0,0.0,0.0,0.0,0.0,0.0,0.0,0.0,0.0,0.0,0.0,0.0,0.0,0.0,0.0,0.0,0.0,0.0,0.0,0.0,0.0,0.0,2.7608,2.8398,3.0095,2.9699,2.9726,0.0,0.0,0.0,0.0,0.0,0.0,2.6116,2.3791,2.1035,1.7777,1.1287,0.8941,1.0305,0.451,0.3209,0.5705,0.4075,0.4454,0.6241,0.0,0.0,0.0,0.0,0.0,0.0,0.0,0.0,0.0,0.0,0.0,0.0,0.0,0.0,0.0,0.0,0.0,0.0,0.0,0.0,0.0,0.0,0.0,0.0,0.0,0.0,0.0,0.0,0.0,0.0,0.0,0.0,0.0,0.0,0.0,0.0,0.0,0.0,0.0,0.0,0.0,-3.1314,-3.0751,0.0,0.0,0.0,0.0,0.0,0.0,0.0,0.0,0.0,0.0,0.0,0.0,0.0,0.0,-3.756,-3.9245,-3.9232,-3.759,-3.9594,-3.9682,-3.8012,-3.8074,-3.7663,-3.6857,-3.6029,0.0,-2.9278,-2.841,0.0,0.0,0.0,0.0,0.0,0.0,0.0,0.0,0.0,0.0,0.0,0.0,0.0,0.0,0.0,0.0,0.0,0.0,0.0,0.0,0.0,2.8393,2.9874,3.1488,3.2595,3.2685,3.1491,0.0,0.0,0.0,0.0,2.6961,2.5277,2.3102,1.9833,1.5472,1.1406,1.002,1.1144,0.6634,0.6,0.8431,0.5342,0.4051,0.4289,0.4885,0.0,0.0,0.0,0.0,0.0,0.0,0.0,0.0,0.0,0.0,0.0,0.0,0.0,0.0,0.0,0.0,0.0,0.0,0.0,0.0,0.0,0.0,0.0,0.0,0.0,0.0,0.0,0.0,0.0,0.0,0.0,0.0,0.0,0.0,0.0,0.0,0.0,0.0,0.0,-3.2012,-3.3588,-3.183,-3.3125,-3.3511,0.0,0.0,0.0,0.0,0.0,0.0,0.0,0.0,0.0,-3.8431,-3.9192,-3.9811,-4.0233,-4.1224,-4.1422,-4.0841,-4.1609,-4.1688,-4.1147,-4.1194,-4.0733,-3.9943,-3.9291,-3.7093,-3.387,-3.1451,-2.9486,-2.7922,0.0,0.0,0.0,0.0,0.0,-2.8942,0.0,0.0,0.0,0.0,0.0,0.0,0.0,0.0,0.0,0.0,0.0,0.0,2.6837,2.8847,3.0827,3.2718,3.4216,3.4261,3.2327,3.2151,0.0,0.0,2.8133,2.6867,2.4342,2.1657,1.8425,1.4667,1.2741,1.2329,1.3135,0.901,0.8716,1.1472,0.6912,0.448,0.3816,0.411,0.3373,0.1949,0.0,0.0,0.0,0.0,0.0,0.0,0.0,0.0,0.0,0.0,0.0,0.0,0.0,0.0,0.0,0.0,0.0,0.0,0.0,0.0,0.0,0.0,0.0,0.0,0.0,0.0,0.0,0.0,0.0,0.0,0.0,0.0,0.0,0.0,0.0,0.0,0.0,-3.3672,-3.5289,-3.2625,-3.5292,-3.6186,0.0,0.0,0.0,0.0,0.0,0.0,-3.7108,-3.8407,-3.9444,-4.018,-4.1249,-4.2119,-4.2838,-4.301,-4.3282,-4.362,-4.3213,-4.3197,-4.3495,-4.3315,-4.2832,-4.2136,-4.1286,-3.9801,-3.7824,-3.4338,-3.1969,-3.0459,-2.9687,-2.9501,-2.9564,-2.923,-2.9496,-3.0057,0.0,0.0,0.0,0.0,0.0,0.0,0.0,0.0,0.0,0.0,0.0,2.473,2.7207,2.8482,3.0376,3.3386,3.2481,3.2109,3.2984,3.0804,2.9444,2.9338,2.8961,2.7103,2.3543,1.8974,1.66,1.6484,1.4109,1.4547,1.759,1.0804,0.9897,1.3745,0.7689,0.545,0.6207,0.3987,0.2341,0.108,0.0699,0.0,0.0,0.0,0.0,0.0,0.0,0.0,0.0,0.0,0.0,0.0,0.0,0.0,0.0,0.0,0.0,0.0,0.0,0.0,0.0,0.0,0.0,0.0,0.0,0.0,0.0,0.0,0.0,0.0,0.0,0.0,0.0,0.0,0.0,0.0,0.0,0.0,0.0,-3.259,-3.6644,0.0,0.0,0.0,0.0,-3.71,-3.8788,-3.9743,-3.9545,-4.0964,-4.2192,-4.2959,-4.3714,-4.4507,-4.5233,-4.525,-4.4981,-4.4468,-4.4428,-4.4056,-4.3495,-4.2783,-4.2452,-4.2336,-4.1331,-4.0446,-3.9437,-3.5921,-3.3738,-3.2446,-3.1397,-3.1029,-3.1033,-3.037,-3.056,-3.0907,0.0,0.0,0.0,0.0,0.0,0.0,0.0,0.0,0.0,2.3512,2.4753,2.6197,2.7504,3.055,3.3256,3.5147,3.5649,3.5491,3.4588,3.225,3.0442,2.9374,2.7639,2.5486,2.2963,1.969,1.7939,1.7693,1.693,1.6911,1.7355,1.2936,1.1811,1.3428,0.861,0.5055,0.2748,0.3906,0.3512,0.1976,0.1277,0.0737,0.0,0.0,0.0,0.0,0.0,0.0,0.0,0.0,0.0,0.0,0.0,0.0,0.0,0.0,0.0,0.0,0.0,0.0,0.0,0.0,0.0,0.0,0.0,0.0,0.0,0.0,0.0,0.0,0.0,0.0,0.0,0.0,0.0,0.0,0.0,0.0,0.0,-3.6467,-3.9375,0.0,-3.767,-3.8353,-3.9024,-3.9358,-4.0479,-4.1376,-4.171,-4.331,-4.4313,-4.4613,-4.5809,-4.6594,-4.6911,-4.5889,-4.5541,-4.5846,-4.4847,-4.448,-4.4691,-4.4436,-4.379,-4.2908,-4.2449,-4.1511,-4.0051,-3.7669,-3.6401,-3.5714,-3.3601,-3.2926,-3.2932,-3.1402,-3.1302,-3.1823,0.0,0.0,0.0,0.0,0.0,0.0,0.0,0.0,0.0,2.2925,2.4435,2.6098,2.7556,3.0849,3.3677,3.5578,3.5955,3.5514,3.4166,3.1864,2.9925,2.8552,2.6011,2.4123,2.3079,2.0562,1.9275,1.9295,1.8768,1.79,1.6727,1.3965,1.2822,1.2818,0.8077,0.4387,0.1908,0.3902,0.3702,0.1978,0.1519,0.0767,-0.0204,0.0,0.0,0.0,0.0,0.0,0.0,0.0,0.0,0.0,0.0,0.0,0.0,0.0,0.0,0.0,0.0,0.0,0.0,0.0,0.0,0.0,0.0,0.0,0.0,0.0,0.0,0.0,0.0,0.0,0.0,0.0,0.0,0.0,0.0,0.0,-4.0558,-3.8935,-4.1585,-4.2466,-3.9761,-4.1023,-4.194,-4.1802,-4.3271,-4.419,-4.4125,-4.5676,-4.6414,-4.6161,-4.6952,-4.7303,-4.7343,-4.6027,-4.5683,-4.6186,-4.5165,-4.4941,-4.5406,-4.4889,-4.4113,-4.3197,-4.258,-4.1624,-4.0483,-3.9026,-3.8285,-3.7793,-3.4981,-3.4014,-3.4024,-3.2482,-3.2218,-3.255,0.0,0.0,0.0,0.0,0.0,0.0,0.0,2.3223,2.2591,2.2068,2.2672,2.4353,2.7437,2.9166,3.1374,3.4631,3.2997,3.1781,3.1758,2.9425,2.7717,2.691,2.4356,2.3251,2.3939,2.1356,2.039,2.1342,1.9389,1.7674,1.6076,1.392,1.2709,1.2029,0.5991,0.3614,0.4025,0.38,0.2638,0.1014,0.1411,0.0717,-0.0489,0.0,0.0,0.0,0.0,0.0,0.0,0.0,0.0,0.0,0.0,0.0,0.0,0.0,0.0,0.0,0.0,0.0,0.0,0.0,0.0,0.0,0.0,0.0,0.0,0.0,0.0,0.0,0.0,0.0,0.0,0.0,0.0,0.0,-3.6078,-3.9961,-4.195,-3.9676,-4.3183,-4.4613,-4.1557,-4.446,-4.5929,-4.4454,-4.7043,-4.8077,-4.6662,-4.7972,-4.8493,-4.7751,-4.7044,-4.6665,-4.6648,-4.5837,-4.5388,-4.5458,-4.5406,-4.5406,-4.5372,-4.3906,-4.3266,-4.3145,-4.1595,-4.0892,-4.0628,-3.9774,-3.9146,-3.8438,-3.5497,-3.4327,-3.4232,-3.3567,-3.3261,-3.304,0.0,0.0,0.0,0.0,0.0,0.0,0.0,2.2951,2.238,2.2164,2.3572,2.5415,2.7571,3.0175,3.2651,3.4929,3.2941,3.1974,3.2879,2.9263,2.6942,2.6613,2.4833,2.4237,2.5105,2.28,2.1641,2.1763,2.0404,1.8678,1.6598,1.3767,1.1484,0.9597,0.5405,0.2712,0.1463,0.1225,0.0308,-0.0781,0.135,0.0876,-0.1222,0.0,0.0,0.0,0.0,0.0,0.0,0.0,0.0,0.0,0.0,0.0,0.0,0.0,0.0,0.0,0.0,0.0,0.0,0.0,0.0,0.0,0.0,0.0,0.0,0.0,0.0,0.0,0.0,0.0,0.0,0.0,0.0,-3.95,-3.995,-4.1579,-4.2928,-4.3406,-4.4925,-4.5558,-4.4596,-4.5338,-4.5649,-4.4988,-4.6364,-4.694,-4.6408,-4.7895,-4.8478,-4.7687,-4.8023,-4.7958,-4.7424,-4.6096,-4.5717,-4.6268,-4.513,-4.4889,-4.5406,-4.4992,-4.4199,-4.3197,-4.2783,-4.1874,-4.0546,-3.8552,-3.7619,-3.7319,-3.6323,-3.5185,-3.4127,-3.3351,-3.264,-3.193,0.0,0.0,0.0,0.0,0.0,0.0,0.0,2.2685,2.2029,2.1685,2.3533,2.5387,2.6706,2.8969,3.0989,3.242,3.082,2.9813,3.0151,2.7953,2.6646,2.6708,2.5341,2.5004,2.5888,2.3563,2.2294,2.2259,2.0557,1.8386,1.5742,1.2908,1.0207,0.7554,0.4356,0.1831,-0.0076,-0.1063,-0.2078,-0.2971,-0.1607,-0.1814,-0.292,-0.316,-0.428,-0.5718,-0.6076,-0.6306,-0.6764,-0.9034,0.0,0.0,0.0,0.0,0.0,0.0,0.0,0.0,0.0,0.0,0.0,0.0,0.0,0.0,0.0,0.0,0.0,0.0,0.0,0.0,0.0,0.0,0.0,0.0,-3.8913,-4.1134,-4.2682,-4.3356,-4.4163,-4.5417,-4.5839,-4.6093,-4.6359,-4.6482,-4.6498,-4.6337,-4.7369,-4.7825,-4.7392,-4.8243,-4.8581,-4.8174,-4.7972,-4.7683,-4.7251,-4.608,-4.57,-4.6096,-4.5252,-4.5044,-4.5406,-4.4768,-4.4009,0.0,-4.2541,-4.165,-4.0642,-3.867,-3.7636,0.0,0.0,0.0,0.0,0.0,-3.2192,-3.1261,0.0,0.0,0.0,0.0,0.0,0.0,0.0,2.2443,2.1628,2.1039,2.2879,2.451,2.5232,2.6598,2.7845,2.8711,2.7831,2.6793,2.5818,2.6262,2.6706,2.7038,2.5883,2.5592,2.6314,2.397,2.267,2.2535,1.9935,1.7104,1.4126,1.1542,0.8716,0.5707,0.2972,0.0727,-0.1202,-0.3381,-0.4822,-0.5774,-0.6486,-0.6197,-0.53,-0.5256,-0.5759,-0.6691,-0.785,-0.7934,-0.7933,-1.0565,0.0,0.0,0.0,0.0,0.0,0.0,0.0,0.0,0.0,0.0,0.0,0.0,0.0,0.0,0.0,0.0,0.0,0.0,0.0,0.0,0.0,0.0,0.0,0.0,-3.9722,-4.1779,-4.4299,-4.4835,-4.5228,-4.591,-4.593,-4.6162,-4.6862,-4.7369,-4.7659,-4.7679,-4.8899,-4.9321,-4.8614,0.0,0.0,0.0,0.0,-4.6615,-4.6475,-4.5874,-4.5528,-4.5423,-4.5528,-4.5528,-4.5372,-4.3958,-4.3249,-4.3007,-4.1509,-4.0784,-4.0513,-3.9134,-3.8162,-3.7205,-3.4824,-3.3237,-3.2292,-3.2396,-3.171,0.0,0.0,0.0,0.0,0.0,0.0,0.0,0.0,2.23,2.1472,2.1383,2.2404,2.3343,2.3978,2.5796,2.7298,2.8099,2.7727,2.7057,2.6151,2.6615,2.7056,2.7387,2.6602,2.6294,2.6622,2.5028,2.329,2.1475,1.8736,1.5959,1.3245,0.9731,0.6622,0.4018,0.1377,-0.1341,-0.4208,-0.6611,-0.8865,-1.0757,-1.0876,-0.9675,-0.7863,-0.7578,-0.8175,-0.9168,-0.905,-0.9186,-0.9685,-1.1428,-1.188,-1.2244,-1.5334,-1.6059,0.0,0.0,0.0,0.0,0.0,0.0,0.0,0.0,0.0,0.0,0.0,0.0,0.0,0.0,0.0,0.0,0.0,0.0,0.0,-3.9717,-4.1576,-4.3044,-4.4072,-4.4267,-4.4407,-4.4804,-4.5076,-4.5281,-4.5341,-4.599,-4.6324,-4.6204,-4.6949,-4.7346,-4.7207,-4.7761,0.0,-4.7207,-4.702,-4.6551,-4.5805,-4.565,-4.5581,-4.5581,0.0,0.0,-4.5546,-4.4526,-4.3388,-4.2164,-4.1267,-4.0181,-3.8928,-3.7259,-3.6121,-3.5177,-3.319,-3.2239,-3.195,-3.1261,-3.0507,-2.9881,0.0,0.0,0.0,0.0,0.0,0.0,0.0,2.2327,2.1681,2.1275,2.2334,2.3179,2.3292,2.4663,2.5725,2.6053,2.5561,2.5445,2.5954,2.5997,2.6364,2.715,2.6357,2.543,2.4428,2.3342,2.0704,1.645,1.6916,1.4611,0.9794,0.7538,0.5058,0.246,-0.1125,-0.4011,-0.6252,-0.9719,-1.1781,-1.2762,-1.3172,-1.2786,-1.1768,-1.0434,-1.029,-1.0795,-1.0417,-1.0533,-1.0998,-1.2065,-1.259,-1.3107,-1.4805,-1.5414,-1.5961,0.0,0.0,0.0,0.0,0.0,0.0,0.0,0.0,0.0,0.0,0.0,0.0,0.0,0.0,-3.3105,0.0,0.0,-3.8361,-4.1315,-4.2586,-4.3375,-4.3828,-4.3689,-4.3668,-4.4148,-4.473,-4.5207,-4.5527,-4.618,-4.6723,-4.7038,-4.7299,-4.7472,-4.7472,-4.7472,-4.7298,-4.6934,-4.6569,-4.6169,-4.5718,-4.5787,-4.5718,-4.5632,-4.5632,-4.5373,-4.4923,-4.4129,-4.2888,-4.1388,-4.0612,-3.9646,-3.8481,-3.7257,-3.6206,-3.523,-3.3865,-3.33,-3.3131,-3.2187,-3.1283,-3.0652,0.0,0.0,0.0,0.0,0.0,0.0,0.0,0.0,2.1832,2.1007,2.2244,2.3029,2.263,2.3536,2.4218,2.4252,2.3595,2.3888,2.5555,2.5159,2.5347,2.6472,2.5884,2.4508,2.2368,2.1779,1.8334,1.1795,1.4447,1.2332,0.5792,0.4692,0.2951,0.0504,-0.3855,-0.6691,-0.8428,-1.2288,-1.403,-1.4112,-1.4798,-1.5126,-1.5085,-1.2833,-1.2087,-1.2062,-1.1539,-1.1414,-1.1683,-1.2362,-1.2743,-1.315,-1.3667,-1.4246,-1.4973,-1.6505,-1.7991,0.0,0.0,0.0,0.0,0.0,0.0,0.0,0.0,0.0,-3.0973,-3.2739,-3.363,-3.4782,-3.6932,-3.814,-3.9765,-4.2558,-4.325,-4.3519,-4.3634,-4.323,-4.309,-4.3454,-4.4214,-4.494,-4.5694,-4.6403,-4.7071,-4.7857,-4.7788,-4.7683,-4.7683,-4.7108,-4.6726,-4.6586,-4.5993,-4.5593,-4.5368,-4.5518,-4.5418,-4.5233,-4.5284,-4.4817,-4.3904,-4.3111,-4.1888,-4.0371,-3.9301,-3.8515,-3.7988,-3.7198,-3.6389,-3.5571,-3.4688,-3.4338,-3.4226,-3.3373,-3.2331,-3.1417,0.0,0.0,0.0,0.0,0.0,0.0,0.0,0.0,0.0,2.0958,2.1577,2.1936,2.1515,2.2642,2.3693,2.4396,2.4281,2.443,2.5128,2.4697,2.4643,2.5183,2.5682,2.504,2.3114,2.3232,1.9653,1.2256,1.102,0.7852,0.2815,0.0561,-0.1233,-0.2521,-0.6207,-0.9223,-1.1689,-1.3954,-1.5532,-1.6542,-1.6564,-1.6253,-1.5562,-1.3774,-1.3256,-1.32,-1.1912,-1.1183,-1.0923,-1.1814,-1.1582,-1.1259,-1.2823,-1.3167,-1.3518,-1.6178,-1.773,-1.893,-2.0955,-2.3102,-2.5443,-2.8464,-2.9058,-3.0143,0.0,0.0,-3.4449,-3.6268,-3.7228,-3.8098,-3.9312,-4.0591,-4.1908,-4.322,-4.395,-4.4136,-4.3523,-4.3248,-4.2846,-4.219,-4.2705,-4.336,-4.4097,-4.4887,-4.5628,-4.6382,-4.6335,-4.6234,-4.6234,-4.6164,-4.5798,-4.5134,-4.5176,-4.4791,-4.393,-4.396,-4.396,-4.3912,-4.3687,-4.3239,-4.2571,-4.157,-4.0302,-3.8732,-3.6611,-3.5797,-3.5858,-3.4861,-3.459,-3.4641,-3.3597,-3.3363,-3.3558,-3.3088,-3.1851,-3.054,0.0,0.0,0.0,0.0,0.0,0.0,0.0,0.0,0.0,0.0,2.1456,2.1568,2.1415,2.2082,2.2728,2.3171,2.3086,2.3095,2.3267,2.3117,2.2761,2.2249,2.4646,2.3567,1.8379,2.0123,1.7122,0.8977,0.5767,0.231,-0.1331,-0.2764,-0.4004,-0.5211,-0.8015,-1.0572,-1.2875,-1.4959,-1.5788,-1.5855,-1.5715,-1.5188,-1.4351,-1.2603,-1.188,-1.1561,-1.0229,-0.9755,0.0,-0.9633,-0.9793,-1.0132,-1.0852,-1.1108,-1.1517,-1.3534,-1.5392,-1.7557,-2.1411,-2.4267,-2.6748,0.0,-3.0803,-3.2324,-3.4705,-3.5684,-3.6305,-3.7087,-3.8301,-3.952,-4.0419,-4.1066,-4.1876,0.0,-4.3679,-4.3765,-4.3435,-4.3318,-4.2832,-4.1586,-4.2055,-4.2749,-4.3376,-4.4454,-4.5093,-4.5094,-4.5308,-4.5264,-4.4791,-4.5211,-4.5106,-4.4318,-4.4348,-4.4237,-4.381,-4.381,-4.3763,-4.3698,-4.3523,-4.2784,-4.1667,-4.1168,-3.956,-3.718,-3.5801,-3.5029,-3.4709,-3.4318,-3.4231,-3.4312,-3.384,-3.3447,-3.3089,-3.2717,-3.1665,-3.0459,0.0,0.0,0.0,0.0,0.0,0.0,0.0,0.0,0.0,0.0,0.0,2.1086,2.107,2.1379,2.1602,2.1569,2.1584,2.1659,2.1719,2.1074,2.039,1.9752,2.3274,2.2088,1.5292,1.7914,1.4903,0.5837,0.2316,-0.139,-0.5274,-0.5225,-0.5966,-0.7444,-0.9332,-1.1315,-1.3404,-1.4688,-1.5059,-1.4731,-1.4248,-1.3678,-1.2945,-1.1136,-1.0193,-0.9782,-0.8657,-0.8296,-0.8233,-0.7547,-0.7856,-0.8643,-0.879,-0.9057,-0.9682,-1.1301,-1.4032,-1.7475,-2.2046,-2.5396,0.0,-3.044,-3.259,-3.4351,-3.5205,-3.6344,-3.726,-3.7345,-3.8397,-3.954,-4.0376,-4.0696,-4.1332,-4.2924,-4.3303,-4.3436,-4.3513,-4.3272,-4.2685,-4.1647,-4.1971,-4.246,-4.2946,-4.3961,-4.4611,-4.4579,-4.4759,-4.4566,-4.3939,-4.4448,-4.4413,-4.3623,-4.3605,-4.3483,-4.3272,-4.3272,-4.3226,-4.3115,-4.2765,-4.1888,-4.0555,-3.9956,-3.8284,-3.5956,-3.5214,-3.4456,-3.3749,-3.3585,-3.3536,-3.346,-3.336,-3.2818,-3.2029,-3.1656,-3.1037,-3.0335,0.0,0.0,0.0,0.0,0.0,0.0,0.0,0.0,0.0,0.0,0.0,0.0,0.0,2.0307,2.0325,1.981,2.0137,2.0537,2.0999,1.8528,1.7501,1.8438,2.1645,2.1127,1.6365,1.8379,1.4364,0.3886,0.2111,-0.2028,-0.8327,-0.6624,-0.7013,-0.9363,-1.0058,-1.1584,-1.3484,-1.2838,-1.3106,-1.3766,-1.2699,-1.2124,-1.1752,-0.9744,-0.8854,-0.8663,-0.7807,-0.7019,-0.6242,-0.5947,-0.6031,-0.6369,-0.6845,-0.7351,-0.8177,-1.0404,-1.4773,-1.9628,-2.29,-2.6201,-2.9437,-3.2366,-3.4182,-3.5747,-3.7636,-3.7675,-3.7368,-3.7547,-3.7679,-3.8037,-3.8898,-3.9662,-4.0667,-4.236,-4.3066,-4.3517,-4.3831,-4.2941,-4.2318,-4.2544,-4.2374,-4.2292,0.0,-4.312,-4.3995,-4.5262,-4.4749,-4.4188,-4.3904,-4.3921,-4.3605,-4.2868,-4.2851,-4.2464,-4.1692,-4.1674,-4.1674,-4.1657,-4.0682,-3.9782,-3.8999,-3.7257,-3.599,-3.518,-3.4438,-3.368,-3.2886,-3.2162,-3.1815,-3.1648,-3.1414,-3.0762,-2.9955,-2.9619,-2.9682,-2.9883,0.0,0.0,0.0,0.0,0.0,0.0,0.0,0.0,0.0,0.0,0.0,0.0,0.0,0.0,0.0,0.0,1.902,1.929,1.953,1.7953,1.6528,1.5342,2.0026,2.2517,2.2262,1.8756,1.3035,0.5039,-0.0,-0.4617,-0.877,-0.8801,-0.9586,-1.1032,-1.1237,-1.1997,-1.3053,-1.2372,-1.2113,-1.2075,-1.1093,-0.9982,-0.8891,-0.8163,-0.7274,-0.6403,0.0,-0.5819,-0.5199,-0.4467,-0.4473,-0.4964,-0.5779,-0.6299,-0.7407,-1.157,-1.5305,-1.8907,-2.2637,-2.6348,-2.969,-3.2125,-3.3663,-3.4963,-3.6456,-3.6307,-3.5875,-3.5982,-3.5611,-3.5337,-3.5624,-3.6795,-3.804,-3.9051,-4.1269,-4.2956,-4.3249,-4.3336,-4.3041,-4.234,-4.25,0.0,0.0,0.0,0.0,-4.3549,-4.3654,-4.3454,-4.2878,-4.3296,-4.3164,-4.2229,-4.2211,-4.2,-4.1604,-4.1604,-4.1604,-4.1587,-4.0219,-3.9381,-3.8972,-3.7363,-3.5913,-3.4636,-3.432,-3.3488,-3.2366,-3.2105,-3.2001,-3.1949,-3.1214,-3.0761,-3.0379,-2.9299,-2.8716,-2.8404,0.0,0.0,0.0,0.0,0.0,0.0,0.0,0.0,0.0,0.0,0.0,0.0,0.0,0.0,0.0,0.0,0.0,1.7728,1.8345,1.7264,1.6193,1.5157,1.9768,2.2542,2.2903,1.6832,1.1054,0.5691,-0.2433,-0.7672,-0.9959,-1.034,-1.1071,-1.2174,-1.2128,-1.2145,-1.2157,-1.1539,-1.0877,-1.0222,-0.9083,-0.8101,-0.7256,-0.6982,-0.6443,0.0,-0.5525,-0.5226,-0.4831,-0.4086,-0.4274,-0.4961,-0.5612,-0.6267,-0.7657,-1.1807,-1.5083,-1.8338,-2.2717,-2.683,-3.0418,-3.2653,-3.4012,-3.4944,-3.555,-3.4944,-3.4137,-3.3926,-3.323,-3.267,-3.267,-3.4048,-3.5414,-3.6134,-3.8823,-4.1149,-4.2107,-4.2548,-4.2753,-4.2613,-4.2664,-4.2759,0.0,0.0,0.0,-4.3059,-4.3059,-4.2887,-4.2305,-4.2751,-4.2703,-4.2079,-4.2061,-4.1934,-4.1719,-4.1719,-4.1508,-4.1139,-3.9816,-3.8978,-3.8537,-3.7324,-3.5911,-3.4387,-3.4293,-3.3289,-3.1708,-3.1986,-3.1899,-3.1602,-3.1271,-3.0713,-2.9985,-2.9076,-2.8065,-2.7136,0.0,0.0,0.0,0.0,0.0,0.0,0.0,0.0,0.0,0.0,0.0,0.0,0.0,0.0,0.0,0.0,0.0,0.0,1.7409,1.642,1.6298,1.7463,2.0593,2.1061,1.8385,1.2952,0.8593,0.5442,-0.5012,-1.08,-1.2058,-1.1311,-1.1662,-1.2893,-1.2664,-1.2025,-1.1045,-1.0296,-0.9509,-0.8543,-0.694,-0.6527,-0.682,-0.6191,-0.6234,-0.647,-0.5635,-0.5281,-0.5101,-0.4668,-0.5258,-0.6179,-0.6211,-0.7203,-0.8846,-1.1094,-1.4273,-1.8073,-2.3008,-2.7543,-3.1391,-3.3774,-3.4981,-3.5475,-3.4945,-3.3549,-3.218,-3.1511,-3.0663,-3.0069,-3.0107,-3.1544,-3.3006,-3.3819,-3.6112,-3.8556,-4.0669,-4.099,-4.1611,0.0,0.0,0.0,0.0,0.0,0.0,-4.3728,0.0,-4.253,-4.2328,-4.2328,-4.2328,-4.2328,-4.2292,-4.2133,-4.1864,-4.1785,-4.1278,-4.0359,-3.9468,-3.8639,-3.7857,-3.7091,-3.5849,-3.4425,-3.4425,-3.3119,-3.1046,-3.1795,-3.1567,-3.0783,-3.1457,-3.0565,-2.8834,-2.8766,-2.764,-2.6203,0.0,0.0,0.0,0.0,0.0,0.0,0.0,0.0,0.0,0.0,0.0,0.0,0.0,0.0,0.0,0.0,0.0,0.0,1.5796,1.5668,1.5433,1.5234,1.8026,1.8096,1.4957,1.1173,0.683,0.1908,-0.6455,-1.1885,-1.4425,-1.4472,-1.4545,-1.4564,-1.4015,-1.3166,-1.2114,-1.0624,-0.9823,-0.9348,-0.7261,-0.6354,-0.6271,-0.5884,-0.5501,-0.5273,-0.5795,-0.59,-0.5655,-0.5058,-0.5379,-0.6096,-0.6263,-0.7361,-0.9046,-1.1551,-1.4697,-1.8313,-2.2701,-2.6796,-3.0263,-3.1975,-3.2788,-3.3034,-3.2627,-3.0727,-2.9173,-2.969,-2.8082,-2.6762,-2.7418,-2.9956,-3.225,-3.3048,-3.7354,0.0,-4.1732,-4.2931,0.0,-4.3568,0.0,-4.3272,-4.3068,-4.3049,0.0,0.0,-4.2933,-4.2824,-4.2747,-4.2747,-4.267,-4.253,-4.1956,-4.1435,-4.1067,-4.0352,-4.0418,-4.1262,-3.9298,-3.8537,-3.887,-3.7521,-3.6068,-3.4614,-3.4521,-3.3542,-3.2021,-3.2144,-3.2074,-3.1847,-3.0921,-3.0225,-2.9588,-2.8031,-2.7097,-2.642,0.0,0.0,0.0,0.0,0.0,0.0,0.0,0.0,0.0,0.0,0.0,0.0,0.0,0.0,0.0,0.0,0.0,0.0,0.0,1.4898,1.529,1.5568,1.7618,1.7196,1.3899,0.9105,0.448,0.012,-0.8586,-1.3453,-1.4622,-1.5485,-1.5716,-1.5399,-1.4652,-1.349,-1.2001,-1.065,-0.9405,0.0,0.0,-0.5793,-0.5698,-0.527,-0.5179,-0.5382,-0.5626,-0.5791,-0.5764,-0.5267,-0.5545,-0.6146,-0.6548,-0.7168,-0.8258,-1.0389,-1.2886,-1.6167,-2.1583,-2.555,-2.8781,-3.1617,-3.2354,-3.2195,-3.1364,-2.9477,-2.7933,-2.8122,-2.6676,-2.5532,-2.5995,-2.827,-3.0321,0.0,0.0,0.0,-4.061,-4.2278,-4.3515,0.0,-4.4004,0.0,-4.3391,-4.3214,-4.3105,0.0,-4.2957,-4.2882,-4.2882,-4.2882,-4.27,-4.2204,-4.2096,-4.1725,-4.0948,-3.9858,-3.9743,-4.0586,-3.8901,-3.8357,-3.8743,-3.7532,-3.6145,-3.4688,0.0,-3.3774,-3.2388,-3.2319,-3.2319,-3.2318,-3.1458,-3.0554,-2.9606,-2.8558,-2.7436,-2.6385,0.0,0.0,0.0,0.0,0.0,0.0,0.0,0.0,0.0,0.0,0.0,0.0,0.0,0.0,0.0,0.0,0.0,0.0,0.0,0.0,1.5112,1.6126,1.7282,1.6251,1.2757,0.6483,0.1763,-0.1334,-1.0655,-1.4797,-1.4011,-1.55,-1.6026,-1.5702,-1.4891,-1.3423,-1.1552,-1.0623,-0.8966,-0.6781,-0.5841,-0.5491,-0.546,0.0,-0.5262,-0.6073,-0.5348,-0.5171,-0.5277,-0.5198,-0.5665,-0.634,-0.6722,-0.6828,-0.7098,-0.8599,-1.0742,-1.4134,-2.0693,-2.4891,-2.8335,-3.2248,-3.2959,-3.2273,-3.0574,-2.8888,-2.7466,-2.678,-2.5938,-2.5364,-2.5426,-2.6848,-2.8319,-2.9297,0.0,-3.5547,-3.8929,-4.0766,-4.2506,-4.4442,-4.4493,-4.4213,-4.3804,-4.3477,-4.3268,-4.3268,-4.2978,-4.2775,-4.2775,-4.2775,-4.2358,-4.1433,-4.2067,-4.1897,-4.0828,-3.9623,-3.9153,-3.9346,-3.8286,-3.7918,-3.8058,-3.7005,-3.5794,-3.453,0.0,0.0,-3.2248,-3.2353,-3.2406,-3.2371,-3.2177,-3.0976,-2.9403,-2.9367,-2.7981,-2.6195,0.0,0.0,0.0,0.0,0.0,0.0,0.0,0.0,0.0,0.0,1.1756,1.171,0.0,0.0,0.0,0.0,0.0,0.0,0.0,0.0,0.0,1.1309,1.2125,1.0331,0.5452,0.2466,-0.1227,-0.5724,-1.0788,-1.4021,-1.5475,-1.6561,-1.6668,-1.5937,-1.5421,-1.4109,-1.212,-1.1484,-1.0156,-0.8491,-0.7858,-0.7176,-0.6569,-0.5927,0.0,0.0,-0.5301,-0.4553,-0.3828,-0.432,-0.5388,-0.6496,-0.6168,-0.6501,-0.7234,-0.8232,-1.3033,-1.88,-2.2466,-2.8201,-3.3275,-3.3734,-3.3304,-3.2046,-2.9235,-2.7225,0.0,0.0,-2.5121,-2.4717,-2.5421,-2.69,-2.873,-3.0965,-3.3562,-3.6632,-4.046,-4.1971,-4.3137,0.0,-4.4688,0.0,0.0,0.0,0.0,0.0,0.0,0.0,-4.2069,-4.2123,-4.145,-3.9926,-3.9806,-3.9607,-3.9354,-3.8229,-3.828,-3.9517,-3.7277,-3.6882,-3.8023,-3.5337,-3.3949,-3.3651,0.0,0.0,-3.1458,-3.2125,-3.2406,-3.2265,-3.1001,-3.0269,-2.9769,-2.806,-2.6817,-2.5958,0.0,0.0,0.0,0.0,0.0,0.0,0.0,1.2874,1.2175,1.1554,1.1519,1.1349,1.1021,1.0839,1.0442,0.0,0.0,0.0,0.0,0.0,0.0,0.0,0.0,0.0,0.2879,0.1646,-0.1704,0.0,0.0,-1.1895,-1.4194,0.0,0.0,-1.5767,-1.5142,-1.4168,-1.2841,-1.0897,-0.957,-0.8639,-0.7683,-0.7236,0.0,0.0,0.0,0.0,0.0,-0.4536,-0.3613,-0.3597,-0.424,-0.4916,-0.4873,-0.5008,-0.5295,-0.606,-1.1128,-1.7929,-2.4672,-2.957,-3.307,-3.436,-3.3303,-3.1403,-2.923,0.0,0.0,-2.5553,-2.5265,-2.5104,-2.5527,-2.6598,0.0,-2.9608,-3.196,-3.4828,-3.845,-4.0507,0.0,-4.4138,-4.4699,0.0,0.0,0.0,0.0,0.0,0.0,0.0,-4.1958,-4.1176,-4.0522,-4.0142,-3.9048,-3.8474,-3.8438,-3.7362,-3.7003,-3.7285,-3.5966,-3.5539,-3.5784,-3.4233,-3.3037,-3.2283,-3.1932,0.0,-3.065,-3.1036,-3.1212,-3.1124,-3.0404,-2.9747,-2.9179,-2.8285,-2.7188,-2.6067,0.0,0.0,0.0,0.0,0.0,0.0,0.0,1.338,1.2859,1.2274,1.2131,1.1939,1.1657,1.1243,1.0672,0.0,0.0,0.0,0.0,0.0,0.0,0.0,0.0,0.0,0.0,0.0,0.0,0.0,0.0,0.0,0.0,0.0,0.0,0.0,0.0,0.0,-1.3739,-1.0685,-0.9151,0.0,0.0,0.0,0.0,0.0,0.0,0.0,0.0,-0.4741,-0.3837,-0.3538,-0.3425,-0.3489,-0.3616,-0.3469,-0.3569,-0.5084,-1.0222,-1.7387,-2.6584,-3.1042,-3.348,-3.5067,-3.3437,-3.1007,-2.9471,-2.7075,0.0,-2.5545,-2.5618,-2.5626,-2.5616,-2.6173,-2.6951,0.0,-2.9732,-3.2357,-3.6215,-3.8628,-4.0973,0.0,0.0,0.0,0.0,0.0,0.0,0.0,0.0,0.0,-4.1517,-3.9922,-3.9291,-3.994,-3.8326,-3.7467,-3.7466,-3.6626,-3.5896,-3.5273,-3.4905,-3.4393,-3.3826,-3.3176,-3.2209,-3.1029,-3.0871,0.0,0.0,-3.0082,-3.012,-3.012,-2.9913,-2.9313,-2.8578,-2.8578,-2.7627,-2.6303,0.0,0.0,0.0,0.0,0.0,0.0,0.0,1.4116,1.4383,1.3795,1.421,1.4351,1.371,1.2204,1.0962,0.0,0.0,0.0,0.0,0.0,0.0,0.0,0.0,0.0,0.0,0.0,0.0,0.0,0.0,0.0,0.0,0.0,0.0,0.0,0.0,0.0,0.0,-1.2234,0.0,0.0,0.0,0.0,0.0,0.0,0.0,0.0,0.0,-0.4975,-0.4244,-0.4762,-0.4332,-0.3519,-0.3182,-0.29,-0.3585,-0.8064,0.0,0.0,-2.7471,-3.4175,-3.8969,-3.6634,-3.4056,-3.154,-2.9408,0.0,-2.5199,-2.5527,-2.5641,-2.5696,-2.5687,-2.5707,-2.6268,-2.7926,-2.8333,-3.0435,-3.6173,-3.7754,-3.9527,-4.2815,0.0,0.0,0.0,0.0,0.0,0.0,0.0,0.0,0.0,-3.8391,-3.7443,-3.7503,-3.6594,-3.6047,-3.5999,-3.5716,-3.5525,-3.5475,-3.4523,-3.4049,-3.3924,-3.1769,-3.0701,-3.051,0.0,0.0,0.0,-3.0021,-3.026,-3.0207,-2.9343,-2.8934,-2.8763,-2.7861,-2.713,-2.651,0.0,0.0,0.0,0.0,0.0,0.0,1.4332,1.4395,1.463,1.4952,1.4827,1.4605,1.4355,1.3292,1.2017,1.0664,0.0,0.0,0.0,0.0,0.0,0.0,0.0,0.0,0.0,0.0,0.0,0.0,0.0,0.0,0.0,0.0,0.0,0.0,0.0,0.0,0.0,0.0,0.0,0.0,0.0,0.0,0.0,0.0,0.0,0.0,0.0,0.0,-0.85,-0.8725,-0.8612,-0.8466,-0.8521,-0.8427,-0.8543,0.0,-1.5074,-2.2296,-3.0731,-3.5609,-3.7859,-3.6056,-3.3136,-3.0319,-2.8933,0.0,-2.4781,-2.5366,-2.552,-2.5586,-2.5623,-2.5613,-2.5835,-2.6574,-2.7074,-2.8559,-3.1889,-3.3936,-3.6323,0.0,0.0,0.0,0.0,0.0,0.0,0.0,0.0,0.0,0.0,-3.7004,-3.6547,-3.654,-3.6105,-3.5652,-3.5142,-3.5041,-3.472,-3.4212,-3.3714,-3.3225,-3.2724,-3.1201,-3.0261,-2.9797,0.0,0.0,0.0,-2.8823,-2.8924,-2.8806,-2.7883,-2.7789,-2.8087,-2.7215,-2.6579,-2.6036,0.0,0.0,0.0,0.0,0.0,1.4144,1.4564,1.4852,1.538,1.6239,1.5926,1.5573,1.5371,1.4137,1.2544,1.0713,1.0785,0.0,0.0,0.0,0.0,0.0,0.0,0.0,0.0,0.0,0.0,0.1306,-0.1432,0.0,0.0,0.0,0.0,0.0,0.0,0.0,0.0,0.0,0.0,0.0,0.0,0.0,0.0,0.0,0.0,0.0,0.0,0.0,0.0,0.0,0.0,-1.1789,-1.2005,-1.1944,-1.1951,-1.2852,-1.6799,-2.2758,-3.1486,-3.487,-3.5617,-3.4386,-3.1711,-2.913,0.0,0.0,-2.4647,-2.5259,-2.545,-2.5519,-2.557,-2.556,-2.5586,-2.5663,-2.6143,-2.7261,-2.9411,-3.146,0.0,0.0,0.0,0.0,0.0,0.0,0.0,0.0,0.0,0.0,0.0,-3.5495,-3.5318,-3.5742,-3.5184,-3.4611,-3.4043,-3.396,-3.3542,-3.2716,-3.3051,-3.2559,-3.1333,-3.0876,-3.0102,-2.9115,0.0,0.0,0.0,-2.7914,-2.7743,-2.7599,-2.6654,-2.6606,-2.6946,-2.6409,-2.5999,-2.5549,0.0,0.0,0.0,0.0,0.0,0.0,1.385,1.5604,1.7103,1.7785,1.7984,1.7824,1.7237,1.4665,1.2184,1.0196,1.0777,0.0,0.0,0.0,0.0,0.0,0.0,0.0,0.0,0.0,0.4906,0.6031,0.471,0.1855,-0.2475,0.0,0.0,0.0,0.0,0.0,0.0,0.0,0.0,0.0,0.0,0.0,0.0,0.0,0.0,0.0,0.0,0.0,0.0,0.0,0.0,0.0,0.0,-1.143,-1.2129,-1.7825,-2.1191,-2.4022,-2.8385,-3.1512,-3.316,-3.1638,-2.9858,-2.8324,0.0,-2.6158,-2.4994,-2.533,-2.5447,-2.5495,-2.5495,-2.5512,-2.5527,-2.5593,-2.5609,-2.6797,-3.0216,-3.1397,0.0,0.0,0.0,0.0,0.0,0.0,0.0,0.0,0.0,0.0,0.0,-3.3765,-3.3471,-3.4871,-3.3364,-3.25,-3.2418,-3.2418,-3.1991,-3.1138,-3.2746,-3.221,-2.9844,-3.064,-3.0115,0.0,0.0,0.0,0.0,-2.7587,-2.7118,-2.6925,-2.5985,-2.5526,-2.5392,-2.5337,-2.531,-2.5205,0.0,0.0,0.0,0.0,0.0,0.0,0.0,1.3948,1.5205,1.6677,1.6872,1.6553,1.5724,1.3575,1.1015,0.8131,0.8771,0.0,0.0,0.0,0.0,0.0,0.0,0.0,0.0,0.0,0.5523,0.6985,0.4817,0.4237,0.5042,0.5085,0.5058,0.0,0.0,0.0,0.0,0.0,0.0,0.0,0.0,0.0,0.0,0.0,0.0,0.0,0.0,0.0,0.0,0.0,0.0,0.0,0.0,0.0,0.0,-2.0001,-2.0608,-2.1687,-2.6493,-2.8574,-2.931,-2.8905,-2.7657,-2.6429,-2.6189,-2.5216,-2.4499,-2.5022,-2.5111,-2.5088,-2.5152,-2.5236,-2.5312,-2.5376,-2.5515,-2.6184,0.0,0.0,0.0,0.0,0.0,0.0,0.0,0.0,0.0,0.0,0.0,0.0,0.0,0.0,-3.318,-3.3462,-3.2348,-3.1746,-3.1721,-3.1634,-3.1441,-3.1164,-3.162,-3.1447,-3.0685,-3.0394,0.0,0.0,0.0,0.0,0.0,-2.736,-2.6795,-2.6104,-2.5204,-2.5076,-2.5349,-2.4796,-2.4576,-2.4506,0.0,0.0,0.0,0.0,0.0,0.0,0.0,1.2054,1.3461,1.5383,1.547,1.5057,1.4249,1.1836,0.8998,0.5828,0.5374,0.0,0.0,0.0,0.0,0.0,0.0,0.0,0.0,0.5354,0.6849,0.8597,0.7817,0.7883,0.88,1.0807,1.1084,1.0051,1.245,0.0,0.0,0.0,0.0,0.0,0.0,0.0,0.8063,0.0,0.0,0.0,0.0,0.0,0.0,0.0,0.0,0.0,0.0,0.0,0.0,0.0,-1.981,-2.0238,-2.4222,-2.5829,-2.635,-2.636,-2.5717,0.0,-2.5096,-2.4682,-2.441,-2.4866,-2.4946,-2.4946,-2.4983,-2.5072,-2.5149,-2.5216,-2.537,-2.5901,0.0,0.0,0.0,0.0,0.0,0.0,0.0,0.0,0.0,0.0,0.0,0.0,0.0,0.0,-3.235,-3.2142,-3.1404,-3.1046,-3.109,-3.0949,-3.0693,-3.0374,-3.0925,-3.0836,-3.0228,-3.0028,0.0,0.0,0.0,0.0,0.0,-2.6573,-2.6039,-2.538,-2.4462,-2.4314,-2.454,-2.4015,-2.3788,-2.3737,0.0,0.0,0.0,0.0,0.0,0.0,0.0,0.9786,1.1539,1.3665,1.3604,1.3181,1.2702,0.9562,0.629,0.3297,0.0,0.0,0.0,0.0,0.0,0.0,0.0,0.0,0.0,0.6692,0.8421,1.0513,1.2646,1.2529,1.0383,1.407,1.302,0.8298,1.5068,1.6805,1.4828,1.8464,2.0514,2.0856,1.5514,1.1377,0.0,0.0,0.0,0.0,0.0,0.0,0.0,0.0,0.0,0.0,0.0,0.0,0.0,0.0,0.0,0.0,0.0,-2.325,-2.4225,-2.3991,-2.407,-2.4226,-2.4321,-2.4448,0.0,-2.4845,-2.4926,-2.4959,-2.4964,-2.5029,-2.5069,-2.5076,-2.5299,-2.6086,0.0,0.0,0.0,0.0,0.0,0.0,0.0,0.0,0.0,0.0,0.0,0.0,0.0,0.0,-3.1146,-3.0974,-3.059,-3.0423,-3.0518,-3.0317,-2.9803,-2.9035,-3.0393,-3.0271,-2.8846,-2.9448,0.0,0.0,0.0,0.0,0.0,-2.5445,-2.4994,-2.4717,-2.3858,-2.343,-2.3265,-2.3095,-2.302,-2.2995,0.0,0.0,0.0,0.0,0.0,0.0,0.0,0.0,0.0,0.0,0.9312,0.9227,0.9405,0.6432,0.3361,0.0,0.0,0.0,0.0,0.0,0.0,0.0,0.0,0.0,0.2623,0.4172,0.6469,0.954,1.1824,1.5806,2.119,2.0209,1.9424,1.8854,1.9037,1.9163,1.9187,1.8557,1.8108,1.7394,1.2659,0.793,0.0,0.0,0.0,0.0,-1.0665,-1.3064,0.0,0.0,0.0,0.0,0.0,0.0,0.0,0.0,-1.9016,-1.9508,-1.9863,0.0,-2.202,-2.228,-2.2835,-2.3418,0.0,-2.4041,-2.4259,-2.4673,-2.4727,-2.469,-2.4689,-2.5319,-2.5622,-2.4907,-2.6123,-2.7536,0.0,0.0,0.0,0.0,0.0,0.0,0.0,0.0,0.0,0.0,0.0,0.0,0.0,0.0,-3.1181,-3.0617,-3.0278,-2.9944,-2.9613,-2.9502,-2.9318,-2.9067,-2.876,-2.8714,-2.8845,-2.7803,0.0,0.0,0.0,0.0,-2.5536,-2.5272,-2.4711,-2.3963,-2.3739,-2.3508,-2.3289,-2.3241,-2.3144,-2.2995,0.0,0.0,0.0,0.0,0.0,0.0,0.0,0.0,0.0,0.0,0.0,0.0,0.0,0.0,0.0,0.0,0.0,0.0,0.0,0.0,0.0,0.0,0.0,0.0873,0.0,0.1708,0.3566,0.5471,1.0957,1.5974,2.0495,2.3197,2.3313,2.1118,1.7838,1.6317,1.6049,1.4316,1.1986,0.9226,0.6425,0.0,0.0,0.0,0.0,0.0,-1.2147,-1.3818,0.0,-1.6541,-1.7626,-1.85,0.0,0.0,0.0,0.0,-1.854,-1.8547,-1.8843,-2.0057,-2.1346,-2.1786,-2.2456,-2.3187,-2.3714,-2.3847,-2.4007,-2.4483,-2.4463,-2.4417,-2.4603,-2.5308,-2.5724,-2.5281,-2.6569,0.0,0.0,0.0,0.0,0.0,0.0,0.0,0.0,0.0,0.0,0.0,0.0,0.0,0.0,0.0,-3.0917,-3.0472,-2.9894,-2.9632,-2.971,-2.9588,-2.9474,-2.9332,-2.8456,-2.8183,-2.8433,-2.7166,0.0,0.0,0.0,0.0,-2.4833,-2.4772,-2.4417,-2.3917,-2.3774,-2.3624,-2.3486,-2.3407,-2.3289,-2.3119,0.0,0.0,0.0,0.0,0.0,0.0,0.0,0.0,0.0,0.0,0.0,0.0,0.0,0.0,0.0,0.0,0.0,0.0,0.0,0.0,0.0,0.0,0.0,-0.2033,-0.2892,-0.1276,-0.0244,0.0129,0.8783,1.3811,1.5475,2.389,2.5336,2.0705,1.5774,1.2571,1.0627,0.7491,0.4138,0.0813,-0.0534,0.0,0.0,0.0,0.0,0.0,0.0,0.0,0.0,-1.7341,-1.8159,-1.8592,-1.9176,0.0,0.0,0.0,0.0,0.0,-1.8384,-1.9867,-2.1317,-2.1842,-2.2635,-2.3374,-2.3807,-2.3835,-2.3874,-2.4248,-2.4238,-2.427,0.0,-2.5363,0.0,0.0,0.0,0.0,0.0,0.0,0.0,0.0,0.0,0.0,0.0,0.0,0.0,0.0,0.0,0.0,0.0,0.0,0.0,-3.0051,-2.9332,-2.9242,-2.9874,-2.9632,-2.942,-2.9213,-2.8351,-2.7904,-2.7793,-2.6796,0.0,0.0,0.0,0.0,-2.4321,-2.4266,-2.4209,-2.417,-2.3896,-2.3735,-2.3692,-2.3571,-2.343,-2.3247,0.0,0.0,0.0,0.0,0.0,0.0,0.0,0.0,0.0,0.0,0.0,0.0,0.0,0.0,0.0,0.0,0.0,0.0,0.0,0.0,0.0,-0.5427,-0.4676,-0.5139,-0.6892,-0.6673,-0.5746,-0.4144,0.1944,0.8613,1.5916,2.2243,2.5476,2.5734,2.011,1.5332,1.0729,-0.0568,-0.3188,-0.0075,-0.4007,0.0,0.0,0.0,0.0,0.0,0.0,0.0,0.0,-1.6629,-1.7366,-1.7948,-1.8187,0.0,0.0,0.0,0.0,0.0,-1.8437,-1.9572,-2.0973,-2.1672,-2.2944,-2.4017,-2.3995,-2.4073,-2.4109,-2.4082,-2.4171,-2.4518,-2.5299,-2.6188,-2.6544,0.0,0.0,0.0,0.0,0.0,0.0,0.0,0.0,0.0,0.0,0.0,0.0,0.0,0.0,0.0,0.0,0.0,0.0,-2.8447,-2.8326,-2.8318,-2.8427,-2.8001,-2.7717,-2.7554,-2.6664,-2.6561,-2.7026,-2.5449,-2.5096,0.0,0.0,-2.4485,-2.4394,-2.4376,-2.4303,-2.419,-2.4151,-2.3996,-2.3774,-2.371,-2.3486,-2.3063,0.0,0.0,0.0,0.0,0.0,0.0,0.0,0.0,0.0,0.0,0.0,0.0,0.0,0.0,0.0,0.0,0.0,0.0,0.0,0.0,0.0,-0.7195,-0.7188,-0.783,-0.9139,-0.9625,-1.0002,-1.0123,-0.4699,0.2192,1.0629,2.0548,2.3294,1.961,1.3676,0.634,-0.2007,-0.8466,-1.043,-0.9337,0.0,0.0,0.0,0.0,0.0,0.0,0.0,0.0,0.0,0.0,-1.7297,-1.772,-1.8187,0.0,0.0,0.0,0.0,0.0,-1.8385,-1.953,-2.0845,-2.1323,-2.2716,-2.4233,-2.4878,-2.4917,-2.4736,-2.4585,-2.4541,-2.4732,0.0,0.0,-2.6947,0.0,0.0,0.0,0.0,0.0,0.0,0.0,0.0,0.0,0.0,0.0,0.0,0.0,0.0,0.0,0.0,0.0,0.0,0.0,-2.771,-2.7444,-2.7444,-2.6726,-2.6732,-2.7464,-2.6578,-2.6279,-2.6435,-2.5182,-2.4829,-2.5204,0.0,-2.461,-2.4547,-2.453,-2.4462,-2.4339,-2.4229,-2.4115,-2.3925,-2.3343,-2.2843,-2.2353,0.0,0.0,0.0,0.0,0.0,0.0,0.0,0.0,0.0,0.0,0.0,0.0,0.0,0.0,0.0,0.0,0.0,0.0,0.0,0.0,-0.8246,-0.8597,-0.9349,-1.008,-1.0686,-1.1828,-1.3474,-1.5557,-1.0693,-0.3263,0.6616,1.7037,1.9087,1.3671,0.576,-0.3022,-1.2043,-1.4469,-1.6366,-1.7616,0.0,0.0,0.0,0.0,0.0,0.0,0.0,0.0,0.0,0.0,0.0,0.0,0.0,0.0,0.0,-1.8266,-1.7932,-1.7666,-1.8247,-1.9369,-2.0567,-2.1181,-2.2776,-2.4435,-2.538,-2.5524,-2.5401,-2.5183,-2.5087,0.0,0.0,-2.592,0.0,0.0,0.0,0.0,0.0,0.0,0.0,0.0,0.0,0.0,0.0,0.0,0.0,0.0,0.0,0.0,0.0,0.0,0.0,0.0,-2.694,-2.6593,-2.6593,-2.5882,-2.6061,-2.7152,-2.6456,-2.6041,-2.5882,-2.5208,-2.4896,-2.4891,-2.4896,-2.4847,-2.4764,-2.4716,-2.4623,-2.4512,-2.4355,-2.4284,-2.41,-2.3024,-2.2392,-2.1892,0.0,0.0,0.0,0.0,0.0,0.0,0.0,0.0,0.0,0.0,0.0,0.0,0.0,0.0,0.0,0.0,0.0,0.0,0.0,0.0,-0.9343,-1.0475,-1.1149,-1.166,-1.1939,-1.3915,-1.6299,-1.9035,-1.5407,-0.6079,0.8415,0.9956,1.2229,1.4418,0.0949,-0.6586,-0.9649,-1.6885,-1.9734,-1.9345,-1.8407,0.0,0.0,0.0,0.0,0.0,0.0,0.0,0.0,0.0,0.0,0.0,0.0,0.0,-1.8029,-1.7173,-1.725,-1.7671,-1.8036,-1.8819,-1.9879,-2.1614,-2.3568,-2.5018,-2.4755,-2.537,-2.586,-2.5602,0.0,0.0,0.0,-2.5556,0.0,0.0,0.0,0.0,0.0,0.0,0.0,0.0,0.0,0.0,0.0,0.0,0.0,0.0,0.0,0.0,0.0,0.0,0.0,0.0,0.0,-2.5683,-2.5683,-2.5634,-2.5582,-2.5557,-2.5445,-2.5329,-2.5254,-2.5194,-2.5165,-2.5178,-2.5173,-2.5103,-2.4981,-2.4981,-2.4814,-2.4591,-2.4575,-2.4495,-2.4247,-2.3104,-2.264,-2.2188,0.0,0.0,0.0,0.0,0.0,0.0,0.0,0.0,0.0,0.0,0.0,0.0,0.0,0.0,0.0,0.0,0.0,0.0,0.0,-0.9477,-1.0277,-1.1268,-1.2035,-1.2785,-1.3512,-1.5263,-1.7665,-2.064,-1.5607,-0.992,-0.3642,0.2085,0.2842,-0.0896,-0.6909,-1.258,-1.7816,-2.0936,-2.164,-2.0635,-2.0159,-1.9607,0.0,0.0,0.0,0.0,0.0,0.0,0.0,0.0,-1.7652,-1.772,-1.7842,-1.7828,-1.7733,-1.7503,-1.7397,-1.7411,-1.7812,-1.8737,-1.9793,-2.0742,-2.2724,-2.459,-2.5028,-2.5376,-2.5615,-2.5764,-2.5952,0.0,0.0,0.0,0.0,0.0,0.0,0.0,0.0,0.0,0.0,0.0,0.0,0.0,0.0,0.0,0.0,0.0,0.0,0.0,0.0,0.0,0.0,0.0,0.0,-2.5542,-2.5542,-2.5498,-2.5482,-2.5523,-2.5453,-2.5401,-2.5395,-2.533,-2.5316,-2.5311,-2.5316,-2.5263,-2.5186,-2.5187,-2.5098,-2.4903,-2.429,-2.3957,-2.3674,-2.2178,-2.0852,-1.9605,0.0,0.0,0.0,0.0,0.0,0.0,0.0,0.0,0.0,0.0,0.0,0.0,0.0,0.0,0.0,0.0,0.0,0.0,-1.0358,-1.0897,-1.1567,-1.2422,-1.3173,-1.4036,-1.499,-1.6093,-1.8179,-2.122,-1.6814,-1.3801,-1.2002,-0.7005,-0.7019,-1.1395,-1.4729,-1.8839,-2.3289,-2.3738,-2.3234,-2.2056,-2.1769,-2.1313,0.0,0.0,0.0,0.0,0.0,0.0,0.0,0.0,-1.8055,-1.8083,-1.8163,-1.8069,-1.7882,-1.7841,-1.7424,-1.7089,-1.7423,-1.8383,-1.9391,-1.9768,-2.1763,-2.3855,-2.4696,-2.528,-2.5731,-2.6092,-2.5857,-2.5592,-2.5624,0.0,0.0,0.0,0.0,0.0,0.0,0.0,0.0,0.0,0.0,0.0,0.0,0.0,0.0,0.0,0.0,0.0,0.0,0.0,0.0,0.0,0.0,0.0,-2.5026,-2.501,-2.4934,-2.4745,-2.4726,-2.5017,-2.5556,-2.5496,-2.5469,-2.5496,-2.5473,-2.5438,-2.5357,-2.5349,-2.5286,-2.5137,-2.4122,-2.3689,-2.3383,-2.1593,-2.0114,-1.8851,0.0,0.0,0.0,0.0,0.0,0.0,0.0,0.0,0.0,0.0,0.0,0.0,0.0,0.0,0.0,0.0,0.0,0.0,-1.2182,-1.2694,-1.3309,-1.4056,-1.4722,-1.549,-1.6386,-1.6384,-1.7849,-2.0806,-1.9878,-1.7568,-1.4066,-1.7401,-1.7034,-1.3953,-2.2017,-2.5011,-2.4042,-2.4775,-2.4584,-2.3762,-2.3235,-2.3061,-2.3038,0.0,0.0,0.0,0.0,0.0,0.0,0.0,-1.8214,-1.8478,-1.8282,-1.8439,-1.8595,-1.7962,-1.7295,-1.6725,-1.6886,-1.7681,-1.8584,-1.8943,-2.0922,-2.2936,-2.3497,-2.5025,-2.6453,-2.6657,-2.5524,-2.4712,-2.5357,0.0,0.0,0.0,0.0,0.0,0.0,0.0,0.0,0.0,0.0,0.0,0.0,0.0,0.0,0.0,0.0,0.0,0.0,0.0,0.0,0.0,0.0,0.0,-2.4,-2.4128,-2.3757,-2.2902,-2.2964,-2.3942,-2.5661,-2.5605,-2.5624,-2.5684,-2.5625,-2.5565,-2.5499,-2.5427,-2.5359,-2.5192,-2.4168,-2.3785,-2.3523,-2.1522,-2.0859,-2.0671,0.0,0.0,0.0,0.0,0.0,0.0,0.0,0.0,0.0,0.0,0.0,0.0,0.0,0.0,0.0,0.0,0.0,0.0,-1.3234,-1.3246,-1.3507,-1.4021,-1.4556,-1.5028,-1.5484,-1.6999,-1.8635,-2.0385,-2.1372,-2.1505,-2.0829,-2.2668,-2.2344,-2.0328,-2.4034,-2.4813,-2.3411,-2.4235,-2.4432,-2.4137,-2.4045,-2.3836,-2.3527,0.0,0.0,0.0,0.0,0.0,0.0,0.0,0.0,0.0,-1.8242,-1.8357,-1.8467,-1.8071,-1.7882,-1.7774,-1.7598,-1.8075,-1.8881,-1.9953,-2.1302,0.0,-2.34,-2.4146,-2.4862,0.0,-2.5615,-2.5362,-2.4726,0.0,0.0,0.0,0.0,0.0,0.0,0.0,0.0,0.0,0.0,0.0,0.0,0.0,0.0,0.0,0.0,0.0,0.0,0.0,0.0,0.0,0.0,0.0,-2.2944,-2.2925,-2.2834,-2.2628,-2.2724,-2.3145,-2.3812,-2.4425,-2.4693,-2.4742,-2.5343,-2.5564,-2.5453,-2.4813,-2.4453,-2.4152,-2.2637,-2.2018,-2.1803,-2.0508,-1.8613,-1.6627,0.0,0.0,0.0,0.0,0.0,0.0,0.0,0.0,0.0,0.0,-1.1292,0.0,0.0,0.0,0.0,0.0,0.0,0.0,0.0,-1.4857,-1.4641,-1.4552,-1.48,-1.5017,-1.5241,-1.6713,-1.8154,-1.9566,-2.1762,-2.2824,-2.2903,-2.4586,-2.4543,-2.3154,-2.5032,-2.498,-2.3589,-2.4423,-2.4633,-2.4422,-2.4439,-2.43,-2.4005,0.0,0.0,0.0,0.0,0.0,0.0,0.0,0.0,0.0,-1.8055,-1.8099,-1.8124,-1.7771,-1.761,-1.7504,-1.7449,-1.7923,-1.8726,-1.9908,-2.1282,-2.2521,-2.334,0.0,0.0,0.0,0.0,-2.4601,0.0,0.0,0.0,0.0,0.0,0.0,0.0,0.0,0.0,0.0,0.0,0.0,0.0,0.0,0.0,0.0,0.0,0.0,0.0,0.0,0.0,0.0,0.0,0.0,-2.1865,-2.1897,-2.1768,-2.1469,-2.154,-2.1825,-2.2288,-2.3284,-2.4122,-2.478,-2.4911,-2.4923,-2.4793,-2.3906,-2.3454,-2.3202,-2.1816,-2.1225,-2.1023,-1.9974,-1.837,-1.6723,0.0,0.0,0.0,0.0,0.0,0.0,0.0,0.0,0.0,0.0,-1.3158,-1.4514,0.0,0.0,0.0,0.0,0.0,0.0,0.0,0.0,-1.6308,-1.5468,-1.5384,-1.5389,-1.5543,-1.6015,-1.7068,-1.8664,-2.1213,-2.216,-2.1635,-2.3932,-2.4327,-2.322,-2.5072,-2.5237,-2.4155,-2.4863,-2.4931,-2.454,-2.451,-2.4458,-2.4386,-2.3963,0.0,0.0,0.0,0.0,0.0,0.0,0.0,0.0,-1.7868,-1.772,-1.768,-1.7358,-1.6872,-1.6518,-1.6874,-1.742,-1.8122,-1.9133,-2.0868,0.0,-2.3094,-2.3601,-2.4133,-2.4594,0.0,0.0,0.0,0.0,0.0,0.0,0.0,0.0,0.0,0.0,0.0,0.0,0.0,0.0,0.0,0.0,0.0,0.0,0.0,0.0,0.0,0.0,0.0,0.0,0.0,0.0,-2.0709,-2.0891,-2.0587,0.0,-1.9847,-2.0285,-2.1111,-2.229,-2.3751,-2.5263,-2.4292,-2.3832,-2.3694,-2.2759,-2.2356,-2.2263,-2.1377,-2.099,-2.0793,-1.975,-1.93,-1.9219,0.0,0.0,0.0,0.0,0.0,0.0,0.0,0.0,0.0,0.0,0.0,0.0,0.0,0.0,0.0,0.0,0.0,0.0,0.0,0.0,-1.6818,-1.5758,-1.568,-1.599,-1.6536,-1.7137,-1.8011,-1.9141,-2.001,-2.0771,-2.1475,-2.2886,-2.321,-2.2604,-2.3773,-2.3981,-2.3507,-2.394,-2.4171,-2.421,-2.4351,-2.421,-2.3868,-2.3824,-2.3455,0.0,0.0,0.0,0.0,0.0,0.0,0.0,-1.7558,-1.7726,-1.8076,-1.7693,-1.7556,-1.7448,-1.7382,-1.7229,-1.7394,-1.8817,-2.0142,-2.1207,-2.1724,-2.1659,-2.1764,-2.278,-2.2681,0.0,0.0,0.0,0.0,0.0,0.0,0.0,0.0,0.0,0.0,0.0,0.0,0.0,0.0,0.0,0.0,0.0,0.0,0.0,0.0,0.0,0.0,0.0,0.0,-1.9426,-1.9176,-1.9314,-1.9374,0.0,-1.9397,-1.9931,-2.0907,-2.195,-2.3015,-2.3961,-2.3171,-2.2772,-2.2646,-2.1777,-2.1312,-2.1073,-2.0145,-1.9678,-1.9504,-1.9202,-1.8303,-1.7225,0.0,0.0,0.0,0.0,0.0,0.0,0.0,0.0,0.0,0.0,0.0,0.0,0.0,0.0,0.0,0.0,0.0,0.0,0.0,0.0,-1.7757,-1.6126,-1.5596,-1.574,-1.6515,-1.6998,-1.7866,-1.917,-1.9576,-2.0392,-2.1682,-2.3258,-2.3818,-2.3516,-2.3996,-2.3908,-2.3415,-2.3289,-2.3325,-2.3516,-2.4067,-2.3967,-2.35,-2.3848,-2.3578,-2.2927,-2.2456,0.0,0.0,0.0,0.0,0.0,0.0,0.0,-1.7299,-1.6705,-1.6701,-1.6863,-1.6808,-1.6715,-1.6995,-1.8314,0.0,-1.9654,-2.0485,-2.0033,-1.9654,-2.0582,0.0,0.0,0.0,0.0,0.0,0.0,0.0,0.0,0.0,0.0,0.0,0.0,0.0,0.0,0.0,0.0,0.0,0.0,0.0,0.0,0.0,0.0,0.0,0.0,-1.8362,-1.8442,-1.8311,-1.859,-1.8717,-1.8771,-1.8892,-1.9459,-2.0462,-2.1653,-2.2216,-2.2235,-2.1853,-2.165,-2.1517,-2.0648,-2.022,-2.0022,-1.954,-1.9166,-1.8894,-1.8878,-1.8294,-1.7506,0.0,0.0,0.0,0.0,0.0,0.0,0.0,0.0,0.0,0.0,0.0,0.0,0.0,0.0,0.0,0.0,0.0,0.0,0.0,0.0,0.0,-1.6336,-1.5511,-1.5454,-1.6323,-1.6773,-1.7706,-1.9222,-1.9747,-2.0709,-2.2123,-2.3833,-2.4611,-2.4611,-2.4537,-2.4126,-2.3522,-2.2911,-2.2728,-2.2894,-2.3537,-2.3552,-2.3217,-2.3727,-2.3595,-2.3095,-2.2738,-2.2091,-2.1224,-1.9871,0.0,0.0,0.0,0.0,-1.6144,-1.5399,-1.5389,-1.558,-1.5724,-1.6087,-1.665,-1.7702,-1.7922,0.0,-1.9225,-1.8644,-1.7977,0.0,0.0,0.0,0.0,0.0,0.0,0.0,0.0,0.0,0.0,0.0,0.0,0.0,0.0,0.0,0.0,0.0,0.0,0.0,0.0,0.0,0.0,0.0,-1.7526,-1.7439,-1.7776,-1.7873,-1.7669,-1.8069,-1.8251,-1.8231,-1.8441,-1.8982,-1.9811,-2.0935,-2.1176,-2.0707,-2.0581,-2.0467,-2.0335,-1.9592,-1.917,-1.8984,-1.8984,-1.8676,-1.8271,-1.8376,-1.8373,-1.8301,0.0,0.0,0.0,0.0,0.0,0.0,0.0,0.0,0.0,0.0,0.0,0.0,0.0,0.0,0.0,0.0,0.0,0.0,-2.1556,0.0,0.0,-1.6188,-1.582,-1.6182,-1.729,-1.8048,-1.8939,-2.0054,-2.0879,-2.1784,-2.2786,-2.2997,-2.3549,-2.4334,-2.4145,-2.379,-2.3308,-2.3013,-2.2899,-2.2904,-2.2343,-2.2473,-2.3021,-2.2936,-2.2885,-2.2842,-2.2738,-2.2175,-2.1252,-1.9671,-1.8796,0.0,0.0,0.0,-1.5648,-1.4971,-1.4472,-1.4255,-1.4741,0.0,-1.6145,0.0,-1.7135,-1.7371,0.0,0.0,-1.7212,0.0,0.0,0.0,0.0,0.0,0.0,0.0,0.0,0.0,0.0,0.0,0.0,0.0,0.0,0.0,0.0,0.0,0.0,0.0,0.0,0.0,0.0,-1.6549,-1.6523,-1.6405,-1.6783,-1.6935,-1.6777,-1.7166,-1.7545,-1.7864,-1.8183,-1.8489,-1.8782,-1.8852,-1.9434,-2.033,-1.9632,-1.9289,-1.921,-1.8966,-1.843,-1.7734,-1.7683,-1.7153,-1.6519,-1.7111,-1.7412,-1.7452,0.0,0.0,0.0,0.0,0.0,0.0,0.0,0.0,0.0,0.0,0.0,0.0,0.0,0.0,0.0,-2.2394,-2.2618,-2.2328,-2.1337,-1.8943,-1.7142,-1.6213,-1.5475,-1.5572,-1.6632,-1.7651,-1.8783,-1.9909,-2.086,-2.1869,-2.2857,-2.2968,-2.39,-2.5347,-2.4131,-2.3522,-2.334,-2.2278,-2.1761,-2.1681,-2.1873,-2.1951,-2.1979,-2.2564,-2.2552,-2.2243,-2.2243,-2.1606,-2.062,-1.9678,-1.8712,-1.7586,-1.5811,0.0,0.0,0.0,-1.4141,-1.426,-1.4801,-1.4989,-1.525,0.0,-1.6306,-1.6466,-1.6735,0.0,0.0,0.0,0.0,0.0,0.0,0.0,0.0,0.0,0.0,0.0,0.0,0.0,0.0,0.0,0.0,0.0,0.0,0.0,0.0,0.0,0.0,0.0,-1.5316,-1.5476,-1.552,-1.5477,-1.5821,-1.5933,-1.5836,-1.6427,-1.6986,-1.7469,-1.7687,-1.7924,-1.8146,-1.8128,-1.8588,-1.9381,-1.9021,-1.8825,-1.8716,-1.8734,-1.8447,-1.7962,-1.7523,-1.699,-1.6559,-1.6982,-1.7197,-1.7275,0.0,0.0,0.0,0.0,0.0,0.0,0.0,0.0,0.0,0.0,0.0,0.0,0.0,0.0,0.0,0.0,-2.354,-2.2936,-2.1054,-1.8856,-1.7277,-1.6503,-1.556,-1.5472,-1.6376,-1.7531,-1.8655,-1.9762,-2.0569,-2.1518,-2.2619,-2.2732,-2.3857,-2.5709,-2.4168,-2.3478,-2.3398,-2.1893,-2.1242,-2.1257,-2.1434,-2.1512,-2.1535,-2.2085,-2.2061,-2.1721,-2.1781,-2.1085,-2.0062,-1.94,-1.8342,-1.7045,-1.5269,-1.4866,0.0,0.0,0.0,-1.4025,-1.4547,0.0,-1.4293,-1.511,-1.533,-1.5466,0.0,0.0,0.0,0.0,0.0,0.0,0.0,0.0,0.0,0.0,0.0,0.0,0.0,0.0,0.0,0.0,0.0,0.0,0.0,0.0,0.0,0.0,0.0,0.0,-1.406,-1.4251,-1.4422,-1.4498,-1.4807,-1.4913,-1.4864,-1.5722,-1.6374,-1.686,-1.7085,-1.7304,-1.7555,-1.7591,-1.7864,-1.8298,-1.8469,-1.8467,-1.8443,-1.8487,-1.8305,-1.7937,-1.7348,-1.6829,-1.6492,-1.6855,-1.7004,-1.7065,0.0,0.0,0.0,0.0,0.0,0.0,0.0,0.0,0.0,0.0,0.0,0.0,-2.2247,-2.3045,-2.3493,-2.3488,-2.367,-2.2994,-2.1132,-1.963,-1.8314,-1.7194,-1.6722,0.0,-1.7504,-1.8373,-1.9207,-1.997,-2.0166,-2.0875,-2.2026,-2.1783,-2.2652,-2.4385,-2.4266,-2.3906,-2.332,-2.2363,-2.2339,-2.2797,-2.0743,-2.0952,-2.2399,-2.125,-2.1087,-2.1524,-2.1448,-2.0862,-1.9897,-1.8408,-1.7483,-1.656,-1.4352,-1.3795,-1.3851,0.0,0.0,0.0,0.0,-1.3389,0.0,-1.3961,-1.4103,0.0,0.0,0.0,0.0,0.0,0.0,0.0,0.0,0.0,0.0,0.0,0.0,0.0,0.0,0.0,0.0,0.0,0.0,0.0,0.0,0.0,0.0,0.0,0.0,0.0,-1.2864,-1.2898,-1.3048,-1.3357,-1.3585,-1.3795,-1.3979,-1.4943,-1.5593,-1.5879,-1.6336,-1.6638,-1.6862,-1.686,-1.6969,-1.7221,-1.78,-1.8091,-1.8211,-1.8087,-1.7578,-1.6867,-1.6712,-1.6152,-1.5532,-1.6203,-1.6545,-1.6615,0.0,0.0,0.0,0.0,0.0,0.0,0.0,0.0,0.0,0.0,0.0,0.0,0.0,-2.4111,-2.4635,-2.4534,-2.4483,-2.3762,-2.2187,-2.0814,-1.957,-1.8462,-1.7536,-1.7369,-1.811,-1.8714,-1.9339,-2.0005,-2.0173,-2.0347,-2.0538,-2.0827,-2.1308,-2.1957,-2.2782,-2.3096,-2.2945,-2.2158,-2.1864,-2.1839,-2.0721,-2.064,-2.1182,-2.0522,-2.041,-2.0518,0.0,0.0,-1.8964,-1.733,-1.6442,-1.5763,-1.4331,-1.352,-1.2991,-1.2445,0.0,-1.2618,0.0,0.0,0.0,-1.2879,-1.2981,-1.3134,0.0,0.0,0.0,0.0,0.0,0.0,0.0,0.0,0.0,0.0,0.0,0.0,0.0,0.0,0.0,0.0,0.0,0.0,0.0,0.0,0.0,0.0,0.0,0.0,-1.1116,-1.1395,-1.1553,-1.1673,-1.2212,-1.2773,-1.3377,-1.4004,-1.453,-1.502,-1.5168,-1.5563,-1.6154,-1.6114,-1.6251,-1.6538,-1.6751,-1.7093,-1.7502,-1.7439,-1.7195,-1.6821,-1.6292,-1.5987,-1.5863,-1.6026,-1.6365,-1.6789,0.0,0.0,0.0,0.0,0.0,0.0,0.0,0.0,0.0,-2.0132,0.0,0.0,0.0,0.0,-2.5,-2.5327,-2.4965,-2.4408,-2.3731,-2.2655,-2.1648,-2.0778,-1.9642,-1.922,-1.9677,-1.9728,-1.9932,-2.027,-2.0064,-1.9899,-1.9781,-2.0051,-2.0324,-2.0574,-2.1561,-2.2222,-2.2596,-2.2002,-2.173,-2.1582,-2.068,-2.0425,-2.0527,-1.9979,-1.9923,0.0,0.0,0.0,0.0,0.0,0.0,0.0,-1.3591,0.0,0.0,0.0,0.0,0.0,-1.1787,0.0,0.0,0.0,0.0,-1.1922,0.0,0.0,0.0,0.0,0.0,0.0,0.0,0.0,0.0,0.0,0.0,0.0,0.0,0.0,0.0,0.0,0.0,0.0,0.0,0.0,0.0,0.0,0.0,0.0,-0.9428,-0.9711,-1.007,-1.0474,-1.1079,-1.1841,-1.2728,-1.3085,-1.3532,-1.4092,-1.4278,-1.462,-1.5108,-1.5212,-1.536,-1.5505,-1.5447,-1.5955,-1.6843,-1.6843,-1.6818,-1.6777,-1.6262,-1.6185,-1.6313,-1.6217,-1.6446,-1.692,0.0,0.0,0.0,0.0,0.0,0.0,0.0,0.0,-1.9121,-1.9361,0.0,0.0,0.0,0.0,0.0,-2.5747,-2.5066,-2.4899,-2.564,-2.5119,-2.4551,-2.4079,-2.3045,-2.2404,-2.2247,-2.1519,-2.1039,-2.0794,-1.9808,-1.9491,-1.9846,-1.9551,-1.9704,-2.0375,-2.0775,-2.1465,-2.2225,-2.2002,-2.1999,-2.2112,0.0,-2.0246,-2.0557,0.0,0.0,0.0,-1.9044,-1.811,0.0,-1.5824,0.0,0.0,0.0,0.0,0.0,0.0,0.0,0.0,0.0,0.0,0.0,0.0,0.0,0.0,0.0,0.0,0.0,0.0,0.0,0.0,0.0,0.0,0.0,0.0,0.0,0.0,0.0,0.0,0.0,0.0,0.0,0.0,0.0,0.0,0.0,0.0,0.0,-0.7114,-0.7893,-0.7941,-0.8545,-0.9797,-1.0186,-1.0864,-1.1886,-1.2188,-1.2566,-1.3029,-1.3696,-1.3875,-1.3663,-1.4122,-1.4264,-1.4127,-1.3872,-1.4677,-1.6177,-1.6219,-1.6412,-1.667,-1.6575,-1.6644,-1.6763,-1.667,-1.6799,-1.6993,0.0,0.0,0.0,0.0,0.0,0.0,-1.9357,-1.9266,-1.9304,0.0,0.0,0.0,-2.1927,-2.3224,-2.4218,-2.4558,-2.5577,-2.6002,-2.5594,-2.624,-2.6308,-2.5551,-2.44,-2.3557,-2.3076,-2.2122,-2.1321,-2.0794,-2.0049,-1.9559,-1.9333,-1.9179,-1.9137,-1.929,-2.0088,-2.0584,-2.0805,-2.1145,-2.1315,-2.1287,-2.0457,-1.9917,0.0,0.0,0.0,0.0,0.0,-1.659,-1.6207,0.0,-1.3658,-1.3198,0.0,0.0,0.0,0.0,0.0,0.0,-0.9938,0.0,0.0,0.0,0.0,0.0,0.0,0.0,0.0,0.0,0.0,0.0,0.0,0.0,0.0,0.0,0.0,0.0,0.0,0.0,0.0,0.0,0.0,0.0,0.0,0.0,0.0,0.0,-0.5588,-0.5802,-0.6531,-0.6813,-0.7432,-0.8342,-0.897,-0.9437,-0.9672,-1.0626,-1.1052,-1.1026,-1.1502,-1.1985,-1.2483,-1.2589,-1.282,-1.3116,-1.3035,-1.32,-1.3618,-1.4384,-1.5168,-1.5767,-1.5271,-1.5565,-1.6219,-1.5564,-1.5905,-1.6738,0.0,0.0,0.0,0.0,0.0,-1.9521,-1.9368,-1.9171,-1.9294,0.0,0.0,0.0,-2.1961,-2.2981,-2.3718,-2.4025,-2.5163,-2.5991,-2.6355,-2.7031,-2.7354,-2.718,-2.5805,-2.4774,-2.4229,-2.2869,-2.1816,-2.1087,-2.0203,-1.9531,-1.9033,-1.8674,-1.8478,-1.8425,-1.8933,-1.9183,-1.9396,-1.9698,0.0,0.0,-1.9911,0.0,0.0,-1.8202,-1.7839,0.0,0.0,0.0,-1.5614,-1.403,-1.2929,0.0,0.0,0.0,0.0,0.0,0.0,0.0,0.0,0.0,0.0,0.0,0.0,0.0,-0.8604,-0.9068,0.0,0.0,0.0,0.0,0.0,0.0,0.0,0.0,0.0,0.0,0.0,0.0,0.0,0.0,0.0,0.0,0.0,0.0,0.0,0.0,-0.4215,-0.4473,-0.5395,-0.595,-0.6532,-0.7197,-0.7572,-0.7944,-0.8391,-0.9209,-0.9603,-0.9536,-1.0224,-1.0644,-1.0829,-1.1137,-1.1516,-1.1879,-1.153,-1.1723,-1.2295,-1.2504,-1.3421,-1.4634,-1.4237,-1.4585,-1.5241,-1.4741,-1.5048,-1.5734,0.0,0.0,-2.2376,-2.1361,-2.0349,-1.9515,-1.9041,-1.8944,-1.9391,0.0,-2.1,-2.1574,-2.2506,-2.288,-2.3351,-2.4059,-2.4466,-2.5536,-2.7497,-2.7661,-2.8002,-2.8707,-2.7151,-2.5978,-2.5358,-2.372,-2.2436,-2.1568,-2.0501,-1.9702,-1.9153,-1.8353,-1.7951,-1.7989,-1.7714,0.0,-1.8121,0.0,0.0,-1.9674,-1.9098,-1.8601,0.0,0.0,-1.7291,-1.7279,-1.6503,-1.5736,-1.5023,-1.4158,-1.2395,0.0,0.0,0.0,0.0,0.0,-0.7668,0.0,0.0,0.0,0.0,0.0,0.0,0.0,-0.7704,-0.8215,-0.8515,0.0,0.0,0.0,0.0,0.0,0.0,0.0,0.0,0.0,0.0,0.0,0.0,0.0,0.0,0.0,0.0,0.0,-0.345,-0.3708,-0.3161,-0.3355,-0.4509,-0.5221,-0.5775,-0.6236,-0.6095,-0.6507,-0.7522,-0.7855,-0.8125,-0.8343,-0.9331,-0.9536,-0.9112,-0.9731,-1.0253,-1.054,-0.9817,-1.0253,-1.1443,-1.0692,-1.1567,-1.3372,-1.331,-1.3624,-1.4095,-1.3985,-1.41,-1.4359,0.0,-2.4166,-2.2397,-2.1897,-2.1157,-2.0599,-2.0543,-2.0499,-2.0768,-2.1528,-2.2531,-2.3321,-2.3791,-2.4001,-2.4305,-2.484,-2.554,-2.6463,-2.7688,-2.8529,-2.8953,-2.8957,-2.7995,-2.6885,-2.5638,-2.4427,-2.3265,-2.2051,-2.1372,-2.0721,-2.0183,-1.9389,-1.8812,-1.8423,-1.7989,-1.7727,0.0,0.0,0.0,-1.7922,-1.8339,0.0,-1.7545,-1.6999,-1.6264,-1.5418,-1.4992,-1.4359,-1.3537,-1.3008,-1.19,-1.0744,0.0,0.0,0.0,0.0,0.0,0.0,0.0,0.0,0.0,0.0,0.0,0.0,-0.6533,-0.6798,-0.7102,0.0,0.0,0.0,0.0,0.0,0.0,0.0,0.0,0.0,0.0,0.0,0.0,0.0,0.0,0.0,0.0,0.0,-0.299,-0.3118,-0.3563,-0.3788,-0.3716,-0.4428,-0.4956,-0.5321,-0.5353,-0.5465,-0.5696,-0.6171,-0.6403,-0.6525,-0.7044,-0.7631,-0.8244,-0.8399,-0.8683,-0.9102,-0.8941,-0.8738,-0.8503,-0.9345,-1.087,-1.2646,-1.2152,-1.2554,-1.3331,-1.2681,-1.2886,-1.3552,-2.609,-2.4364,-2.2694,-2.207,-2.1303,-2.083,-2.0941,-2.077,-2.1069,-2.2338,-2.3529,-2.4178,-2.3961,-2.4562,-2.4965,-2.4999,-2.5603,-2.6465,-2.7528,-2.8027,-2.8453,-2.8791,-2.7601,-2.6513,-2.5587,-2.4251,-2.3119,-2.226,-2.1725,-2.1106,-2.0416,-1.9623,-1.8974,-1.8396,-1.7689,-1.7343,0.0,0.0,-1.7454,-1.7436,-1.7799,0.0,-1.6967,-1.6426,-1.5635,-1.4801,-1.472,-1.4118,-1.321,-1.2698,-1.1811,0.0,0.0,-0.9273,-0.7941,0.0,-0.6398,-0.5738,0.0,0.0,0.0,-0.5243,0.0,0.0,0.0,-0.5542,-0.5843,0.0,0.0,0.0,0.0,0.0,0.0,0.0,0.0,0.0,0.0,0.0,0.0,0.0,0.0,0.0,0.0,0.0,-0.2571,-0.2522,-0.3014,-0.3195,-0.2941,-0.3346,-0.3839,-0.4317,-0.4213,-0.4329,-0.4625,-0.4965,-0.5169,-0.5178,-0.5808,-0.6271,-0.6567,-0.6875,-0.7377,-0.7998,-0.7799,-0.7604,-0.7546,-0.7944,-0.8588,-0.9496,-1.0739,-1.1535,-1.1915,-1.1428,-1.1637,-1.2177,-2.6129,-2.453,-2.2928,-2.2065,-2.1292,-2.0813,-2.0848,-2.0594,-2.1024,-2.2801,-2.4143,-2.4736,-2.4211,-2.5095,-2.5737,-2.5865,-2.5959,-2.6598,-2.7958,-2.7698,-2.7825,-2.8543,-2.7247,-2.6229,-2.5535,-2.4155,-2.312,-2.2487,-2.194,-2.1274,-2.052,-1.9723,-1.8951,-1.8225,-1.7366,-1.6923,-1.6886,0.0,0.0,-1.6965,0.0,-1.7014,-1.6859,-1.6176,-1.5417,-1.4693,-1.4512,-1.3873,-1.3036,-1.2536,0.0,-1.0602,-1.0005,-0.8908,0.0,0.0,0.0,0.0,0.0,0.0,0.0,0.0,0.0,-0.4624,0.0,0.0,0.0,-0.3853,0.0,0.0,0.0,0.0,0.0,0.0,0.0,0.0,0.0,0.0,0.0,0.0,0.0,0.0,0.0,0.0,-0.2179,-0.1806,-0.2338,-0.2537,-0.2204,-0.2503,-0.2909,-0.3422,-0.3105,-0.3152,-0.3726,-0.3805,-0.3855,-0.3869,-0.4666,-0.4986,-0.4851,-0.5427,-0.6107,-0.682,-0.6404,-0.6428,-0.6706,-0.6441,-0.6094,-0.6,-0.8867,-1.0068,-1.0154,-0.9945,-1.0099,-1.0377,-2.5906,-2.4302,-2.2645,-2.2,-2.1487,-2.1036,-2.0759,-2.0721,-2.1265,-2.2658,-2.4296,-2.5449,-2.5793,0.0,0.0,0.0,0.0,0.0,-3.0258,0.0,-2.8316,-2.8406,-2.8244,-2.7446,-2.596,-2.5341,-2.4401,-2.3095,-2.2281,-2.1598,-2.0991,-2.015,-1.9148,-1.8083,-1.7447,0.0,0.0,0.0,-1.6151,0.0,-1.5769,-1.6779,0.0,-1.6753,-1.5739,-1.4666,-1.3272,-1.2461,-1.2076,0.0,-1.0913,-0.9533,0.0,-0.8059,-0.6372,0.0,0.0,0.0,0.0,0.0,0.0,0.0,-0.273,0.0,0.0,0.0,-0.2783,-0.2664,0.0,0.0,0.0,0.0,0.0,0.0,0.0,0.0,0.0,0.0,0.0,0.0,0.0,0.0,0.0,0.0,0.0,-0.1056,-0.2226,-0.2638,-0.1895,-0.2491,-0.2821,-0.283,-0.242,-0.2267,-0.2308,-0.1919,-0.194,-0.2345,-0.2808,-0.3325,-0.3883,-0.4287,-0.473,-0.5168,-0.4669,-0.4409,-0.4357,-0.4887,-0.4665,-0.4144,-0.5969,-0.7302,-0.8177,-0.7807,-0.7825,-0.802,-2.524,-2.4118,-2.2917,-2.2136,-2.1484,-2.0988,-2.0894,-2.1901,-2.2757,-2.2987,-2.4766,0.0,0.0,0.0,0.0,0.0,0.0,-2.8649,0.0,0.0,-2.8398,-2.8398,-2.7923,-2.6986,-2.5561,-2.4847,-2.3865,-2.2615,-2.2287,-2.1735,-2.0927,-2.042,-1.9504,-1.8173,-1.7353,0.0,-1.6197,0.0,-1.5774,0.0,0.0,0.0,0.0,-1.5697,-1.4741,-1.3955,-1.2616,-1.2076,-1.1927,0.0,-1.032,0.0,0.0,0.0,0.0,0.0,0.0,0.0,0.0,0.0,0.0,0.0,0.0,0.0,-0.1734,0.0,-0.19,0.0,0.0,0.0,0.0,0.0,0.0,0.0,0.0,0.0,0.0,0.0,0.0,0.0,0.0,0.0,0.0,0.0,0.0,0.0,0.0,-0.0792,-0.084,-0.1175,-0.1566,-0.2068,-0.1767,-0.1737,-0.1914,-0.1666,-0.1555,-0.1709,-0.1956,-0.2224,-0.2485,-0.2747,-0.3052,-0.3396,-0.3171,-0.2909,-0.2554,-0.2503,-0.2075,-0.1488,-0.1855,-0.3866,-0.6504,-0.5972,-0.6217,-0.6645,-2.5009,-2.4265,-2.3424,-2.2649,-2.1765,-2.1169,-2.1136,-2.2699,-2.3815,-2.3491,0.0,0.0,-2.6428,-2.7673,0.0,0.0,-2.9223,-2.9233,0.0,0.0,-2.8246,0.0,0.0,0.0,0.0,-2.4723,-2.3785,-2.2581,-2.2541,-2.1933,-2.0765,-2.052,-1.9596,-1.8054,0.0,-1.6306,-1.5589,0.0,-1.5067,-1.5058,-1.492,-1.5077,-1.5289,-1.4607,-1.3942,-1.3276,-1.2314,-1.1828,-1.1469,-1.049,-0.9592,0.0,-0.8004,0.0,0.0,0.0,0.0,0.0,-0.1248,0.0,0.0,0.0,0.0,0.0,0.0,0.0,0.0,0.0,0.0,0.0,0.0,0.0,0.0,0.0,0.0,0.0,0.0,0.0,0.0,0.0,0.0,0.0,0.0,0.0,0.0,0.0,0.0895,0.0,0.0166,0.0111,-0.028,-0.1119,-0.1064,-0.1052,-0.1132,-0.1092,-0.0953,-0.0725,-0.102,-0.1128,-0.1026,-0.12,-0.1373,-0.1542,-0.141,-0.1191,-0.0923,-0.0336,0.0125,0.0466,0.0838,-0.0886,-0.3605,-0.3417,-0.4022,-0.4768,-2.5701,-2.4908,0.0,0.0,-2.2632,-2.1787,-2.1517,-2.2683,-2.3732,0.0,0.0,0.0,0.0,0.0,0.0,0.0,0.0,-3.0034,-3.175,0.0,-2.7789,0.0,0.0,-2.6799,0.0,0.0,-2.4876,-2.3545,-2.3224,-2.2258,-2.0716,-2.0356,-1.9279,-1.7585,-1.6773,-1.5768,-1.4644,-1.4489,-1.3771,-1.2785,-1.2804,-1.2573,-1.2417,0.0,-1.3738,-1.2764,-1.2264,0.0,0.0,-0.9644,-0.8593,0.0,0.0,0.0,0.0,0.0,0.0,0.0,0.0,0.0,0.0,-0.0729,0.0,0.0,0.0,0.0,0.0056,0.0,0.0,0.0,0.0,0.0,0.19,0.24,0.0,0.0,0.0,0.0,0.0,0.0,0.0,0.0,0.0,0.0,0.0,0.2292,0.1857,0.0,0.1067,0.0933,0.0559,-0.0056,-0.0168,0.0056,0.0616,0.0324,0.0418,0.1006,0.0242,0.0046,0.0402,0.0089,0.0133,0.0443,0.0889,0.0931,0.0659,0.1267,0.1362,0.1058,0.1017,0.1152,0.1277,0.0392,-0.083,-0.176,0.0,0.0,0.0,0.0,0.0,-2.2373,-2.2117,-2.332,0.0,0.0,0.0,0.0,0.0,-2.9488,-2.9851,0.0,0.0,-2.9041,-2.8767,-2.8212,0.0,0.0,0.0,-2.6693,0.0,0.0,0.0,0.0,-2.2671,-2.1802,-2.0427,-1.9728,-1.8565,-1.7037,-1.5768,-1.4675,0.0,0.0,0.0,0.0,0.0,-1.2211,-1.1578,0.0,0.0,-1.2012,-1.1124,-1.032,0.0,-0.8935,-0.7641,-0.6186,-0.5751,-0.436,-0.2866,-0.2356,-0.1669,0.0,0.0,0.0,-0.0279,-0.0272,0.0,0.0,0.0,0.0,0.0,0.0,0.0,0.0,0.0,0.0,0.2774,0.3385,0.3923,0.0,0.0,0.0,0.0,0.0,0.0,0.0,0.0,0.0,0.0,0.4234,0.392,0.3542,0.0,0.2325,0.1786,0.134,0.1118,0.1119,0.1399,0.1406,0.1462,0.1559,0.1452,0.1441,0.1474,0.1428,0.156,0.1827,0.2008,0.2268,0.2602,0.3135,0.345,0.3571,0.3781,0.3702,0.3302,0.1932,0.114,0.109,-2.6951,0.0,0.0,0.0,0.0,0.0,0.0,0.0,0.0,0.0,-2.7758,0.0,-2.8897,0.0,-2.942,0.0,-2.8903,-2.8539,-2.7448,-2.7457,0.0,-2.6719,-2.677,0.0,0.0,0.0,0.0,0.0,0.0,-2.1414,-1.9624,-1.8855,-1.7585,-1.5972,0.0,-1.3361,-1.225,0.0,-1.1954,0.0,0.0,-1.1464,0.0,0.0,-1.083,-1.1099,0.0,-0.9365,-0.8642,-0.7671,-0.6503,-0.5411,-0.4735,-0.3503,-0.2221,-0.1922,-0.1267,-0.0625,-0.0516,-0.0268,0.0,0.0109,0.0386,0.0,0.0616,0.0,0.0,0.0,0.0,0.0,0.0,0.0,0.3875,0.4495,0.5092,0.5854,0.0,0.7272,0.0,0.0,0.0,0.0,0.0,0.0,0.6494,0.5783,0.5699,0.5324,0.0,0.0,0.3169,0.2561,0.212,0.2012,0.2179,0.2347,0.2372,0.2261,0.2642,0.2726,0.2586,0.2804,0.307,0.3429,0.347,0.3774,0.4248,0.4644,0.4908,0.5168,0.547,0.546,0.5096,0.3832,0.3557,0.4054,0.0,0.0,0.0,0.0,-2.4636,0.0,0.0,0.0,-2.6791,0.0,-2.7273,-2.7981,-2.6355,-2.7316,-2.8038,-2.7922,-2.8352,0.0,-2.7763,-2.7075,0.0,0.0,-2.5862,-2.5735,-2.4992,0.0,0.0,0.0,0.0,0.0,-1.8444,-1.7758,-1.6439,-1.4564,-1.3398,0.0,-1.0332,-1.0501,-1.0364,-1.002,-1.0293,-1.0285,-1.0064,-0.951,0.0,-0.9967,-0.9283,-0.8572,-0.7691,-0.5997,-0.5331,-0.499,-0.3497,-0.2607,-0.2036,-0.1707,-0.1172,-0.066,-0.0263,-0.0163,-0.0056,0.0335,0.0,0.0,0.0,0.0,0.1842,0.0,0.0,0.0,0.0,0.0,0.0,0.5611,0.6253,0.7241,0.0,0.0,0.0,0.0,0.0,0.0,0.0,0.8134,0.7611,0.7047,0.7156,0.6913,0.0,0.0,0.0,0.3718,0.3003,0.2785,0.3016,0.3109,0.3166,0.3224,0.3801,0.3938,0.3704,0.4128,0.4609,0.5101,0.5265,0.5437,0.5577,0.5739,0.5825,0.5862,0.6107,0.6489,0.6784,0.6076,0.6301,0.6985,-2.7793,-2.7611,-2.7113,0.0,-2.5065,-2.4837,0.0,0.0,0.0,0.0,-2.7701,-2.8219,-2.7175,-2.7759,-2.7784,-2.6688,-2.6387,0.0,0.0,0.0,0.0,-2.3997,-2.4297,-2.4074,-2.3174,-2.355,0.0,-2.1241,0.0,0.0,-1.7893,-1.7135,-1.5656,-1.3596,0.0,0.0,-0.9349,-0.9894,-1.0226,-1.0293,-1.0028,-0.9555,0.0,0.0,-0.8184,-0.8066,-0.83,-0.7361,-0.6022,-0.5562,-0.4466,-0.317,-0.233,-0.1534,-0.0823,-0.0377,-0.0049,0.0101,0.0204,0.0473,0.0751,0.0888,0.135,0.1777,0.0,0.0,0.0,0.0,0.0,0.0,0.0,0.0,0.0,0.7209,0.8273,0.926,0.0,0.0,0.0,0.0,0.0,0.0,0.0,1.0019,0.999,0.9642,0.9364,0.9106,0.0,0.0,0.0,0.6108,0.5173,0.4545,0.4398,0.4391,0.4509,0.4738,0.4857,0.4914,0.4956,0.4851,0.4923,0.5145,0.5594,0.6064,0.6501,0.7007,0.7342,0.7641,0.7668,0.775,0.7867,0.7377,0.7612,0.8278,-2.8386,0.0,0.0,-2.5695,0.0,0.0,-2.5224,0.0,0.0,-2.6557,-2.7507,0.0,-2.6774,-2.6605,-2.6153,-2.5094,-2.5092,0.0,-2.3751,0.0,0.0,-2.248,-2.2649,-2.2262,-2.1161,-2.168,0.0,-1.9498,0.0,0.0,-1.6734,-1.5929,-1.4517,-1.2619,0.0,-0.9834,-0.8317,-0.8646,-0.8974,-0.919,-0.9033,0.0,0.0,-0.7717,-0.7222,-0.6707,-0.6849,-0.6174,-0.5077,-0.455,-0.3345,-0.1989,-0.1387,-0.0774,-0.018,0.023,0.0386,0.0454,0.0655,0.0829,0.106,0.1452,0.1786,0.209,0.2477,0.2762,0.3108,0.0,0.0,0.0,0.0,0.0,0.0,0.0,0.0,0.0,0.0,0.0,0.0,0.0,0.0,0.0,0.0,1.1585,1.097,1.0551,1.0399,1.0226,0.0,0.0,0.0,0.75,0.7045,0.6469,0.5756,0.6112,0.6168,0.5986,0.6468,0.647,0.6083,0.6219,0.6191,0.613,0.6622,0.7001,0.7349,0.7923,0.83,0.8545,0.9044,0.9345,0.9524,0.9358,0.9331,0.9538,0.0,0.0,0.0,0.0,0.0,0.0,0.0,-2.7064,0.0,-2.5957,0.0,-2.6742,-2.5397,-2.4675,-2.4066,-2.3465,0.0,-2.3909,-2.2621,-2.2551,-2.2039,-2.0865,-2.094,-2.0478,-1.9243,-1.9893,0.0,0.0,0.0,0.0,-1.5445,-1.4584,-1.3318,-1.1661,0.0,0.0,0.0,-0.7233,-0.7346,0.0,-0.7735,-0.7471,-0.7074,-0.6988,-0.6378,-0.5551,-0.5229,-0.4901,-0.4435,-0.3354,-0.2215,-0.1159,-0.0581,-0.0134,0.0179,0.0447,0.052,0.065,0.1051,0.1128,0.126,0.1888,0.2094,0.2263,0.2925,0.3109,0.3356,0.42,0.4838,0.0,0.0,0.0,0.0,0.0,0.0,0.0,0.0,0.0,0.0,0.0,0.0,0.0,0.0,0.0,1.1734,1.115,1.1345,0.0,0.0,0.0,0.0,0.0,0.8798,0.0,0.7133,0.0,0.7878,0.7144,0.8086,0.8063,0.7237,0.7722,0.7815,0.7553,0.7847,0.8033,0.8152,0.8707,0.9013,0.9244,1.0321,1.0929,1.1254,1.1549,1.1311,1.0952,0.0,0.0,0.0,0.0,0.0,-2.6308,-2.5756,-2.5368,-2.4729,-2.3538,-2.4277,-2.4365,-2.2982,-2.3409,-2.3465,-2.2519,-2.2473,0.0,0.0,0.0,0.0,-1.8714,-1.929,-1.923,-1.8352,-1.8299,-1.7959,0.0,0.0,0.0,-1.4846,-1.4018,-1.2609,0.0,0.0,0.0,-0.7195,-0.6721,0.0,-0.7593,-0.7116,-0.65,-0.5821,-0.5351,-0.4615,-0.3843,-0.3789,-0.3605,-0.3298,-0.2521,-0.1572,-0.0536,0.0134,0.0537,0.0805,0.1119,0.1252,0.1347,0.1395,0.1596,0.1752,0.1897,0.217,0.2609,0.3243,0.3598,0.4025,0.4942,0.5226,0.5639,0.6875,0.0,0.0,0.0,0.0,0.0,0.0,0.0,0.0,0.0,0.0,0.0,0.0,0.0,0.0,0.0,0.0,0.0,0.0,0.0,0.0,0.0,0.0,0.0,0.0,0.0,0.0,0.8775,0.845,0.829,0.8316,0.8308,0.8294,0.8323,0.8476,0.8864,0.9301,0.954,1.0118,1.0922,1.163,1.1959,1.2069,1.2601,1.3094,1.3372,0.0,0.0,0.0,0.0,0.0,0.0,0.0,-2.3586,0.0,-2.3562,-2.3806,-2.3714,-2.3134,-2.3004,-2.2592,-2.1794,-2.1718,-2.1252,-2.0225,-1.9844,-1.922,-1.8252,-1.7611,0.0,-1.6863,-1.6198,-1.5793,-1.5691,0.0,0.0,-1.4014,-1.3426,-1.2239,-1.0517,0.0,-0.77,0.0,0.0,0.0,-0.6623,-0.6062,-0.5493,-0.4867,-0.4385,-0.3811,-0.3217,-0.3024,-0.2567,-0.2027,-0.179,-0.0971,0.0045,0.0537,0.0895,0.1208,0.1344,0.1431,0.1525,0.1667,0.1811,0.2002,0.2425,0.2628,0.2993,0.3788,0.4195,0.463,0.5505,0.5914,0.6608,0.8184,0.9533,0.0,0.0,0.0,0.0,0.0,0.0,0.0,0.0,0.0,0.0,0.0,0.0,0.0,0.0,0.0,0.0,0.0,0.0,0.0,0.0,0.0,0.0,0.0,0.0,0.0,1.0348,1.0097,0.9982,0.9987,1.0009,0.996,0.9908,1.0092,1.0493,1.1094,1.169,1.2323,1.295,1.3358,1.3487,1.3491,1.39,1.4383,1.4758,0.0,-2.8342,0.0,0.0,-2.6282,0.0,-2.3568,-2.2204,-2.1938,-2.3589,-2.3439,-2.3272,-2.3495,-2.2643,-2.1786,-2.1165,-2.0975,-2.0505,-1.9662,-1.875,-1.8092,-1.7708,-1.6242,-1.5492,-1.5517,-1.4482,-1.4082,0.0,0.0,0.0,0.0,-1.2774,0.0,0.0,0.0,0.0,0.0,0.0,-0.5658,-0.5366,-0.4923,-0.4398,-0.3912,-0.3489,-0.308,-0.2623,-0.2299,-0.1608,-0.0897,-0.0834,-0.0229,0.0582,0.0895,0.1208,0.1433,0.1521,0.1603,0.1692,0.2022,0.2162,0.2394,0.3091,0.3291,0.3519,0.4481,0.4887,0.5259,0.6118,0.6881,0.7859,0.9496,1.0399,0.0,0.0,0.0,0.0,0.0,0.0,0.0,0.0,0.0,0.0,0.0,0.0,0.0,0.0,0.0,0.0,0.0,0.0,0.0,0.0,0.0,1.4027,1.3101,0.0,1.1841,0.0,1.1642,1.1581,1.142,1.1524,1.1538,1.1458,1.1616,1.2113,1.2844,1.3846,1.4387,1.4616,1.486,1.4848,1.469,1.4984,1.533,1.5565,0.0,0.0,0.0,0.0,0.0,0.0,0.0,-2.1795,-2.0809,-2.1658,-2.1787,-2.1903,-2.2237,-2.1861,-2.1301,-2.0619,-1.9708,-1.8775,-1.7978,-1.7603,-1.689,-1.5719,-1.567,-1.5444,-1.4991,-1.4169,-1.4029,0.0,0.0,0.0,0.0,0.0,0.0,0.0,0.0,0.0,0.0,-0.4912,-0.4624,-0.4132,-0.3672,-0.3189,-0.2713,-0.2292,-0.1804,-0.1215,-0.0855,-0.0539,-0.018,0.0495,0.0763,0.0895,0.1254,0.1389,0.1478,0.1923,0.2061,0.2156,0.2739,0.3093,0.3357,0.3711,0.4012,0.4447,0.5457,0.5707,0.6037,0.7114,0.8119,0.9124,1.0312,1.0795,1.1387,0.0,0.0,0.0,0.0,0.0,0.0,0.0,0.0,0.0,0.0,0.0,0.0,0.0,0.0,0.0,0.0,0.0,0.0,1.6177,0.0,1.5153,1.397,1.3262,0.0,1.2098,1.1882,1.1747,1.176,1.1886,1.2053,1.2201,1.2298,1.2979,1.4108,1.498,1.5296,1.5243,1.5651,1.5414,1.4937,1.5506,1.5724,1.5739,0.0,0.0,0.0,0.0,0.0,0.0,0.0,-2.0903,-1.9376,-1.8891,-1.994,-2.0941,-2.1439,-2.094,-2.0217,-1.9313,-1.8318,-1.7395,-1.6596,-1.6087,-1.5533,-1.4974,-1.4607,-1.4325,-1.4106,-1.3271,-1.2814,0.0,0.0,0.0,0.0,0.0,0.0,0.0,0.0,-0.619,-0.5159,-0.5011,-0.4466,-0.3652,-0.3169,-0.2513,-0.1828,-0.1484,-0.0984,-0.0403,-0.0268,0.009,0.0493,0.0806,0.0895,0.094,0.1299,0.1611,0.1876,0.2146,0.241,0.2765,0.3208,0.3429,0.3649,0.4268,0.4535,0.487,0.5939,0.6451,0.6993,0.7776,0.8903,0.9953,1.0712,1.1325,1.2036,0.0,0.0,0.0,0.0,0.0,0.0,0.0,0.0,0.0,0.0,0.0,1.7472,0.0,0.0,0.0,0.0,0.0,0.0,1.7479,0.0,1.5986,1.5195,1.4055,1.3409,1.3256,1.3246,1.3426,1.3794,1.3862,1.3989,1.4204,1.4923,1.5477,1.6015,1.6938,1.7213,1.7033,1.6947,1.6692,1.6337,1.6339,1.6416,1.6496,-2.7035,0.0,-2.6436,0.0,-2.4897,-2.3569,-2.1714,-1.9818,-1.8087,-1.6663,-1.7518,-1.8644,-1.9577,-1.8986,-1.8212,-1.7461,-1.6561,-1.5746,-1.5022,-1.438,-1.3902,-1.3747,-1.3235,0.0,-1.2606,-1.1959,-1.1419,-1.1085,-1.0522,0.0,0.0,0.0,0.0,0.0,-0.6637,-0.5673,-0.4629,-0.4392,-0.3774,-0.2909,-0.2352,-0.1713,-0.1071,-0.067,-0.0268,0.0134,0.0224,0.0537,0.094,0.1207,0.1297,0.1341,0.1611,0.1966,0.241,0.2674,0.2987,0.3385,0.3829,0.4005,0.422,0.4888,0.5237,0.5697,0.6625,0.7311,0.8019,0.8662,0.9837,1.0872,1.1275,1.1981,1.2686,1.3266,0.0,0.0,0.0,0.0,0.0,0.0,1.7137,1.7272,1.7157,0.0,0.0,0.0,0.0,0.0,0.0,0.0,0.0,0.0,0.0,0.0,0.0,1.4891,1.4269,1.4201,1.4362,1.4686,1.5108,1.5142,1.54,1.5852,1.6731,1.7313,1.7773,1.8511,1.8579,1.8193,1.8014,1.7592,1.7065,1.6886,1.6901,1.6993,-2.7248,-2.6767,-2.6098,-2.5092,-2.4151,-2.2685,-2.02,-1.8563,-1.7037,-1.5453,-1.4373,-1.4417,-1.6074,-1.5529,-1.5041,-1.5034,-1.4282,-1.3621,-1.3074,-1.2474,-1.1997,0.0,0.0,-1.1125,-1.027,-1.0025,-0.9978,-1.0113,0.0,0.0,-0.9065,0.0,-0.7321,-0.6833,-0.5494,-0.4174,-0.2926,-0.2565,-0.2143,-0.1575,-0.0952,-0.065,-0.0447,0.0134,0.0403,0.0447,0.076,0.0895,0.1029,0.1966,0.2279,0.2279,0.2279,0.2591,0.312,0.3686,0.3906,0.4041,0.4622,0.4927,0.5188,0.5588,0.6334,0.7134,0.7654,0.8289,0.9034,0.9995,1.1157,1.2021,1.2147,1.2735,1.3314,1.3716,0.0,0.0,0.0,0.0,0.0,0.0,1.7352,1.7718,1.7219,0.0,0.0,0.0,0.0,0.0,0.0,0.0,0.0,1.8963,1.7965,0.0,1.6711,1.5893,1.522,1.4698,1.496,1.5108,1.5108,1.5311,1.5896,1.6786,1.7024,1.7854,1.9101,1.9464,1.9053,1.8238,1.8617,1.7896,1.6649,1.6977,1.7052,1.7043,-2.5866,-2.5519,-2.5024,-2.4284,-2.3598,-2.2237,-1.955,-1.7391,-1.5222,-1.2799,-1.0689,-0.969,-1.0483,-1.2091,-1.3186,0.0,-1.231,-1.1594,0.0,-1.0931,-1.0458,-0.9674,-0.9976,-0.9763,-0.8993,-0.9149,-0.8981,-0.8484,0.0,0.0,0.0,-0.6018,-0.5457,-0.5203,-0.4365,-0.3451,-0.2555,-0.2357,-0.1752,-0.095,-0.0692,-0.0136,0.0492,0.0671,0.0895,0.1074,0.1208,0.1521,0.1923,0.219,0.2765,0.3426,0.3517,0.3774,0.4077,0.4041,0.4478,0.4966,0.4937,0.5236,0.5663,0.597,0.6686,0.7503,0.8037,0.8834,0.9796,1.0973,1.151,1.1999,1.2638,1.3122,1.3647,1.4201,0.0,0.0,0.0,0.0,0.0,0.0,0.0,1.7893,0.0,1.7945,0.0,0.0,0.0,0.0,0.0,0.0,0.0,0.0,1.7965,0.0,1.6711,1.5893,1.5412,1.5164,1.5433,1.5756,1.6076,1.6514,1.6883,1.7325,1.8013,1.875,1.9464,1.9844,1.9685,1.9217,1.9044,1.8407,1.7551,1.7526,1.7479,1.7498,-2.2705,-2.3088,-2.3245,-2.2462,-2.2646,-2.1902,-1.8915,-1.6297,-1.3606,-1.0607,-0.8047,-0.6679,-0.718,-0.8745,0.0,-1.0548,-1.0386,-0.9931,-0.911,-0.9169,-0.8871,-0.7954,-0.8209,-0.8202,-0.7795,0.0,0.0,-0.7211,-0.6437,-0.5769,-0.5282,-0.4404,-0.3931,-0.3821,-0.3125,-0.2503,-0.1819,-0.1637,-0.105,-0.0278,-0.0045,0.0492,0.1164,0.1299,0.1478,0.1658,0.1658,0.2014,0.2499,0.2721,0.3337,0.4045,0.4355,0.4696,0.4952,0.453,0.5053,0.5615,0.5366,0.5669,0.6136,0.6435,0.7284,0.8197,0.8974,0.9788,1.0592,1.1368,1.1909,1.2344,1.2967,1.3637,1.4212,1.4663,0.0,1.6076,0.0,0.0,0.0,0.0,0.0,0.0,0.0,1.8015,0.0,0.0,0.0,0.0,0.0,0.0,0.0,1.9239,1.8153,0.0,1.702,1.617,1.5856,1.5996,1.6386,1.6697,1.7005,1.7394,1.776,1.8028,1.8817,1.9398,1.9879,2.0413,2.0319,1.9874,1.9837,1.9192,1.8341,1.8572,1.843,1.8232,-1.8327,-1.9839,0.0,0.0,-2.1482,0.0,-1.8052,-1.5184,-1.216,-0.8666,-0.6284,-0.5209,-0.5959,-0.5756,-0.6023,-0.7233,0.0,0.0,0.0,-0.7391,-0.7289,-0.6534,-0.6534,0.0,-0.6668,-0.6279,-0.6134,-0.6197,-0.4541,-0.3839,-0.3942,-0.3167,-0.2694,-0.2615,-0.195,-0.1398,-0.0857,-0.0503,-0.0048,0.0447,0.0805,0.1208,0.1658,0.1973,0.2109,0.2109,0.2154,0.2415,0.2851,0.3429,0.3873,0.4268,0.4806,0.5323,0.5615,0.5154,0.5491,0.5996,0.5873,0.6173,0.6647,0.6979,0.8033,0.9243,1.0221,1.0854,1.1276,1.1267,1.2197,1.2967,1.316,1.4107,1.496,1.5096,1.5901,1.6552,1.671,0.0,0.0,0.0,0.0,0.0,0.0,1.8153,1.8249,0.0,0.0,0.0,0.0,0.0,2.008,1.9668,1.8635,1.7979,1.7678,1.6778,1.6602,1.7076,1.7544,1.7787,1.7787,1.804,1.8394,1.8846,1.9413,1.9879,2.0311,2.1007,2.0888,2.0283,2.08,2.0118,1.8983,1.9872,1.9733,1.9222,0.0,0.0,-1.9026,-1.8474,-2.1206,-2.1265,-1.4628,-1.2858,-1.0396,-0.5178,-0.4095,-0.3938,-0.433,-0.4718,-0.4944,-0.4999,-0.6411,-0.7015,-0.6475,-0.6578,-0.6362,-0.566,-0.5605,-0.5569,-0.5531,-0.524,-0.478,-0.4091,-0.3382,-0.2952,-0.2804,-0.1825,-0.153,-0.184,-0.1089,-0.0631,-0.0503,0.0,0.0422,0.0805,0.1254,0.1658,0.1975,0.2064,0.2109,0.2154,0.2457,0.2898,0.3429,0.3825,0.436,0.4806,0.4941,0.5323,0.5658,0.5328,0.5798,0.6349,0.6136,0.6683,0.7356,0.7807,0.8822,0.978,1.0003,1.0364,1.082,1.1226,1.181,1.2393,1.2967,1.4003,1.4926,1.5421,1.6051,1.665,1.7031,1.7323,0.0,0.0,1.7797,1.788,1.7797,1.7811,1.8227,0.0,0.0,0.0,0.0,0.0,2.0772,2.008,1.9406,1.8869,1.8516,1.7989,1.7676,1.7625,1.7747,1.7787,1.7828,1.8266,1.8741,1.9214,1.9752,2.0395,2.1039,2.1214,2.101,2.0603,2.091,2.0454,1.9698,2.0164,2.0202,2.0045,-1.0995,-1.2392,-1.3361,-1.2018,-1.3936,-1.4076,-0.9406,-0.7515,-0.5576,-0.256,-0.1536,-0.149,-0.2607,-0.3094,-0.3458,-0.3834,-0.5391,-0.5987,-0.5167,-0.521,-0.5097,-0.4618,-0.4336,-0.4406,-0.4752,-0.4234,-0.3366,-0.2242,-0.1934,-0.1612,-0.1272,-0.0849,-0.0779,-0.0929,-0.0218,0.016,0.0206,0.0808,0.1213,0.1565,0.1796,0.2141,0.2467,0.2467,0.2556,0.2732,0.2948,0.3432,0.4008,0.4184,0.4583,0.5029,0.5116,0.541,0.5744,0.5836,0.6227,0.6696,0.6774,0.7349,0.8142,0.8915,0.9692,1.0223,1.0227,1.0458,1.082,1.1217,1.166,1.2197,1.2871,1.4086,1.5152,1.5543,1.6269,1.6905,1.7157,1.7282,0.0,1.7404,1.7569,1.7679,1.7679,1.7679,1.803,1.8818,0.0,0.0,2.0595,2.1138,2.1118,2.0472,1.9963,1.9425,1.8885,1.8511,1.8249,1.8108,1.8305,1.8383,1.8422,1.8784,1.9169,1.9615,2.0174,2.0745,2.1309,2.1464,2.1444,2.1368,2.1596,2.1247,2.0713,2.1315,2.1295,2.0973,-0.4343,-0.5171,-0.5574,-0.318,-0.2553,-0.2253,-0.184,-0.0214,0.0765,0.0154,0.1101,0.0988,-0.1057,-0.1319,-0.1873,-0.3055,-0.448,-0.4815,-0.3652,-0.3586,-0.3583,-0.3487,-0.2984,-0.3082,-0.3938,-0.3023,-0.1917,-0.0657,-0.0409,-0.0137,0.019,0.0,-0.0051,0.0106,0.0602,0.0873,0.1056,0.1643,0.2038,0.2328,0.2377,0.2602,0.2912,0.2912,0.309,0.3398,0.3442,0.3884,0.4412,0.4499,0.4762,0.5072,0.5246,0.5539,0.5964,0.6392,0.6823,0.716,0.7565,0.8185,0.8994,0.9902,1.0378,1.0632,1.0634,1.0812,1.1074,1.1318,1.171,1.2197,1.2871,1.4272,1.5421,1.5543,1.6484,1.7199,1.7199,0.0,1.7293,1.7523,1.7499,1.7555,1.78,1.7773,1.7801,1.8004,1.8981,1.9591,0.0,2.0669,2.1042,2.0691,2.0353,1.9807,1.9083,1.8754,1.8592,1.8592,1.8936,1.9139,1.9199,1.9398,1.9696,2.0093,2.0681,2.1071,2.1402,2.1768,2.1986,2.2124,2.2398,2.2184,2.1747,2.2582,2.2443,2.1925,-0.016,0.1236,0.2822,0.4884,1.0453,1.3692,1.0742,0.8581,0.6716,0.5101,0.3073,0.1261,-0.0159,-0.0105,-0.0363,-0.1554,-0.1868,-0.2164,-0.245,-0.2133,-0.197,-0.192,-0.1865,-0.1788,-0.1788,-0.113,-0.0377,0.045,0.0626,0.0865,0.1186,0.1145,0.1172,0.1321,0.1423,0.147,0.1524,0.2151,0.2346,0.2328,0.2713,0.2881,0.2912,0.2912,0.309,0.3442,0.3707,0.406,0.4495,0.498,0.5198,0.5241,0.5285,0.5669,0.6221,0.6556,0.7308,0.8054,0.8267,0.9159,0.9971,0.9741,1.055,1.123,1.0876,1.1002,1.1368,1.181,1.1959,1.2197,1.2716,1.4179,1.5344,1.5433,1.6324,1.7086,1.7199,0.0,1.7589,1.812,1.7862,1.788,1.8419,1.8098,1.8085,1.8629,1.8847,1.9144,1.9673,2.0014,2.0185,2.0141,2.0521,2.0385,1.9585,1.9194,1.9026,1.9026,1.9064,1.931,1.9681,1.9773,2.023,2.0927,2.1306,2.1584,2.1768,2.222,2.226,2.2056,2.2508,2.2537,2.2371,2.2686,2.2704,2.247,0.3884,0.5687,0.7683,1.0395,1.4679,1.6721,1.3878,1.1988,0.986,0.6917,0.4816,0.3192,0.1951,0.1708,0.1222,0.0142,0.0287,0.0296,-0.0051,-0.0412,-0.0681,-0.0924,-0.0535,-0.021,0.0052,0.0342,0.1031,0.2109,0.1887,0.1932,0.2242,0.1878,0.163,0.1518,0.1918,0.2107,0.213,0.2801,0.3026,0.2926,0.3068,0.3024,0.2957,0.3116,0.3398,0.3707,0.4056,0.4412,0.4762,0.5154,0.5285,0.5328,0.5588,0.6099,0.6689,0.6985,0.7655,0.848,0.9239,0.9677,1.0039,1.0547,1.1177,1.1685,1.1576,1.1722,1.1909,1.2008,1.2246,1.253,1.2764,1.4215,1.5344,1.5389,1.6355,0.0,0.0,1.7738,1.7873,1.8209,1.8084,1.8158,1.8567,1.8394,1.8573,1.9225,1.9266,1.9402,1.9686,1.9775,1.9743,1.9528,2.0019,2.0063,1.9689,1.932,1.9101,1.9101,1.925,1.9479,1.9823,2.007,2.0516,2.1102,2.1323,2.157,2.1827,2.2032,2.2101,2.2068,2.2215,2.2398,2.2552,2.2544,2.2598,2.266,0.8112,0.9891,1.189,1.4801,1.688,1.7396,1.5193,1.4094,1.2102,0.8225,0.6411,0.5021,0.3765,0.3265,0.2648,0.1698,0.2016,0.2184,0.2027,0.1377,0.0759,0.0326,0.0837,0.1281,0.165,0.1741,0.2377,0.353,0.3158,0.3064,0.3331,0.2758,0.2339,0.2069,0.269,0.2937,0.2999,0.3517,0.3675,0.3547,0.3318,0.3197,0.3172,0.3317,0.3663,0.4056,0.432,0.4675,0.5116,0.5333,0.542,0.5545,0.5976,0.6568,0.7154,0.737,0.8048,0.8922,0.999,1.0106,1.021,1.1317,1.188,1.2172,1.2347,1.2434,1.2442,1.2393,1.2579,1.2861,1.3112,1.4365,1.5433,1.5555,0.0,0.0,0.0,1.8009,1.8184,1.842,1.8477,1.8618,1.8983,1.8933,1.9098,1.9659,1.97,1.9632,1.9497,1.9571,1.9457,1.9112,1.9367,1.9541,1.9645,1.9348,1.925,1.9325,1.9508,1.9767,2.007,2.0395,2.078,2.1275,2.1432,2.1601,2.1811,2.1957,2.2073,2.2141,2.2113,2.2326,2.2605,2.2446,2.2527,2.2712,1.2882,1.4803,1.6701,1.8417,2.0306,2.0745,1.8415,1.6639,1.4239,1.0451,0.7877,0.5827,0.4207,0.4069,0.377,0.2954,0.2907,0.2965,0.2994,0.2981,0.2794,0.2419,0.2129,0.2311,0.2963,0.3157,0.3575,0.4248,0.4268,0.4256,0.4299,0.4052,0.3932,0.3899,0.4134,0.4282,0.425,0.4173,0.4104,0.4023,0.3419,0.334,0.3538,0.3449,0.3792,0.4368,0.4408,0.4762,0.5333,0.5593,0.5809,0.6019,0.6355,0.6859,0.737,0.7482,0.8495,0.9723,1.0154,1.0576,1.1012,1.148,1.2234,1.2841,1.2826,1.2792,1.2919,1.3372,1.3112,1.3102,1.4082,1.4858,1.5478,1.5983,0.0,0.0,1.7251,1.7748,1.8372,1.9123,1.9234,1.9538,2.0305,1.9886,1.9646,1.97,1.97,1.9456,1.8915,1.9211,1.9327,1.9113,1.8932,1.9084,1.9531,1.9472,1.9654,1.9919,1.9955,2.0239,2.0828,2.0861,2.1182,2.1751,2.1969,2.194,2.184,2.2398,2.2515,2.2338,2.2605,2.2712,2.2685,2.2685,2.2685,2.2712,1.5863,1.7553,1.931,2.1025,2.2168,2.1942,1.9351,1.7461,1.4933,1.0903,0.8442,0.6605,0.5477,0.4974,0.4475,0.3741,0.3869,0.3939,0.3778,0.4,0.3876,0.3288,0.3158,0.345,0.4249,0.4126,0.4478,0.5366,0.4966,0.4787,0.4831,0.4447,0.4184,0.3976,0.4155,0.4263,0.437,0.4288,0.4414,0.457,0.4111,0.4028,0.4104,0.4365,0.4414,0.4456,0.4806,0.5111,0.5328,0.5593,0.5976,0.6355,0.6653,0.7202,0.7824,0.8553,0.9198,0.9906,1.0803,1.1201,1.1558,1.2208,1.2668,1.3,1.3289,1.3297,1.3362,1.3563,1.3705,1.3931,1.4326,1.5164,1.5852,1.6071,0.0,1.7489,1.8602,1.8415,1.8608,1.983,1.9307,1.9246,2.0172,1.9929,1.9999,2.0718,2.0107,1.9591,1.9361,1.9045,1.886,1.8912,1.9124,1.9236,1.9236,1.942,1.9566,1.9675,2.008,2.0478,2.0893,2.1071,2.1386,2.1797,2.1781,2.184,2.1957,2.2073,2.2192,2.231,2.2298,2.2426,2.2552,2.2436,2.2517,2.2712,1.871,2.006,2.1422,2.2884,2.3298,2.2547,1.9884,1.7854,1.5223,1.1241,0.8932,0.7236,0.6248,0.558,0.4966,0.4355,0.4574,0.4719,0.4625,0.4938,0.4733,0.3922,0.3883,0.4268,0.5079,0.4856,0.5221,0.6147,0.5577,0.5318,0.528,0.4888,0.4539,0.424,0.4413,0.4558,0.4682,0.4642,0.4769,0.5015,0.473,0.4607,0.4591,0.4978,0.4929,0.4718,0.5072,0.5415,0.5712,0.5804,0.627,0.6823,0.7118,0.777,0.8614,0.9478,1.0116,1.0701,1.1522,1.1999,1.2318,1.2796,1.3031,1.3181,1.3538,1.3621,1.3621,1.3621,1.4035,1.4501,1.464,1.5466,1.6201,1.6343,1.6991,1.7853,1.8995,1.8862,1.9062,2.0104,1.9682,1.9688,2.0598,2.0362,2.0625,2.1758,2.0822,2.0042,1.9908,1.8988,1.862,1.8912,1.931,1.942,1.925,1.9603,1.9839,1.9909,2.0342,2.0712,2.1039,2.1183,2.1464,2.1869,2.1708,2.1827,2.2073,2.2061,2.2163,2.2349,2.2243,2.2371,2.2552,2.2409,2.249,2.2712,2.163,2.2461,2.3333,2.3997,2.3776,2.2688,2.0261,1.7961,1.5199,1.1667,0.938,0.7623,0.6367,0.5793,0.5318,0.4845,0.4971,0.5231,0.5491,0.5825,0.5482,0.4369,0.4316,0.4618,0.5303,0.5443,0.5836,0.6477,0.6142,0.589,0.568,0.542,0.5203,0.4994,0.5193,0.5283,0.5311,0.5321,0.5328,0.5328,0.5224,0.5115,0.4935,0.5128,0.5245,0.529,0.5072,0.5669,0.6477,0.627,0.6738,0.7461,0.7795,0.8738,0.9794,1.02,1.1261,1.2299,1.2309,1.2953,1.3507,1.2995,1.3279,1.3621,1.3621,1.3621,1.3621,1.361,1.4107,1.4687,1.522,1.5832,1.6454,1.6905,1.7622,1.8094,1.8017,1.8986,1.9708,1.9835,2.0513,2.1243,2.186,2.1437,2.1603,2.2801,2.1792,2.0859,2.0329,1.9137,1.8697,1.9101,1.9384,1.953,1.953,2.0085,2.0545,2.0794,2.0794,2.099,2.1277,2.1167,2.1448,2.1998,2.184,2.1991,2.231,2.2432,2.2515,2.2515,2.2659,2.2712,2.2712,2.2712,2.2712,2.2712,2.321,2.384,2.444,2.4619,2.3676,2.2116,1.9889,1.7646,1.5023,1.1693,0.9942,0.8513,0.711,0.6301,0.5841,0.5793,0.5836,0.6136,0.6774,0.6295,0.6153,0.644,0.5701,0.5453,0.5798,0.605,0.627,0.6453,0.6233,0.5976,0.568,0.529,0.5072,0.499,0.5223,0.5465,0.58,0.6164,0.6558,0.6963,0.681,0.6518,0.6164,0.624,0.5835,0.5371,0.5884,0.6264,0.6551,0.6962,0.7554,0.8259,0.9229,1.0039,1.0675,1.1048,1.1674,1.2368,1.2606,1.3117,1.3589,1.3445,1.3517,1.3716,1.4093,1.414,1.428,1.472,1.5209,1.5611,1.5808,1.6355,1.6863,1.7115,1.7411,1.8162,1.9752,1.9656,2.0103,2.1919,2.1515,2.141,2.2327,2.1974,2.2061,2.2846,2.1773,2.0683,1.974,1.9474,1.9347,1.9384,1.9874,2.012,2.012,2.0308,2.0444,2.0512,2.0728,2.0925,2.1167,2.1135,2.1246,2.1509,2.157,2.1764,2.2101,2.2226,2.2436,2.2632,2.2685,2.2712,2.2712,2.2712,2.2712,2.2712,2.4316,2.4676,2.4956,2.4876,2.3529,2.1716,1.9613,1.7376,1.4865,1.1836,1.0371,0.9107,0.7866,0.7151,0.6681,0.6513,0.6598,0.6859,0.737,0.6816,0.6774,0.7503,0.6653,0.6319,0.6605,0.6653,0.6696,0.6787,0.6568,0.627,0.5809,0.555,0.542,0.5501,0.5588,0.5974,0.6481,0.6856,0.7331,0.7829,0.7778,0.732,0.669,0.6689,0.618,0.5501,0.6056,0.6477,0.6868,0.75,0.8349,0.9298,1.041,1.1083,1.1586,1.1926,1.2407,1.2839,1.3042,1.3362,1.3621,1.3621,1.3621,1.3668,1.3999,1.4233,1.4512,1.4869,1.5534,1.6051,1.6114,1.6625,1.7193,1.7555,1.7679,1.8298,1.9921,1.9778,2.0105,2.17,2.1524,2.1662,2.2521,2.2372,2.2407,2.2746,2.2014,2.1274,2.0649,2.0292,2.0205,2.0475,2.043,2.0534,2.0798,2.0652,2.0545,2.0545,2.0728,2.1036,2.1471,2.1118,2.1311,2.1825,2.1824,2.1922,2.213,2.2473,2.2564,2.2517,2.2642,2.2615,2.2517,2.2642,2.2712,2.2712,2.5012,2.5072,2.5021,2.4755,2.3264,2.1394,1.9327,1.7122,1.475,1.2124,1.0784,0.9686,0.8637,0.8216,0.7785,0.7223,0.737,0.7496,0.7496,0.7335,0.7419,0.7753,0.7251,0.7174,0.7608,0.7174,0.7083,0.7377,0.7041,0.6575,0.6019,0.6019,0.6105,0.6227,0.6331,0.6731,0.7302,0.7602,0.7882,0.818,0.8357,0.7783,0.6871,0.6806,0.6416,0.588,0.6021,0.6631,0.7503,0.8107,0.9273,1.0578,1.1439,1.2033,1.2497,1.2853,1.3289,1.3621,1.3621,1.3621,1.361,1.3621,1.3621,1.361,1.3658,1.4093,1.4477,1.4614,1.5492,1.6244,1.6337,1.6893,1.7555,1.8183,1.8288,1.8548,1.9225,1.9679,2.0033,2.0291,2.1163,2.2054,2.2694,2.2753,2.2739,2.2712,2.2458,2.233,2.2483,2.1434,2.122,2.201,2.1126,2.0926,2.1512,2.1148,2.0921,2.0794,2.0857,2.1321,2.2061,2.1304,2.1584,2.2573,2.2459,2.2386,2.2344,2.3071,2.2936,2.2377,2.2605,2.249,2.2248,2.2588,2.2685,2.2659,2.5171,2.5209,2.4986,2.4098,2.2451,2.0576,1.8538,1.6754,1.4811,1.2559,1.1759,1.093,0.9756,0.9217,0.8851,0.8684,0.8417,0.8316,0.839,0.7912,0.787,0.8439,0.7697,0.7702,0.8563,0.7751,0.7209,0.6999,0.6738,0.6398,0.6019,0.6105,0.6184,0.6233,0.7358,0.7808,0.7846,0.9095,0.9545,0.9415,0.946,0.8955,0.8186,0.8283,0.7735,0.7071,0.7934,0.8565,0.9162,1.0346,1.1387,1.2244,1.2492,1.2902,1.3334,1.3418,1.3585,1.3763,1.3763,1.3821,1.3868,1.3773,1.3763,1.3858,1.414,1.4605,1.5211,1.6238,1.6925,1.7556,1.8171,1.8442,1.8485,1.8402,1.8764,1.931,2.0048,2.0641,2.1427,2.2681,2.3044,2.3363,2.3891,2.3906,2.3781,2.3428,2.3073,2.2787,2.2524,2.2176,2.2132,2.2377,2.2379,2.2429,2.2571,2.2501,2.1884,2.081,2.1379,2.1777,2.1954,2.2299,2.241,2.2394,2.3211,2.3414,2.318,2.3551,2.3601,2.3395,2.2909,2.249,2.2248,2.2588,2.2517,2.2364,2.5367,2.5294,2.4846,2.3547,2.1822,1.9993,1.819,1.6594,1.4903,1.3036,1.2609,1.1969,1.0652,1.0339,1.0107,0.9877,0.9331,0.9065,0.9106,0.8494,0.8275,0.8675,0.8265,0.8238,0.8651,0.831,0.7954,0.7594,0.698,0.6696,0.6653,0.6568,0.6816,0.7321,0.8291,0.8921,0.9351,1.0382,1.0691,1.0483,1.0334,0.966,0.8827,0.8753,0.8268,0.7767,0.849,0.9299,1.0271,1.1463,1.2282,1.2861,1.317,1.3467,1.3716,1.3763,1.3821,1.3915,1.3915,1.3973,1.4026,1.4179,1.4425,1.4599,1.4499,1.5038,1.5846,1.6809,1.7642,1.828,1.8416,1.8682,1.8897,1.8844,1.9101,1.9575,2.034,2.0675,2.1135,2.2042,2.2731,2.3435,2.423,2.4197,2.407,2.4024,2.3492,2.3281,2.3585,2.3289,2.3302,2.3685,2.3169,2.3038,2.337,2.3054,2.2517,2.1805,2.2185,2.2532,2.2864,2.288,2.2957,2.3103,2.3858,2.3984,2.3687,2.433,2.4117,2.3367,2.3275,2.2632,2.1836,2.248,2.249,2.2338,2.5457,2.5254,2.456,2.2962,2.1328,1.9656,1.7991,1.6528,1.5119,1.3674,1.3468,1.2909,1.1619,1.1404,1.1217,1.0828,1.0195,0.977,0.9658,0.9065,0.8774,0.8815,0.88,0.8759,0.8643,0.8821,0.8731,0.8415,0.7586,0.7317,0.7567,0.7439,0.7858,0.8749,0.9435,1.0171,1.0967,1.1463,1.1553,1.1292,1.0916,1.0157,0.92,0.8985,0.8678,0.8445,0.8882,0.993,1.1202,1.2109,1.2671,1.3064,1.3621,1.3821,1.3821,1.3973,1.402,1.4031,1.4116,1.4185,1.4291,1.474,1.5252,1.5482,1.5045,1.5694,1.6598,1.722,1.8177,1.8838,1.8449,1.8852,1.9278,1.9415,1.9527,1.9819,2.0441,2.0505,2.0626,2.0899,2.2131,2.3338,2.4258,2.4268,2.4387,2.4786,2.4036,2.396,2.4954,2.4375,2.4327,2.4989,2.3882,2.3512,2.4097,2.3528,2.3301,2.3322,2.328,2.3518,2.4004,2.3617,2.3722,2.4191,2.4684,2.4659,2.4362,2.5223,2.4652,2.3226,2.3704,2.2858,2.1419,2.2395,2.2511,2.244,2.532,2.4884,2.3953,2.2163,2.1002,1.963,1.7692,1.6714,1.5864,1.4892,1.4517,1.3943,1.3022,1.2253,1.1612,1.1066,1.0849,1.0496,0.9906,0.97,0.9538,0.9384,0.9203,0.9314,0.97,0.9174,0.8731,0.8415,0.8278,0.8201,0.8286,0.9012,0.9412,0.9608,1.1186,1.1685,1.1482,1.2263,1.2092,1.1318,1.1266,1.0648,0.98,1.0116,0.993,0.9599,1.0598,1.1617,1.2628,1.3233,1.3464,1.3515,1.3716,1.3821,1.3821,1.3973,1.4104,1.4273,1.4693,1.486,1.5029,1.5394,1.5564,1.5846,1.665,1.7255,1.7821,1.851,1.9111,1.9642,2.0231,2.0486,2.0527,2.014,2.0569,2.0839,2.0549,2.0955,2.1636,2.263,2.376,2.4429,2.4537,2.5092,2.5667,2.6174,2.5472,2.5234,2.5717,2.4895,2.4592,2.5005,2.4831,2.4768,2.4863,2.4768,2.4859,2.5153,2.4859,2.4605,2.4442,2.5291,2.5542,2.5346,2.6068,2.6182,2.5832,2.5966,2.5316,2.4289,2.432,2.3081,2.1421,2.2477,2.2593,2.2468,2.5069,2.4524,2.3503,2.1684,2.0384,1.9057,1.7327,1.6539,1.5832,1.5062,1.5017,1.4709,1.3732,1.2952,1.2321,1.1801,1.1603,1.1295,1.0822,1.0587,1.0407,1.0294,1.0302,1.0423,1.0637,1.0426,1.0281,1.0234,0.8989,0.8734,0.9428,0.9603,1.0103,1.0803,1.182,1.2335,1.2447,1.3084,1.2822,1.199,1.1841,1.1247,1.044,1.0509,1.0519,1.0739,1.1778,1.2433,1.2861,1.342,1.3621,1.3621,1.3763,1.4037,1.4333,1.4441,1.4779,1.5126,1.5343,1.5459,1.5578,1.5983,1.6365,1.6796,1.7526,1.8112,1.8658,1.9253,1.9853,2.0195,2.0191,2.0814,2.1202,2.0753,2.1569,2.218,2.2038,2.1966,2.2205,2.3007,2.439,2.5179,2.4917,2.5766,2.632,2.6378,2.6026,2.5834,2.5957,2.5937,2.5811,2.5566,2.5945,2.6167,2.6167,2.6167,2.6233,2.6406,2.671,2.6325,2.5392,2.5668,2.5799,2.5882,2.6438,2.6605,2.6446,2.6702,2.587,2.4503,2.4472,2.3274,2.1718,2.2834,2.2742,2.2336]},{"header":{"parameterUnit":"m.s-1","parameterCategory":1,"la1":30.6,"la2":28.766,"lo1":-90.7593,"lo2":-88.6598,"dy":0.0162,"dx":0.0183,"nx":116,"ny":114,"refTime":"2023-09-09T06:00:00:Z","depth":0,"parameterNumber":3,"parameterNumberName":"V-component_of_WINDS"},"data":[0.0,0.0,0.0,0.0,0.0,0.0,0.0,0.0,0.0,0.0,0.0,0.0,0.0,0.0,0.0,0.0,0.0,0.0,0.0,0.0,0.0,0.0,0.0,0.0,0.0,0.0,0.0,0.0,0.0,0.0,0.0,0.0,0.0,0.0,0.0,0.0,0.0,0.0,0.0,0.0,0.0,0.0,0.0,0.0,0.0,0.0,0.0,0.0,0.0,0.0,0.0,0.0,0.0,0.0,0.0,0.0,0.0,0.0,0.0,0.0,0.0,0.0,0.0,0.0,0.0,0.0,0.0,0.0,0.0,0.0,0.0,0.0,0.0,0.0,0.0,0.0,0.0,0.0,0.0,0.0,0.0,0.0,0.0,0.0,0.0,0.0,0.0,0.0,0.0,0.0,0.0,0.0,0.0,0.0,0.0,0.0,0.0,0.0,0.0,0.0,0.0,0.0,0.0,0.0,0.0,0.0,0.0,0.0,0.0,0.0,0.0,0.0,0.0,0.0,0.0,0.0,0.0,0.0,0.0,0.0,0.0,0.0,0.0,0.0,0.0,0.0,0.0,0.0,0.0,0.0,0.0,0.0,0.0,0.0,0.0,0.0,0.0,0.0,0.0,0.0,0.0,0.0,0.0,0.0,0.0,0.0,0.0,0.0,0.0,0.0,0.0,0.0,0.0,0.0,0.0,0.0,0.0,0.0,0.0,0.0,0.0,0.0,0.0,0.0,0.0,0.0,0.0,0.0,0.0,0.0,0.0,0.0,0.0,0.0,0.0,0.0,0.0,0.0,0.0,0.0,0.0,0.0,0.0,0.0,0.0,0.0,0.0,0.0,0.0,0.0,0.0,0.0,0.0,0.0,0.0,0.0,0.0,0.0,0.0,0.0,0.0,0.0,0.0,0.0,0.0,0.0,0.0,0.0,0.0,0.0,0.0,0.0,0.0,0.0,0.0,0.0,0.0,0.0,0.0,0.0,0.0,0.0,0.0,0.0,0.0,0.0,0.0,0.0,0.0,0.0,0.0,0.0,0.0,0.0,0.0,0.0,0.0,0.0,0.0,0.0,0.0,0.0,0.0,0.0,0.0,0.0,0.0,0.0,0.0,0.0,0.0,0.0,0.0,0.0,0.0,0.0,0.0,0.0,0.0,0.0,0.0,0.0,0.0,0.0,0.0,0.0,0.0,0.0,0.0,0.0,0.0,0.0,0.0,0.0,0.0,0.0,0.0,0.0,0.0,0.0,0.0,0.0,0.0,0.0,0.0,0.0,0.0,0.0,0.0,0.0,0.0,0.0,0.0,0.0,0.0,0.0,0.0,0.0,0.0,0.0,0.0,0.0,0.0,0.0,0.0,0.0,0.0,0.0,0.0,0.0,0.0,0.0,0.0,0.0,0.0,0.0,0.0,0.0,0.0,0.0,0.0,0.0,0.0,0.0,0.0,0.0,0.0,0.0,0.0,0.0,0.0,0.0,0.0,0.0,0.0,0.0,0.0,0.0,0.0,0.0,0.0,0.0,0.0,0.0,0.0,0.0,0.0,0.0,0.0,0.0,0.0,0.0,0.0,0.0,0.0,0.0,0.0,0.0,0.0,0.0,0.0,0.0,0.0,0.0,0.0,0.0,0.0,0.0,0.0,0.0,0.0,0.0,0.0,0.0,0.0,0.0,0.0,0.0,0.0,0.0,0.0,0.0,0.0,0.0,0.0,0.0,0.0,0.0,0.0,0.0,0.0,0.0,0.0,0.0,0.0,0.0,0.0,0.0,0.0,0.0,0.0,0.0,0.0,0.0,0.0,0.0,0.0,0.0,0.0,0.0,0.0,0.0,0.0,0.0,0.0,0.0,0.0,0.0,0.0,0.0,0.0,0.0,0.0,0.0,0.0,0.0,0.0,0.0,0.0,0.0,0.0,0.0,0.0,0.0,0.0,0.0,0.0,0.0,0.0,0.0,0.0,0.0,0.0,0.0,0.0,0.0,0.0,0.0,0.0,0.0,0.0,0.0,0.0,0.0,0.0,0.0,0.0,0.0,0.0,0.0,0.0,0.0,0.0,0.0,0.0,0.0,0.0,0.0,0.0,0.0,0.0,0.0,0.0,0.0,0.0,0.0,0.0,0.0,0.0,0.0,0.0,0.0,0.0,0.0,0.0,0.0,0.0,0.0,0.0,0.0,0.0,0.0,0.0,0.0,0.0,0.0,0.0,0.0,0.0,0.0,0.0,0.0,0.0,0.0,0.0,0.0,0.0,0.0,0.0,0.0,0.0,0.0,0.0,0.0,0.0,0.0,0.0,0.0,0.0,0.0,0.0,0.0,0.0,0.0,0.0,0.0,0.0,0.0,0.0,0.0,0.0,0.0,0.0,0.0,0.0,0.0,0.0,0.0,0.0,0.0,0.0,0.0,0.0,0.0,0.0,0.0,0.0,0.0,0.0,0.0,0.0,0.0,0.0,0.0,0.0,0.0,0.0,0.0,0.0,0.0,0.0,0.0,0.0,0.0,0.0,0.0,0.0,0.0,0.0,0.0,0.0,0.0,0.0,0.0,0.0,0.0,0.0,0.0,0.0,0.0,0.0,0.0,0.0,0.0,0.0,0.0,0.0,0.0,0.0,0.0,0.0,0.0,0.0,0.0,0.0,0.0,0.0,0.0,0.0,0.0,0.0,0.0,0.0,0.0,0.0,0.0,0.0,0.0,0.0,0.0,0.0,0.0,0.0,0.0,0.0,0.0,0.0,0.0,0.0,0.0,0.0,0.0,0.0,0.0,0.0,0.0,0.0,0.0,0.0,0.0,0.0,0.0,0.0,0.0,0.0,0.0,0.0,0.0,0.0,0.0,0.0,0.0,0.0,0.0,0.0,0.0,0.0,0.0,0.0,0.0,0.0,0.0,0.0,0.0,0.0,0.0,0.0,0.0,0.0,0.0,0.0,0.0,0.0,0.0,0.0,0.0,0.0,0.0,0.0,0.0,0.0,0.0,0.0,0.0,0.0,0.0,0.0,0.0,0.0,0.0,0.0,0.0,0.0,0.0,0.0,0.0,0.0,0.0,0.0,0.0,0.0,0.0,0.0,0.0,0.0,0.0,0.0,0.0,0.0,0.0,0.0,0.0,0.0,0.0,0.0,0.0,0.0,0.0,0.0,0.0,0.0,0.0,0.0,0.0,0.0,0.0,0.0,0.0,0.0,0.0,0.0,0.0,0.0,0.0,0.0,0.0,0.0,0.0,0.0,0.0,0.0,0.0,0.0,0.0,0.0,0.0,0.0,0.0,0.0,0.0,0.0,0.0,0.0,0.0,0.0,0.0,0.0,0.0,0.0,0.0,0.0,0.0,0.0,0.0,0.0,0.0,0.0,0.0,0.0,0.0,0.0,0.0,0.0,0.0,0.0,0.0,0.0,0.0,0.0,0.0,0.0,0.0,0.0,0.0,0.0,0.0,0.0,0.0,0.0,0.0,0.0,0.0,0.0,0.0,0.0,0.0,0.0,0.0,0.0,0.0,0.0,0.0,0.0,0.0,0.0,0.0,0.0,0.0,0.0,0.0,0.0,0.0,0.0,0.0,0.0,0.0,0.0,0.0,0.0,0.0,0.0,0.0,0.0,0.0,0.0,0.0,0.0,0.0,0.0,0.0,0.0,0.0,0.0,0.0,0.0,0.0,0.0,0.0,0.0,0.0,0.0,0.0,0.0,0.0,0.0,0.0,0.0,0.0,0.0,0.0,0.0,0.0,0.0,0.0,0.0,0.0,0.0,0.0,0.0,0.0,0.0,0.0,0.0,0.0,0.0,0.0,0.0,0.0,0.0,0.0,0.0,0.0,0.0,0.0,0.0,0.0,0.0,0.0,0.0,0.0,0.0,0.0,0.0,0.0,0.0,0.0,0.0,0.0,0.0,0.0,0.0,0.0,0.0,0.0,0.0,0.0,0.0,0.0,0.0,0.0,0.0,0.0,0.0,0.0,0.0,0.0,0.0,0.0,0.0,0.0,0.0,0.0,0.0,0.0,0.0,0.0,0.0,0.0,0.0,0.0,0.0,0.0,0.0,0.0,0.0,0.0,0.0,0.0,0.0,0.0,0.0,0.0,0.0,0.0,0.0,0.0,0.0,0.0,0.0,0.0,0.0,0.0,0.0,0.0,0.0,0.0,0.0,0.0,0.0,0.0,0.0,0.0,0.0,0.0,0.0,0.0,0.0,0.0,0.0,0.0,0.0,0.0,0.0,0.0,0.0,0.0,0.0,0.0,0.0,0.0,0.0,0.0,0.0,0.0,0.0,0.0,0.0,0.0,0.0,0.0,0.0,0.0,0.0,0.0,0.0,0.0,0.0,0.0,0.0,0.0,0.0,0.0,0.0,0.0,0.0,0.0,0.0,0.0,0.0,0.0,0.0,0.0,0.0,0.0,0.0,0.0,0.0,0.0,0.0,0.0,0.0,0.0,0.0,0.0,0.0,0.0,0.0,0.0,0.0,0.0,0.0,0.0,0.0,0.0,0.0,0.0,0.0,0.0,0.0,0.0,0.0,0.0,0.0,0.0,0.0,0.0,0.0,0.0,0.0,0.0,0.0,0.0,0.0,0.0,0.0,0.0,0.0,0.0,0.0,0.0,0.0,0.0,0.0,0.0,0.0,0.0,0.0,0.0,0.0,0.0,0.0,0.0,0.0,0.0,0.0,0.0,0.0,0.0,0.0,0.0,0.0,0.0,0.0,0.0,0.0,0.0,0.0,0.0,0.0,0.0,0.0,0.0,0.0,0.0,0.0,0.0,0.0,0.0,0.0,0.0,0.0,0.0,0.0,0.0,0.0,0.0,0.0,0.0,0.0,0.0,0.0,0.0,0.0,0.0,0.0,0.0,0.0,0.0,0.0,0.0,0.0,0.0,0.0,0.0,0.0,0.0,0.0,0.0,0.0,0.0,0.0,0.0,0.0,0.0,0.0,0.0,0.0,0.0,0.0,0.0,0.0,0.0,0.0,0.0,0.0,0.0,0.0,0.0,0.0,0.0,0.0,0.0,0.0,0.0,0.0,0.0,0.0,0.0,0.0,0.0,0.0,0.0,0.0,0.0,0.0,0.0,0.0,0.0,0.0,0.0,0.0,0.0,0.0,0.0,0.0,0.0,0.0,0.0,0.0,0.0,0.0,0.0,0.0,0.0,0.0,0.0,0.0,0.0,0.0,0.0,0.0,0.0,0.0,0.0,0.0,0.0,0.0,0.0,0.0,0.0,0.0,0.0,0.0,0.0,0.0,0.0,0.0,0.0,0.0,0.0,0.0,0.0,0.0,0.0,0.0,0.0,0.0,0.0,0.0,0.0,0.0,0.0,0.0,0.0,0.0,0.0,0.0,0.0,0.0,0.0,0.0,0.0,0.0,0.0,0.0,0.0,0.0,0.0,0.0,0.0,0.0,0.0,0.0,0.0,0.0,0.0,0.0,0.0,0.0,0.0,0.0,0.0,0.0,0.0,0.0,0.0,0.0,0.0,0.0,0.0,0.0,0.0,0.0,0.0,0.0,0.0,0.0,0.0,0.0,0.0,0.0,0.0,0.0,0.0,0.0,0.0,0.0,0.0,0.0,0.0,0.0,0.0,0.0,0.0,0.0,0.0,0.0,0.0,0.0,0.0,0.0,0.0,0.0,0.0,0.0,0.0,0.0,0.0,0.0,0.0,0.0,0.0,0.0,0.0,0.0,0.0,0.0,0.0,0.0,0.0,0.0,0.0,0.0,0.0,0.0,0.0,0.0,0.0,0.0,0.0,0.0,0.0,0.0,0.0,0.0,0.0,0.0,0.0,0.0,0.0,0.0,0.0,0.0,0.0,0.0,0.0,0.0,0.0,0.0,0.0,0.0,0.0,0.0,0.0,0.0,0.0,0.0,0.0,0.0,0.0,0.0,0.0,0.0,0.0,0.0,0.0,0.0,0.0,0.0,0.0,0.0,0.0,0.0,0.0,0.0,0.0,0.0,0.0,0.0,0.0,0.0,0.0,0.0,0.0,0.0,0.0,0.0,0.0,0.0,0.0,0.0,0.0,0.0,0.0,0.0,0.0,0.0,0.0,0.0,0.0,0.0,0.0,0.0,0.0,0.0,0.0,0.0,0.0,0.0,0.0,-1.5515,0.0,0.0,0.0,0.0,0.0,0.0,0.0,0.0,0.0,0.0,0.0,0.0,0.0,0.0,0.0,0.0,0.0,0.0,0.0,0.0,0.0,0.0,0.0,0.0,0.0,0.0,0.0,0.0,0.0,0.0,0.0,0.0,0.0,0.0,0.0,0.0,0.0,0.0,0.0,-1.4359,-1.7985,-2.1756,-2.2575,-2.3071,-2.3392,0.0,0.0,0.0,0.0,0.0,0.0,0.0,0.0,0.0,0.0,0.0,0.0,0.0,0.0,0.0,0.0,0.0,0.0,0.0,0.0,0.0,0.0,0.0,0.0,0.0,0.0,0.0,0.0,0.0,0.0,0.0,0.0,0.0,0.0,0.0,0.0,0.0,0.0,0.0,0.0,0.0,0.0,0.0,0.0,0.0,0.0,0.0,0.0,0.0,0.0,0.0,0.0,0.0,0.0,0.0,0.0,0.0,0.0,0.0,0.0,0.0,0.0,0.0,0.0,0.0,0.0,0.0,0.0,0.0,0.0,0.0,-1.8019,0.0,0.0,0.0,0.0,0.0,0.0,0.0,0.0,0.0,0.0,0.0,0.0,0.0,0.0,0.0,0.0,0.0,0.0,0.0,0.0,0.0,0.0,0.0,0.0,0.0,0.0,0.0,0.0,0.0,0.0,0.0,0.0,0.0,0.0,0.0,-1.0008,-1.2203,-1.3343,-1.8,-2.3021,-2.8257,-3.1028,-3.0741,-2.7969,-2.9563,0.0,0.0,0.0,0.0,0.0,0.0,0.0,0.0,0.0,0.0,0.0,0.0,0.0,0.0,0.0,0.0,0.0,0.0,0.0,0.0,0.0,0.0,0.0,0.0,0.0,0.0,0.0,0.0,0.0,0.0,0.0,0.0,0.0,0.0,0.0,0.0,0.0,0.0,0.0,0.0,0.0,0.0,0.0,0.0,0.0,0.0,0.0,0.0,0.0,0.0,0.0,0.0,0.0,0.0,0.0,0.0,0.0,0.0,0.0,0.0,0.0,0.0,0.0,0.0,-2.0614,-2.4104,-2.6392,-2.6597,-2.5051,-2.3187,-2.1289,-1.9271,0.0,0.0,0.0,0.0,0.0,0.0,0.0,0.0,0.0,0.0,0.0,0.0,0.0,0.0,0.0,0.0,0.0,0.0,0.0,0.0,0.0,0.0,0.5366,0.5071,0.4364,0.4505,0.4046,0.0,0.0,0.0,0.0,0.0,0.0,-0.8297,-1.1094,-1.4255,-1.7855,-2.4067,-2.8575,-3.1481,-3.4846,-3.5774,-3.4552,-3.3188,-3.2726,-3.287,0.0,0.0,0.0,0.0,0.0,0.0,0.0,0.0,0.0,0.0,0.0,0.0,0.0,0.0,0.0,0.0,0.0,0.0,0.0,0.0,0.0,0.0,0.0,0.0,0.0,0.0,0.0,0.0,0.0,0.0,0.0,0.0,0.0,0.0,0.0,0.0,0.0,0.0,0.0,0.0,0.0,-0.9127,-1.0814,0.0,0.0,0.0,0.0,0.0,0.0,0.0,0.0,0.0,0.0,0.0,0.0,0.0,0.0,-1.6527,-1.7782,-2.0314,-2.3948,-2.5346,-2.5893,-2.576,-2.7409,-2.7742,-2.7025,-2.5937,0.0,-2.2063,-2.0641,0.0,0.0,0.0,0.0,0.0,0.0,0.0,0.0,0.0,0.0,0.0,0.0,0.0,0.0,0.0,0.0,0.0,0.0,0.0,0.0,0.0,0.7608,0.7172,0.5765,0.6115,0.5616,0.3797,0.0,0.0,0.0,0.0,-0.6162,-0.9013,-1.1835,-1.6349,-2.2617,-2.859,-3.2269,-3.3796,-3.6234,-3.7353,-3.7261,-3.6288,-3.5551,-3.4933,-3.3691,0.0,0.0,0.0,0.0,0.0,0.0,0.0,0.0,0.0,0.0,0.0,0.0,0.0,0.0,0.0,0.0,0.0,0.0,0.0,0.0,0.0,0.0,0.0,0.0,0.0,0.0,0.0,0.0,0.0,0.0,0.0,0.0,0.0,0.0,0.0,0.0,0.0,0.0,0.0,-1.181,-1.2558,-1.587,-1.6246,-1.5805,0.0,0.0,0.0,0.0,0.0,0.0,0.0,0.0,0.0,-2.0866,-2.0729,-2.0725,-2.1056,-2.1689,-2.2725,-2.4177,-2.6253,-2.7072,-2.6721,-2.7008,-2.6961,-2.6563,-2.6378,-2.5374,-2.3716,-2.2434,-2.162,-2.1136,0.0,0.0,0.0,0.0,0.0,-1.9156,0.0,0.0,0.0,0.0,0.0,0.0,0.0,0.0,0.0,0.0,0.0,0.0,0.9045,0.9373,0.8912,0.7179,0.7273,0.666,0.4759,0.3521,0.0,0.0,-0.2895,-0.5772,-0.9773,-1.4131,-1.9672,-2.6461,-3.1337,-3.4338,-3.5604,-3.7527,-3.8518,-3.8727,-3.92,-3.8569,-3.7089,-3.6075,-3.4248,-3.1874,0.0,0.0,0.0,0.0,0.0,0.0,0.0,0.0,0.0,0.0,0.0,0.0,0.0,0.0,0.0,0.0,0.0,0.0,0.0,0.0,0.0,0.0,0.0,0.0,0.0,0.0,0.0,0.0,0.0,0.0,0.0,0.0,0.0,0.0,0.0,0.0,0.0,-1.1512,-1.4888,-2.0287,-1.9563,-1.7943,0.0,0.0,0.0,0.0,0.0,0.0,-1.8501,-1.9569,-2.1416,-2.4142,-2.4177,-2.4195,-2.4236,-2.421,-2.4363,-2.4679,-2.6222,-2.6993,-2.7179,-2.6543,-2.6247,-2.6074,-2.5924,-2.5601,-2.4916,-2.3932,-2.312,-2.2538,-2.2168,-2.1829,-2.1479,-2.0467,-2.0462,-2.0852,0.0,0.0,0.0,0.0,0.0,0.0,0.0,0.0,0.0,0.0,0.0,0.9369,1.0105,0.9668,0.8926,0.7938,0.6978,0.5951,0.4856,0.3782,0.2511,0.1024,-0.1898,-0.5885,-1.0978,-1.9308,-2.5199,-2.8552,-3.1689,-3.4479,-3.6879,-3.9628,-4.0447,-3.9637,-4.1997,-4.211,-4.0326,-3.715,-3.5724,-3.5355,-3.2043,0.0,0.0,0.0,0.0,0.0,0.0,0.0,0.0,0.0,0.0,0.0,0.0,0.0,0.0,0.0,0.0,0.0,0.0,0.0,0.0,0.0,0.0,0.0,0.0,0.0,0.0,0.0,0.0,0.0,0.0,0.0,0.0,0.0,0.0,0.0,0.0,0.0,0.0,-2.1571,-1.9279,0.0,0.0,0.0,0.0,-2.3408,-2.5189,-2.5076,-2.2716,-2.2706,-2.3148,-2.4181,-2.4231,-2.4165,-2.4177,-2.4187,-2.4805,-2.6063,-2.617,-2.6602,-2.7179,-2.6734,-2.6527,-2.6455,-2.4957,-2.4907,-2.5733,-2.4803,-2.3734,-2.2719,-2.2811,-2.2752,-2.2547,-2.1964,-2.2102,-2.2455,0.0,0.0,0.0,0.0,0.0,0.0,0.0,0.0,0.0,1.0041,1.0763,1.1459,1.2318,1.2498,1.2104,1.0829,0.9803,0.8112,0.5478,0.4174,0.253,0.0256,-0.3271,-0.8404,-1.5343,-2.1772,-2.6347,-2.9015,-3.2009,-3.4104,-3.5387,-3.7044,-3.7746,-3.7658,-3.9242,-3.9738,-3.9298,-3.7964,-3.6472,-3.4807,-3.2494,-3.0694,0.0,0.0,0.0,0.0,0.0,0.0,0.0,0.0,0.0,0.0,0.0,0.0,0.0,0.0,0.0,0.0,0.0,0.0,0.0,0.0,0.0,0.0,0.0,0.0,0.0,0.0,0.0,0.0,0.0,0.0,0.0,0.0,0.0,0.0,0.0,0.0,0.0,-2.2129,-1.9204,0.0,-2.1313,-2.181,-2.2758,-2.4475,-2.4927,-2.5108,-2.531,-2.5258,-2.5199,-2.4985,-2.5002,-2.4905,-2.4681,-2.44,-2.447,-2.4892,-2.4604,-2.4783,-2.5285,-2.514,-2.4775,-2.4152,-2.3773,-2.3606,-2.371,-2.4114,-2.4093,-2.3751,-2.3419,-2.3055,-2.2739,-2.2503,-2.2742,-2.3121,0.0,0.0,0.0,0.0,0.0,0.0,0.0,0.0,0.0,1.1493,1.2316,1.3226,1.4192,1.4303,1.3778,1.2337,1.0992,0.8855,0.5641,0.4266,0.2618,0.0374,-0.488,-1.074,-1.7078,-2.2538,-2.653,-2.9014,-3.1082,-3.2796,-3.4107,-3.4782,-3.5468,-3.6196,-3.72,-3.7773,-3.7999,-3.7925,-3.6767,-3.4827,-3.3129,-3.1963,-3.1132,0.0,0.0,0.0,0.0,0.0,0.0,0.0,0.0,0.0,0.0,0.0,0.0,0.0,0.0,0.0,0.0,0.0,0.0,0.0,0.0,0.0,0.0,0.0,0.0,0.0,0.0,0.0,0.0,0.0,0.0,0.0,0.0,0.0,0.0,0.0,-2.0554,-2.2366,-2.0508,-2.0483,-2.3891,-2.4406,-2.4582,-2.4623,-2.4857,-2.5257,-2.5991,-2.6238,-2.6126,-2.5456,-2.5228,-2.5152,-2.4908,-2.4473,-2.4162,-2.4171,-2.3889,-2.3895,-2.4143,-2.3868,-2.3455,-2.2848,-2.276,-2.26,-2.2325,-2.2988,-2.3461,-2.3846,-2.393,-2.3817,-2.3494,-2.3276,-2.3408,-2.3649,0.0,0.0,0.0,0.0,0.0,0.0,0.0,1.0645,1.2012,1.3064,1.369,1.4417,1.5523,1.4861,1.3805,1.2263,1.0246,0.7924,0.5243,0.3939,0.273,0.1528,-0.6526,-1.2559,-1.592,-2.1732,-2.5981,-2.8451,-2.8881,-3.0458,-3.3143,-3.3196,-3.3991,-3.5436,-3.6286,-3.6697,-3.6753,-3.6934,-3.6585,-3.5747,-3.4014,-3.2844,-3.2047,0.0,0.0,0.0,0.0,0.0,0.0,0.0,0.0,0.0,0.0,0.0,0.0,0.0,0.0,0.0,0.0,0.0,0.0,0.0,0.0,0.0,0.0,0.0,0.0,0.0,0.0,0.0,0.0,0.0,0.0,0.0,0.0,0.0,-1.6158,-1.9383,-2.1606,-2.2448,-2.3082,-2.3596,-2.4114,-2.4899,-2.5067,-2.4262,-2.5675,-2.6104,-2.4942,-2.5641,-2.5784,-2.539,-2.5014,-2.4812,-2.4803,-2.4372,-2.426,-2.417,-2.4143,-2.4143,-2.4125,-2.3345,-2.2884,-2.282,-2.2116,-2.1857,-2.2059,-2.1708,-2.2035,-2.2868,-2.4282,-2.4826,-2.4757,-2.4276,-2.4166,-2.4005,0.0,0.0,0.0,0.0,0.0,0.0,0.0,1.1132,1.2278,1.2861,1.4945,1.6269,1.5918,1.6384,1.6191,1.4736,1.1827,0.9093,0.6989,0.4766,0.1294,-0.374,-0.7949,-1.2617,-1.7743,-2.1542,-2.4247,-2.5821,-2.7324,-2.8625,-2.979,-3.0921,-3.1985,-3.2927,-3.3651,-3.4464,-3.5263,-3.5076,-3.535,-3.5773,-3.4368,-3.3465,-3.2946,0.0,0.0,0.0,0.0,0.0,0.0,0.0,0.0,0.0,0.0,0.0,0.0,0.0,0.0,0.0,0.0,0.0,0.0,0.0,0.0,0.0,0.0,0.0,0.0,0.0,0.0,0.0,0.0,0.0,0.0,0.0,0.0,-1.293,-1.6344,-1.7864,-1.945,-2.176,-2.2521,-2.3088,-2.3712,-2.398,-2.4144,-2.4426,-2.5043,-2.5619,-2.5857,-2.6276,-2.6185,-2.5758,-2.5669,-2.55,-2.5216,-2.451,-2.4308,-2.4601,-2.3996,-2.3868,-2.4143,-2.3923,-2.3501,-2.2848,-2.2628,-2.2382,-2.2129,-2.2483,-2.2828,-2.3094,-2.2587,-2.2849,-2.3345,-2.2922,-2.2749,-2.2671,0.0,0.0,0.0,0.0,0.0,0.0,0.0,1.1621,1.2976,1.3616,1.565,1.6883,1.6526,1.6894,1.6477,1.486,1.214,0.9687,0.7518,0.5118,0.1688,-0.3161,-0.4411,-0.8671,-1.6652,-1.7277,-1.9811,-2.4505,-2.5499,-2.6752,-2.8254,-2.9336,-3.0506,-3.177,-3.2542,-3.3544,-3.4629,-3.4808,-3.5232,-3.5756,-3.5041,-3.462,-3.4231,-3.2817,-3.2512,-3.2846,-3.2781,-3.1703,-3.0509,-3.2032,0.0,0.0,0.0,0.0,0.0,0.0,0.0,0.0,0.0,0.0,0.0,0.0,0.0,0.0,0.0,0.0,0.0,0.0,0.0,0.0,0.0,0.0,0.0,0.0,-1.1804,-1.3464,-1.6064,-1.7297,-1.8974,-2.1784,-2.2481,-2.2981,-2.3494,-2.394,-2.4334,-2.4638,-2.5319,-2.5832,-2.6135,-2.633,-2.624,-2.5885,-2.5641,-2.5353,-2.5124,-2.4373,-2.4172,-2.451,-2.3934,-2.3825,-2.4143,-2.3804,-2.34,0.0,-2.2501,-2.2262,-2.1952,-2.2552,-2.2726,0.0,0.0,0.0,0.0,0.0,-2.2125,-2.1687,0.0,0.0,0.0,0.0,0.0,0.0,0.0,1.2122,1.3779,1.4663,1.602,1.6924,1.6939,1.6701,1.5674,1.3618,1.1813,0.9818,0.7464,0.5522,0.3338,0.0826,0.0904,-0.3426,-1.2834,-1.1626,-1.5148,-2.3851,-2.3863,-2.5239,-2.7875,-2.8388,-2.9664,-3.1558,-3.2344,-3.3332,-3.4432,-3.5111,-3.5435,-3.5451,-3.5427,-3.5597,-3.5465,-3.1835,-3.266,-3.5667,-3.541,-3.3367,-3.1235,-3.4288,0.0,0.0,0.0,0.0,0.0,0.0,0.0,0.0,0.0,0.0,0.0,0.0,0.0,0.0,0.0,0.0,0.0,0.0,0.0,0.0,0.0,0.0,0.0,0.0,-1.2429,-1.3374,-1.5796,-1.7435,-1.9315,-2.2021,-2.265,-2.3016,-2.3364,-2.4266,-2.481,-2.4688,-2.5727,-2.6224,-2.5848,0.0,0.0,0.0,0.0,-2.4656,-2.4711,-2.4136,-2.3954,-2.4152,-2.3954,-2.3954,-2.4125,-2.3373,-2.2875,-2.2747,-2.2071,-2.1686,-2.1655,-2.2254,-2.2144,-2.1806,-2.2507,-2.295,-2.314,-2.279,-2.1896,0.0,0.0,0.0,0.0,0.0,0.0,0.0,0.0,1.2425,1.3878,1.4086,1.6578,1.767,1.5721,1.6434,1.592,1.3177,1.1556,1.0116,0.8877,0.7444,0.5443,0.2697,-0.2035,-0.4636,-0.4574,-1.2615,-1.8692,-2.2433,-2.3555,-2.5172,-2.7157,-2.8667,-3.018,-3.1581,-3.1532,-3.2335,-3.3664,-3.3236,-3.3374,-3.386,-3.3226,-3.4022,-3.5107,-3.0679,-3.1051,-3.3919,-3.4072,-3.3692,-3.3227,-3.3907,-3.3088,-3.1283,-2.8389,-2.7262,0.0,0.0,0.0,0.0,0.0,0.0,0.0,0.0,0.0,0.0,0.0,0.0,0.0,0.0,0.0,0.0,0.0,0.0,0.0,-1.2048,-1.2513,-1.3778,-1.6807,-1.7437,-1.8394,-2.0183,-2.15,-2.233,-2.2606,-2.3055,-2.3476,-2.3669,-2.444,-2.4778,-2.4706,-2.4995,0.0,-2.4706,-2.4347,-2.4104,-2.3972,-2.389,-2.3854,-2.3854,0.0,0.0,-2.3836,-2.3551,-2.307,-2.2419,-2.1942,-2.1365,-2.0808,-2.1947,-2.2135,-2.1768,-2.176,-2.1848,-2.1856,-2.1687,-2.1163,-2.0729,0.0,0.0,0.0,0.0,0.0,0.0,0.0,1.2376,1.3548,1.4283,1.6078,1.661,1.4839,1.5262,1.4778,1.2567,1.2056,1.1798,1.1623,1.0835,0.9336,0.6958,0.3295,-0.0999,-0.6091,-1.0947,-1.6765,-2.3603,-2.4729,-2.6224,-2.8046,-2.9683,-3.1056,-3.2152,-3.2226,-3.2665,-3.3325,-3.281,-3.2812,-3.303,-3.1412,-3.1846,-3.3232,-3.0738,-3.0313,-3.1131,-3.2061,-3.2906,-3.3597,-3.3603,-3.3451,-3.2853,-3.0525,-2.9298,-2.8647,0.0,0.0,0.0,0.0,0.0,0.0,0.0,0.0,0.0,0.0,0.0,0.0,0.0,0.0,-1.0359,0.0,0.0,-1.2003,-1.2631,-1.2817,-1.3572,-1.5952,-1.677,-1.8088,-2.0352,-2.1455,-2.2171,-2.2451,-2.3024,-2.3423,-2.3709,-2.423,-2.445,-2.445,-2.445,-2.436,-2.4172,-2.3856,-2.3651,-2.3546,-2.3456,-2.3546,-2.3755,-2.3755,-2.3746,-2.3635,-2.3341,-2.2804,-2.2006,-2.1594,-2.108,-2.0568,-2.0972,-2.154,-2.2014,-2.0956,-2.0607,-2.0803,-2.1507,-2.1101,-2.0288,0.0,0.0,0.0,0.0,0.0,0.0,0.0,0.0,1.3379,1.4709,1.5359,1.5315,1.4278,1.4072,1.3355,1.1894,1.2744,1.3584,1.4165,1.4234,1.3691,1.2414,0.9742,0.263,-0.9437,-0.9811,-1.4913,-2.5295,-2.647,-2.7861,-2.9455,-3.0935,-3.2111,-3.2984,-3.3195,-3.3259,-3.3185,-3.3085,-3.2852,-3.2455,-3.068,-3.0672,-3.1626,-3.1173,-3.0295,-2.9483,-3.0257,-3.1574,-3.2992,-3.3286,-3.3414,-3.3382,-3.3406,-3.2375,-3.053,-2.72,-2.5694,0.0,0.0,0.0,0.0,0.0,0.0,0.0,0.0,0.0,-0.9248,-0.9543,-1.0042,-1.0551,-1.1203,-1.1661,-1.2157,-1.291,-1.2914,-1.3305,-1.4918,-1.6163,-1.7849,-2.0727,-2.1445,-2.1919,-2.2287,-2.2883,-2.3469,-2.3731,-2.4087,-2.4296,-2.4296,-2.4003,-2.3808,-2.3737,-2.3309,-2.3105,-2.3116,-2.2819,-2.3017,-2.3422,-2.3323,-2.3206,-2.3099,-2.2802,-2.2272,-2.1465,-2.0897,-2.0587,-2.0412,-1.9778,-2.0483,-2.1798,-2.023,-1.9626,-1.986,-2.1261,-2.0896,-1.9823,0.0,0.0,0.0,0.0,0.0,0.0,0.0,0.0,0.0,1.4812,1.5391,1.5289,1.424,1.3739,1.2931,1.1506,1.291,1.4247,1.5024,1.6192,1.7416,1.8635,1.0572,0.1696,-0.7678,-1.2878,-1.8814,-2.5552,-2.8155,-2.9823,-3.0633,-3.2124,-3.3219,-3.393,-3.3492,-3.3256,-3.3239,-3.3689,-3.3121,-3.1948,-3.2508,-3.2599,-3.2263,-3.1303,-3.142,-3.1867,-2.9671,-2.9911,-3.15,-3.2904,-3.34,-3.3408,-3.3405,-3.2386,-3.054,-2.7192,-2.4971,-2.3273,-2.1605,-1.8049,-1.4838,-1.4817,-1.2862,-1.112,0.0,0.0,-0.9959,-1.0058,-1.0324,-1.0476,-1.0167,-1.1352,-1.2215,-1.1884,-1.2395,-1.3494,-1.5412,-1.617,-1.7311,-1.9561,-2.0484,-2.1148,-2.1508,-2.1893,-2.2378,-2.2748,-2.2976,-2.3178,-2.3178,-2.3143,-2.2959,-2.2626,-2.2279,-2.2088,-2.2022,-2.1918,-2.1918,-2.2014,-2.25,-2.2389,-2.1808,-2.1871,-2.1429,-2.0594,-1.9467,-1.9537,-2.0391,-1.8928,-1.8976,-2.0,-1.9889,-1.9555,-1.918,-1.998,-1.9903,-1.9456,0.0,0.0,0.0,0.0,0.0,0.0,0.0,0.0,0.0,0.0,1.4678,1.4617,1.4107,1.3532,1.2859,1.2126,1.4286,1.5947,1.652,1.8471,2.0049,2.093,1.2154,0.4956,0.0,-1.0869,-2.0587,-2.8912,-3.0017,-3.1086,-3.2101,-3.3264,-3.3826,-3.3859,-3.3709,-3.3529,-3.3322,-3.3598,-3.3475,-3.3054,-3.2948,-3.257,-3.1858,-2.9872,-2.922,-2.9348,-2.8887,-2.9153,0.0,-2.9646,-3.1297,-3.3399,-3.3398,-3.1808,-2.9617,-2.8059,-2.6,-2.3405,-1.9449,-1.6062,-1.3629,0.0,-1.2289,-1.1288,-1.1444,-1.074,-1.0068,-1.0024,-1.0173,-1.0221,-1.0171,-1.0716,-1.1319,0.0,-1.1908,-1.2964,-1.5488,-1.5981,-1.6764,-1.8624,-1.9387,-1.9934,-2.0573,-2.1442,-2.1872,-2.1509,-2.2098,-2.2322,-2.2088,-2.2296,-2.2244,-2.1855,-2.175,-2.1576,-2.1605,-2.1605,-2.17,-2.1787,-2.2176,-2.2035,-2.1345,-2.1545,-2.1034,-1.9769,-1.9036,-1.8822,-1.9042,-1.8247,-1.8201,-1.863,-1.8758,-1.854,-1.8341,-1.9951,-1.9979,-1.9218,0.0,0.0,0.0,0.0,0.0,0.0,0.0,0.0,0.0,0.0,0.0,1.456,1.4481,1.395,1.3564,1.3543,1.5682,1.7229,1.7745,2.0351,2.2058,2.2424,1.4685,0.9093,0.6412,-0.8306,-2.0701,-3.0382,-3.1164,-3.1825,-3.2386,-3.3462,-3.3833,-3.3579,-3.3652,-3.3574,-3.3386,-3.3781,-3.4023,-3.4082,-3.3566,-3.2619,-3.1253,-2.901,-2.7446,-2.6515,-2.7457,-2.8464,-2.9193,-2.8166,-2.9317,-3.1167,-3.1167,-2.9623,-2.792,-2.8506,-2.6671,-2.3295,-1.7932,-1.5109,0.0,-1.2764,-1.2104,-1.1577,-1.11,-1.0507,-0.9984,-0.9658,-0.9484,-0.9493,-0.9693,-0.9864,-1.0305,-1.1101,-1.1502,-1.2558,-1.5089,-1.5536,-1.6278,-1.8001,-1.8577,-1.9015,-1.9458,-2.0616,-2.1159,-2.0906,-2.1349,-2.1616,-2.143,-2.1679,-2.1662,-2.1276,-2.1268,-2.1208,-2.1105,-2.1105,-2.1199,-2.1379,-2.1555,-2.1343,-2.0775,-2.0911,-2.0356,-1.9118,-1.8724,-1.832,-1.7944,-1.767,-1.7551,-1.7697,-1.7925,-1.7819,-1.7754,-1.9589,-1.9583,-1.868,0.0,0.0,0.0,0.0,0.0,0.0,0.0,0.0,0.0,0.0,0.0,0.0,0.0,1.5372,1.5316,1.5757,1.6748,1.7696,1.8415,2.1598,2.3544,2.3813,1.8324,1.333,0.9071,-0.6373,-1.8889,-2.8092,-3.1159,-3.2006,-3.0808,-3.2197,-3.2993,-3.3197,-3.3156,-3.3172,-3.3375,-3.4568,-3.4822,-3.4504,-3.489,-3.3311,-3.0615,-2.9548,-2.725,-2.4634,-2.5144,-2.7638,-3.068,-3.0241,-2.807,-2.5546,-2.5544,-2.522,-2.5355,-2.8013,-2.6245,-2.2481,-1.8053,-1.6452,-1.5652,-1.4073,-1.2865,-1.1961,-1.1506,-1.0537,-0.949,-0.8841,-0.8353,-0.8085,-0.8357,-0.8884,-0.9482,-0.9877,-1.0937,-1.2273,-1.4136,-1.4891,-1.6033,-1.784,-1.8535,-1.8719,0.0,-1.8973,-1.9934,-2.1106,-2.0867,-2.0958,-2.1413,-2.1422,-2.1268,-2.0908,-2.09,-2.0711,-2.0335,-2.0326,-2.0326,-2.0317,-2.0394,-2.027,-1.9871,-1.9498,-1.9136,-1.8705,-1.8311,-1.7908,-1.7486,-1.7101,-1.7005,-1.7273,-1.7773,-1.785,-1.7645,-1.824,-1.81,-1.769,0.0,0.0,0.0,0.0,0.0,0.0,0.0,0.0,0.0,0.0,0.0,0.0,0.0,0.0,0.0,0.0,1.7892,1.8628,1.8942,2.1114,2.2853,2.3967,1.7717,1.3263,1.116,-0.5378,-1.6535,-2.1828,-2.8516,-3.1361,-3.0584,-3.1468,-3.185,-3.1813,-3.2404,-3.2963,-3.3567,-3.4696,-3.518,-3.5069,-3.4141,-3.2649,-3.0752,-2.8705,-2.7148,-2.592,0.0,-2.5977,-2.7382,-2.7056,-2.7846,-2.8516,-2.6066,-2.6749,-2.8385,-2.7933,-2.5347,-2.1943,-1.8995,-1.6948,-1.521,-1.298,-1.1838,-1.1024,-1.011,-0.9305,-0.853,-0.7977,-0.7569,-0.735,-0.741,-0.7821,-0.8346,-0.9016,-0.9908,-1.1209,-1.3119,-1.4081,-1.5136,-1.6359,-1.7279,0.0,0.0,0.0,0.0,-1.9162,-1.955,-1.9803,-1.9654,-1.996,-2.0013,-2.0029,-2.0021,-2.0146,-2.0292,-2.0292,-2.0292,-2.0283,-1.9834,-1.9634,-1.975,-1.9037,-1.8398,-1.7934,-1.7866,-1.7433,-1.6669,-1.6535,-1.6482,-1.6455,-1.6597,-1.6615,-1.658,-1.7258,-1.7169,-1.6815,0.0,0.0,0.0,0.0,0.0,0.0,0.0,0.0,0.0,0.0,0.0,0.0,0.0,0.0,0.0,0.0,0.0,1.9517,1.9587,2.085,2.1984,2.2899,1.6883,1.2949,1.1796,-0.2179,-1.0398,-1.2345,-1.9123,-2.2765,-2.3462,-2.4658,-2.6892,-2.9944,-3.1391,-3.27,-3.386,-3.4488,-3.4498,-3.3964,-3.3032,-3.1897,-3.0516,-2.8533,-2.7096,0.0,-2.5182,-2.5126,-2.5444,-2.5436,-2.6988,-2.8497,-2.6123,-2.7698,-2.9874,-2.7154,-2.4979,-2.2848,-2.001,-1.7675,-1.5415,-1.3027,-1.1545,-1.0351,-0.9111,-0.8309,-0.7724,-0.7134,-0.6836,-0.6647,-0.6647,-0.6927,-0.7366,-0.8011,-0.8874,-1.0069,-1.1875,-1.2806,-1.3788,-1.5405,-1.6058,-1.6628,0.0,0.0,0.0,-1.8277,-1.8722,-1.8871,-1.8835,-1.9034,-1.9236,-1.9288,-1.9279,-1.9554,-2.0011,-2.0011,-2.0133,-2.0176,-1.9635,-1.9434,-1.953,-1.8813,-1.8101,-1.7521,-1.7662,-1.7053,-1.6069,-1.621,-1.6253,-1.6189,-1.6278,-1.6331,-1.6365,-1.6787,-1.6697,-1.6386,0.0,0.0,0.0,0.0,0.0,0.0,0.0,0.0,0.0,0.0,0.0,0.0,0.0,0.0,0.0,0.0,0.0,0.0,2.0294,2.0829,2.1049,2.0812,1.6089,1.2843,1.16,0.311,-0.1169,-0.085,-0.4819,-0.8028,-1.0482,-1.3302,-1.9219,-2.7649,-3.0016,-3.2161,-3.3993,-3.3941,-3.2891,-3.1337,-3.163,-3.104,-2.9836,-2.8815,-2.7004,-2.5017,-2.5158,-2.5115,-2.5072,-2.5494,-2.5558,-2.5492,-2.5625,-2.7853,-2.9625,-2.5823,-2.5227,-2.4989,-2.1176,-1.8578,-1.6428,-1.3903,-1.1789,-0.9921,-0.847,-0.7668,-0.6987,-0.6268,-0.603,-0.5913,-0.592,-0.6203,-0.6565,-0.6881,-0.7841,-0.899,-1.0613,-1.1079,-1.2326,0.0,0.0,0.0,0.0,0.0,0.0,-1.8449,0.0,-1.8272,-1.8735,-1.8735,-1.8735,-1.8735,-1.8719,-1.898,-1.9521,-1.9596,-1.9799,-2.0122,-1.9678,-1.937,-1.9185,-1.8797,-1.8266,-1.7446,-1.7446,-1.6784,-1.5733,-1.6113,-1.6258,-1.6282,-1.6638,-1.6769,-1.6815,-1.6776,-1.6608,-1.6374,0.0,0.0,0.0,0.0,0.0,0.0,0.0,0.0,0.0,0.0,0.0,0.0,0.0,0.0,0.0,0.0,0.0,0.0,2.04,2.0326,2.0481,2.0872,1.7407,1.58,1.6467,0.736,0.1671,-0.0154,-0.7013,-0.912,-0.6958,-1.687,-2.2831,-2.5353,-2.6083,-2.8234,-3.1354,-3.2219,-3.1635,-3.0105,-2.9671,-2.896,-2.7998,-2.6543,-2.5607,-2.5077,-2.5101,-2.5057,-2.4993,-2.4862,-2.4774,-2.5151,-2.7399,-2.8982,-2.936,-2.5943,-2.6109,-2.6399,-2.1731,-1.8938,-1.6261,-1.1796,-0.979,-0.8466,-0.6564,-0.5903,-0.5605,-0.5168,-0.4952,-0.49,-0.4896,-0.5349,-0.5832,-0.6349,-0.743,0.0,-1.0793,-1.1303,0.0,-1.5108,0.0,-1.5536,-1.6965,-1.7066,0.0,0.0,-1.7564,-1.752,-1.7707,-1.7707,-1.7893,-1.8272,-1.8026,-1.834,-1.915,-1.9247,-1.9604,-2.0236,-1.9273,-1.9005,-1.9169,-1.8504,-1.7787,-1.707,-1.7212,-1.6724,-1.5791,-1.6026,-1.6079,-1.5878,-1.5416,-1.5235,-1.5239,-1.5378,-1.5487,-1.5718,0.0,0.0,0.0,0.0,0.0,0.0,0.0,0.0,0.0,0.0,0.0,0.0,0.0,0.0,0.0,0.0,0.0,0.0,0.0,2.0319,1.9927,1.9311,1.6646,1.5896,1.7395,1.155,0.7493,0.5506,0.3019,0.3889,0.7612,-0.1389,-1.1629,-2.2406,-2.311,-2.4589,-2.664,-2.7565,-2.7705,0.0,0.0,-2.6683,-2.6524,-2.5616,-2.5176,-2.5053,-2.512,-2.5082,-2.4968,-2.4778,-2.4758,-2.5601,-3.0157,-3.168,-3.109,-2.7602,-2.8276,-2.8575,-2.1395,-1.7891,-1.5223,-1.0579,-0.8443,-0.6917,-0.5108,-0.4537,-0.4299,-0.3952,-0.3987,-0.4101,-0.4175,-0.4541,-0.5074,0.0,0.0,0.0,-0.9469,-1.0053,-1.1153,0.0,-1.398,0.0,-1.6008,-1.6588,-1.6871,0.0,-1.7138,-1.7326,-1.7326,-1.7326,-1.736,-1.7589,-1.7544,-1.7819,-1.8661,-1.9011,-1.9384,-1.9795,-1.8973,-1.8708,-1.8896,-1.8305,-1.7629,-1.6918,0.0,-1.6564,-1.5797,-1.5938,-1.5938,-1.5762,-1.5343,-1.5233,-1.533,-1.5184,-1.5444,-1.5853,0.0,0.0,0.0,0.0,0.0,0.0,0.0,0.0,0.0,0.0,0.0,0.0,0.0,0.0,0.0,0.0,0.0,0.0,0.0,0.0,1.9694,1.7754,1.5629,1.5221,1.6701,1.5749,1.4896,1.4176,1.791,2.1231,2.4025,1.9839,0.4407,-1.9829,-2.107,-2.1691,-2.184,-2.2523,-2.3358,-2.4245,-2.4328,-2.477,-2.5416,0.0,-2.5298,-2.5056,-2.516,-2.5138,-2.5096,-2.5551,-2.6091,-2.7461,-3.2675,-3.4327,-3.3754,-3.049,-3.1644,-3.1934,-2.2682,-1.6711,-1.2468,-0.9552,-0.7081,-0.5112,-0.3889,-0.3355,-0.3069,-0.2874,-0.3185,-0.3508,-0.363,-0.3893,-0.4359,-0.5034,0.0,-0.6588,-0.792,-0.8294,-0.9229,-1.139,-1.2339,-1.3307,-1.4657,-1.5717,-1.6393,-1.6393,-1.6821,-1.7174,-1.7174,-1.7174,-1.7006,-1.674,-1.6996,-1.7462,-1.8071,-1.8687,-1.8991,-1.9084,-1.8674,-1.8494,-1.8562,-1.8049,-1.7458,-1.6841,0.0,0.0,-1.5728,-1.578,-1.5805,-1.5788,-1.5694,-1.5783,-1.5882,-1.5451,-1.567,-1.6053,0.0,0.0,0.0,0.0,0.0,0.0,0.0,0.0,0.0,0.0,2.2703,2.2375,0.0,0.0,0.0,0.0,0.0,0.0,0.0,0.0,0.0,2.0193,1.8582,1.8076,1.8857,2.0084,2.1606,2.3392,2.3136,2.233,2.1009,1.8884,0.4272,-2.0216,-2.0465,-2.1016,-2.1865,-2.2908,-2.3782,-2.4487,-2.4923,-2.5027,-2.495,-2.5171,0.0,0.0,-2.521,-2.5178,-2.5614,-2.8483,-3.1357,-3.3417,-3.173,-3.3058,-3.5162,-3.4621,-3.6803,-3.8333,-3.3307,-1.7966,-0.4012,-0.671,-0.4829,-0.2311,-0.2429,-0.2083,0.0,0.0,-0.2585,-0.2871,-0.2896,-0.3362,-0.3974,-0.4628,-0.5466,-0.6624,-0.8232,-0.8444,-0.9267,0.0,-1.1453,0.0,0.0,0.0,0.0,0.0,0.0,0.0,-1.6677,-1.6487,-1.6223,-1.5828,-1.6386,-1.6812,-1.6908,-1.7422,-1.8054,-1.8637,-1.798,-1.7989,-1.8545,-1.7235,-1.665,-1.6504,0.0,0.0,-1.5343,-1.5668,-1.5805,-1.5737,-1.512,-1.4927,-1.4924,-1.4998,-1.4789,-1.4686,0.0,0.0,0.0,0.0,0.0,0.0,0.0,2.2988,2.2659,2.3047,2.2977,2.2888,2.2722,2.2982,2.3315,0.0,0.0,0.0,0.0,0.0,0.0,0.0,0.0,0.0,2.263,2.3536,2.4374,0.0,0.0,2.2609,2.0271,0.0,0.0,-0.1033,-1.5076,-2.1609,-2.213,-2.3106,-2.3687,-2.4062,-2.4937,-2.503,0.0,0.0,0.0,0.0,0.0,-2.5399,-2.5704,-2.7323,-3.0172,-3.339,-3.5231,-3.4541,-3.3431,-3.5264,-3.8177,-3.7171,-2.0519,-0.8409,-0.101,-0.3233,-0.3207,-0.2265,-0.0702,0.0,0.0,-0.0837,-0.1545,-0.2141,-0.2233,-0.2737,0.0,-0.3898,-0.4705,-0.5828,-0.7213,-0.769,0.0,-0.9987,-1.0422,0.0,0.0,0.0,0.0,0.0,0.0,0.0,-1.6317,-1.6012,-1.586,-1.5812,-1.6174,-1.6331,-1.6316,-1.6635,-1.6863,-1.709,-1.6963,-1.6951,-1.7164,-1.6604,-1.6203,-1.5745,-1.5574,0.0,-1.4949,-1.5137,-1.5223,-1.518,-1.4829,-1.475,-1.4707,-1.4568,-1.4762,-1.5202,0.0,0.0,0.0,0.0,0.0,0.0,0.0,2.2379,2.1939,2.2605,2.3058,2.318,2.2754,2.3179,2.3554,0.0,0.0,0.0,0.0,0.0,0.0,0.0,0.0,0.0,0.0,0.0,0.0,0.0,0.0,0.0,0.0,0.0,0.0,0.0,0.0,0.0,-2.2642,-2.3312,-2.3684,0.0,0.0,0.0,0.0,0.0,0.0,0.0,0.0,-2.558,-2.5672,-2.5577,-2.7404,-3.0622,-3.5912,-3.4455,-3.1321,-3.4017,-3.7175,-3.3578,-0.5107,0.2103,0.1535,0.1454,0.0,-0.0744,0.1545,0.136,0.0,0.0279,-0.0615,-0.1399,-0.1567,-0.2002,-0.2536,0.0,-0.3848,-0.4692,-0.5817,-0.6551,-0.7317,0.0,0.0,0.0,0.0,0.0,0.0,0.0,0.0,0.0,-1.5833,-1.5625,-1.5576,-1.5632,-1.5875,-1.5904,-1.5807,-1.5736,-1.5701,-1.5613,-1.5907,-1.5946,-1.5684,-1.5735,-1.5449,-1.4883,-1.4807,0.0,0.0,-1.451,-1.4609,-1.4609,-1.459,-1.4615,-1.464,-1.4249,-1.4689,-1.5339,0.0,0.0,0.0,0.0,0.0,0.0,0.0,2.0444,2.0257,2.2402,2.2742,2.2745,2.2705,2.3196,2.3507,0.0,0.0,0.0,0.0,0.0,0.0,0.0,0.0,0.0,0.0,0.0,0.0,0.0,0.0,0.0,0.0,0.0,0.0,0.0,0.0,0.0,0.0,-2.3753,0.0,0.0,0.0,0.0,0.0,0.0,0.0,0.0,0.0,-2.5595,-2.5707,-2.5695,-2.589,-2.6289,-2.6883,-2.88,-3.0867,-3.1181,0.0,0.0,-0.1259,0.6488,0.6871,0.8542,0.755,0.5917,0.4724,0.0,0.2593,0.0167,-0.0448,-0.0617,-0.0897,-0.1347,-0.1779,-0.2382,-0.304,-0.3737,-0.4281,-0.5306,-0.626,-0.6973,0.0,0.0,0.0,0.0,0.0,0.0,0.0,0.0,0.0,-1.4929,-1.4938,-1.4678,-1.5158,-1.5301,-1.4911,-1.4521,-1.4624,-1.515,-1.5281,-1.5338,-1.5282,-1.4311,-1.383,-1.3824,0.0,0.0,0.0,-1.3999,-1.4272,-1.4247,-1.4153,-1.419,-1.4184,-1.4196,-1.3824,-1.3362,0.0,0.0,0.0,0.0,0.0,0.0,2.1148,2.0559,1.9861,1.9052,1.9322,2.0194,2.1791,2.2341,2.2721,2.3,0.0,0.0,0.0,0.0,0.0,0.0,0.0,0.0,0.0,0.0,0.0,0.0,0.0,0.0,0.0,0.0,0.0,0.0,0.0,0.0,0.0,0.0,0.0,0.0,0.0,0.0,0.0,0.0,0.0,0.0,0.0,0.0,-0.3199,-1.9483,-2.519,-2.5486,-2.5653,-2.6525,-2.7942,0.0,-2.0843,-0.7352,0.4046,0.8714,1.0677,1.1455,1.1329,1.0514,0.8639,0.0,0.3153,0.1496,0.0613,0.0,-0.028,-0.0783,-0.1128,-0.1218,-0.2012,-0.275,-0.3211,-0.4392,-0.551,0.0,0.0,0.0,0.0,0.0,0.0,0.0,0.0,0.0,0.0,-1.4019,-1.412,-1.3753,-1.4496,-1.4676,-1.4377,-1.4157,-1.4116,-1.4171,-1.4398,-1.4447,-1.4229,-1.381,-1.3473,-1.3267,0.0,0.0,0.0,-1.3288,-1.3487,-1.3509,-1.3449,-1.3554,-1.3699,-1.3569,-1.3616,-1.3771,0.0,0.0,0.0,0.0,0.0,2.0969,2.0607,2.0256,1.9336,1.7491,1.7381,1.8395,2.0868,2.1979,2.2747,2.3106,2.3803,0.0,0.0,0.0,0.0,0.0,0.0,0.0,0.0,0.0,0.0,2.3929,2.3413,0.0,0.0,0.0,0.0,0.0,0.0,0.0,0.0,0.0,0.0,0.0,0.0,0.0,0.0,0.0,0.0,0.0,0.0,0.0,0.0,0.0,0.0,-1.3561,-1.3994,-1.4046,-1.4498,-1.7289,-0.5499,0.8396,0.8289,1.0995,1.3761,1.3372,1.3216,1.2893,0.0,0.0,0.4069,0.3101,0.2227,0.1561,0.134,0.0558,-0.0056,0.0168,-0.0685,-0.1548,-0.2186,-0.3376,0.0,0.0,0.0,0.0,0.0,0.0,0.0,0.0,0.0,0.0,0.0,-1.2919,-1.3117,-1.3097,-1.3418,-1.3547,-1.3496,-1.3548,-1.3382,-1.3135,-1.3606,-1.357,-1.3059,-1.3186,-1.301,-1.2584,0.0,0.0,0.0,-1.2501,-1.2643,-1.2723,-1.2714,-1.2905,-1.3143,-1.2952,-1.3247,-1.3728,0.0,0.0,0.0,0.0,0.0,0.0,2.0152,1.8929,1.8341,1.8906,1.8062,1.8138,2.0004,2.2475,2.4042,2.4168,2.3786,0.0,0.0,0.0,0.0,0.0,0.0,0.0,0.0,0.0,2.4115,2.2122,2.5109,2.4245,1.9453,0.0,0.0,0.0,0.0,0.0,0.0,0.0,0.0,0.0,0.0,0.0,0.0,0.0,0.0,0.0,0.0,0.0,0.0,0.0,0.0,0.0,0.0,1.2862,1.256,1.1854,1.1149,1.0632,1.0967,1.3784,1.6353,1.4922,1.3607,1.2685,0.0,0.9392,0.5828,0.4695,0.4487,0.4438,0.4438,0.2963,0.1729,0.1621,0.0894,0.0,-0.1055,-0.2058,0.0,0.0,0.0,0.0,0.0,0.0,0.0,0.0,0.0,0.0,0.0,-1.1544,-1.1853,-1.2864,-1.1979,-1.1669,-1.212,-1.212,-1.22,-1.2344,-1.2899,-1.2769,-1.2058,-1.238,-1.2167,0.0,0.0,0.0,0.0,-1.1639,-1.1791,-1.1988,-1.1979,-1.2175,-1.2453,-1.2564,-1.2619,-1.2567,0.0,0.0,0.0,0.0,0.0,0.0,0.0,1.9464,1.9201,1.8441,1.8738,1.9381,2.0308,2.1619,2.2964,2.4301,2.443,0.0,0.0,0.0,0.0,0.0,0.0,0.0,0.0,0.0,2.4162,2.3393,2.3157,2.1062,1.7023,0.5672,-0.0033,0.0,0.0,0.0,0.0,0.0,0.0,0.0,0.0,0.0,0.0,0.0,0.0,0.0,0.0,0.0,0.0,0.0,0.0,0.0,0.0,0.0,0.0,1.4868,1.377,1.2902,1.2779,1.3859,1.5095,1.5694,1.5489,1.3905,0.8826,0.6934,0.5882,0.4751,0.4484,0.482,0.5749,0.4336,0.2996,0.2779,0.1616,0.0628,0.0,0.0,0.0,0.0,0.0,0.0,0.0,0.0,0.0,0.0,0.0,0.0,0.0,0.0,-1.0701,-1.1522,-1.1455,-1.1398,-1.1467,-1.1592,-1.1833,-1.2119,-1.2455,-1.2467,-1.2164,-1.2049,0.0,0.0,0.0,0.0,0.0,-1.1473,-1.1651,-1.1622,-1.1619,-1.1894,-1.2363,-1.2161,-1.212,-1.2218,0.0,0.0,0.0,0.0,0.0,0.0,0.0,1.9574,1.9495,1.8579,1.9189,1.9981,2.0732,2.1687,2.2989,2.4753,2.5015,0.0,0.0,0.0,0.0,0.0,0.0,0.0,0.0,2.492,2.449,2.3621,2.3705,2.1511,1.7086,1.0346,0.261,-0.5832,-0.9213,0.0,0.0,0.0,0.0,0.0,0.0,0.0,2.3251,0.0,0.0,0.0,0.0,0.0,0.0,0.0,0.0,0.0,0.0,0.0,0.0,0.0,1.5757,1.4975,1.3984,1.3951,1.4382,1.4687,1.4476,0.0,0.7494,0.604,0.5748,0.5229,0.5132,0.5416,0.6287,0.5386,0.4378,0.422,0.3003,0.1982,0.0,0.0,0.0,0.0,0.0,0.0,0.0,0.0,0.0,0.0,0.0,0.0,0.0,0.0,-0.92,-0.9903,-1.066,-1.0918,-1.0553,-1.096,-1.1323,-1.1508,-1.1871,-1.1992,-1.1831,-1.1753,0.0,0.0,0.0,0.0,0.0,-1.0871,-1.0986,-1.1036,-1.1083,-1.1403,-1.1837,-1.1713,-1.1731,-1.1835,0.0,0.0,0.0,0.0,0.0,0.0,0.0,1.952,1.9589,1.9425,1.961,2.0201,2.1351,2.2527,2.3893,2.5471,0.0,0.0,0.0,0.0,0.0,0.0,0.0,0.0,0.0,2.5645,2.4986,2.3069,2.5928,2.4326,1.854,1.5558,0.442,-1.3216,-1.7258,-1.5399,-0.8177,0.8512,1.5389,1.5222,1.6564,1.8386,0.0,0.0,0.0,0.0,0.0,0.0,0.0,0.0,0.0,0.0,0.0,0.0,0.0,0.0,0.0,0.0,0.0,1.4317,1.4057,1.2622,1.1417,1.0159,0.8493,0.678,0.0,0.6195,0.6273,0.6223,0.6282,0.6182,0.6018,0.5732,0.486,0.384,0.0,0.0,0.0,0.0,0.0,0.0,0.0,0.0,0.0,0.0,0.0,0.0,0.0,0.0,-0.7478,-0.8083,-0.9499,-0.9959,-0.9403,-1.0217,-1.0627,-1.0568,-1.1288,-1.1393,-1.1073,-1.1304,0.0,0.0,0.0,0.0,0.0,-0.9959,-1.0035,-1.0301,-1.0374,-1.0616,-1.0972,-1.1326,-1.1477,-1.1528,0.0,0.0,0.0,0.0,0.0,0.0,0.0,0.0,0.0,0.0,2.1806,2.2413,2.2847,2.339,2.43,0.0,0.0,0.0,0.0,0.0,0.0,0.0,0.0,0.0,2.496,2.5619,2.5239,2.3762,2.4243,2.0786,1.363,0.8474,-0.0593,-1.2598,-1.5347,-1.3048,-0.6607,0.1176,0.8492,1.512,1.8079,2.0931,0.0,0.0,0.0,0.0,2.2741,2.1635,0.0,0.0,0.0,0.0,0.0,0.0,0.0,0.0,1.7811,1.7797,1.6741,0.0,1.4575,1.399,1.2788,1.1422,0.0,0.8869,0.7882,0.7543,0.6799,0.6328,0.6789,0.75,0.7711,0.6732,0.5612,0.467,0.0,0.0,0.0,0.0,0.0,0.0,0.0,0.0,0.0,0.0,0.0,0.0,0.0,0.0,-0.592,-0.5536,-0.699,-0.8304,-0.9479,-0.9943,-1.0238,-1.0364,-1.0468,-1.0593,-1.0856,-1.0464,0.0,0.0,0.0,0.0,-0.9611,-0.9701,-0.9796,-0.9926,-0.9955,-1.0344,-1.0922,-1.1023,-1.1226,-1.1528,0.0,0.0,0.0,0.0,0.0,0.0,0.0,0.0,0.0,0.0,0.0,0.0,0.0,0.0,0.0,0.0,0.0,0.0,0.0,0.0,0.0,0.0,0.0,2.5004,2.5215,2.6057,2.6637,2.689,2.5351,2.1198,1.4418,0.409,-0.5115,-1.3196,-1.8152,-1.515,-0.6041,0.0031,0.8789,1.8708,2.0378,0.0,0.0,0.0,0.0,0.0,2.2141,2.1278,0.0,1.9367,1.8493,1.7787,0.0,0.0,0.0,0.0,1.8139,1.8466,1.7881,1.7055,1.594,1.4148,1.3096,1.2264,1.1438,1.0,0.8619,0.8014,0.7015,0.6371,0.6881,0.7738,0.8111,0.7489,0.6379,0.0,0.0,0.0,0.0,0.0,0.0,0.0,0.0,0.0,0.0,0.0,0.0,0.0,0.0,0.0,-0.4552,-0.4486,-0.5473,-0.6569,-0.7822,-0.8415,-0.8941,-0.946,-0.9314,-0.9636,-1.0279,-0.9821,0.0,0.0,0.0,0.0,-0.8977,-0.92,-0.9312,-0.9361,-0.9666,-1.0028,-1.0395,-1.0667,-1.0922,-1.1276,0.0,0.0,0.0,0.0,0.0,0.0,0.0,0.0,0.0,0.0,0.0,0.0,0.0,0.0,0.0,0.0,0.0,0.0,0.0,0.0,0.0,0.0,0.0,2.5133,2.5383,2.6571,2.7948,2.9492,2.7437,2.3214,1.6814,0.373,-0.5908,-1.2564,-2.0933,-1.7543,-0.5212,0.127,1.0922,2.1899,2.224,0.0,0.0,0.0,0.0,0.0,0.0,0.0,0.0,1.876,1.808,1.772,1.7115,0.0,0.0,0.0,0.0,0.0,1.8545,1.8445,1.765,1.4525,1.36,1.3224,1.213,1.0426,0.8926,0.8408,0.7295,0.6617,0.0,0.7694,0.0,0.0,0.0,0.0,0.0,0.0,0.0,0.0,0.0,0.0,0.0,0.0,0.0,0.0,0.0,0.0,0.0,0.0,0.0,-0.3823,-0.4318,-0.4893,-0.547,-0.6569,-0.754,-0.8377,-0.8264,-0.8665,-0.957,-0.9227,0.0,0.0,0.0,0.0,-0.8374,-0.8593,-0.8752,-0.8857,-0.9413,-0.971,-0.9814,-1.0249,-1.0616,-1.0964,0.0,0.0,0.0,0.0,0.0,0.0,0.0,0.0,0.0,0.0,0.0,0.0,0.0,0.0,0.0,0.0,0.0,0.0,0.0,0.0,0.0,2.6381,2.6187,2.5543,2.4437,2.6517,2.7033,2.5802,2.7803,2.3989,1.4777,1.2842,0.5823,-0.547,-1.5017,-1.2751,-0.1675,-0.0507,0.6464,1.709,2.1107,0.0,0.0,0.0,0.0,0.0,0.0,0.0,0.0,1.9471,1.8869,1.8344,1.8108,0.0,0.0,0.0,0.0,0.0,1.9176,1.9318,1.8885,1.7865,1.69,1.5227,1.1574,1.0467,1.0234,1.0098,0.8798,0.7907,0.8773,0.889,0.8689,0.0,0.0,0.0,0.0,0.0,0.0,0.0,0.0,0.0,0.0,0.0,0.0,0.0,0.0,0.0,0.0,0.0,0.0,-0.1678,-0.2727,-0.3352,-0.3427,-0.5697,-0.7104,-0.7641,-0.7772,-0.8184,-0.8912,-0.8392,-0.8215,0.0,0.0,-0.8133,-0.8221,-0.8275,-0.8487,-0.8804,-0.891,-0.9211,-0.9666,-0.9821,-1.0395,-1.1124,0.0,0.0,0.0,0.0,0.0,0.0,0.0,0.0,0.0,0.0,0.0,0.0,0.0,0.0,0.0,0.0,0.0,0.0,0.0,0.0,0.0,2.7088,2.6827,2.6015,2.4608,2.5573,2.6056,2.6031,2.5985,2.2766,1.6525,0.9636,0.2757,-0.4124,-1.1075,-0.7935,0.2546,0.2288,0.7967,1.7377,0.0,0.0,0.0,0.0,0.0,0.0,0.0,0.0,0.0,0.0,1.8959,1.8592,1.8108,0.0,0.0,0.0,0.0,0.0,1.8627,1.8942,1.8852,1.7734,1.7431,1.6499,1.3368,1.1818,1.0949,1.0562,0.9853,0.9308,0.0,0.0,0.9147,0.0,0.0,0.0,0.0,0.0,0.0,0.0,0.0,0.0,0.0,0.0,0.0,0.0,0.0,0.0,0.0,0.0,0.0,0.0,-0.1877,-0.228,-0.228,-0.3637,-0.4955,-0.6152,-0.6258,-0.6735,-0.758,-0.734,-0.7296,-0.7406,0.0,-0.7348,-0.7622,-0.7676,-0.7889,-0.8262,-0.858,-0.8837,-0.9124,-0.9431,-1.0111,-1.0842,0.0,0.0,0.0,0.0,0.0,0.0,0.0,0.0,0.0,0.0,0.0,0.0,0.0,0.0,0.0,0.0,0.0,0.0,0.0,0.0,2.6971,2.6656,2.6401,2.5754,2.4723,2.4523,2.4687,2.5262,2.3738,2.0603,1.5778,0.4327,-0.188,-0.3536,-0.6482,-0.2382,0.6676,0.5302,0.9737,1.7849,0.0,0.0,0.0,0.0,0.0,0.0,0.0,0.0,0.0,0.0,0.0,0.0,0.0,0.0,0.0,1.8028,1.8168,1.8373,1.8407,1.8461,1.8196,1.7076,1.7319,1.7269,1.525,1.3358,1.1845,1.1146,1.0778,0.0,0.0,0.9756,0.0,0.0,0.0,0.0,0.0,0.0,0.0,0.0,0.0,0.0,0.0,0.0,0.0,0.0,0.0,0.0,0.0,0.0,0.0,0.0,-0.0823,-0.1219,-0.1219,-0.1696,-0.2797,-0.4483,-0.4725,-0.5239,-0.5975,-0.611,-0.615,-0.6091,-0.615,-0.6426,-0.681,-0.6912,-0.7235,-0.767,-0.809,-0.8362,-0.8593,-0.9069,-0.9678,-1.0267,0.0,0.0,0.0,0.0,0.0,0.0,0.0,0.0,0.0,0.0,0.0,0.0,0.0,0.0,0.0,0.0,0.0,0.0,0.0,0.0,2.499,2.4091,2.4045,2.404,2.4077,2.3742,2.2536,2.0412,2.1901,1.7655,0.7986,0.18,-0.1177,-0.1261,0.0362,0.459,1.0257,0.6146,0.8786,1.5805,1.709,0.0,0.0,0.0,0.0,0.0,0.0,0.0,0.0,0.0,0.0,0.0,0.0,0.0,1.8347,1.9072,1.8257,1.7518,1.9341,1.8413,1.7053,1.7347,1.7599,1.7356,1.5923,1.4574,1.339,1.2556,0.0,0.0,0.0,1.0261,0.0,0.0,0.0,0.0,0.0,0.0,0.0,0.0,0.0,0.0,0.0,0.0,0.0,0.0,0.0,0.0,0.0,0.0,0.0,0.0,0.0,0.0224,0.0224,-0.0727,-0.1789,-0.3081,-0.3633,-0.4012,-0.4226,-0.4783,-0.4835,-0.4553,-0.4893,-0.5336,-0.5882,-0.5882,-0.6475,-0.7343,-0.7396,-0.7723,-0.829,-0.8753,-0.9032,-0.9361,0.0,0.0,0.0,0.0,0.0,0.0,0.0,0.0,0.0,0.0,0.0,0.0,0.0,0.0,0.0,0.0,0.0,0.0,0.0,2.406,2.3495,2.2601,2.1712,2.1278,2.1312,2.3391,2.3126,2.046,1.7563,1.4036,0.994,0.5768,0.5346,0.8017,0.6221,0.817,1.2591,0.9158,1.0206,1.4182,1.4917,1.5666,0.0,0.0,0.0,0.0,0.0,0.0,0.0,0.0,1.8683,1.8673,1.8556,1.8542,1.8606,1.8769,1.8574,1.8427,1.8935,1.8413,1.7744,1.7637,1.7516,1.6979,1.5564,1.4873,1.4419,1.3699,1.3081,0.0,0.0,0.0,0.0,0.0,0.0,0.0,0.0,0.0,0.0,0.0,0.0,0.0,0.0,0.0,0.0,0.0,0.0,0.0,0.0,0.0,0.0,0.0,0.0,0.1506,0.1506,0.1225,0.0556,-0.0446,-0.1947,-0.2726,-0.2781,-0.3166,-0.3277,-0.3164,-0.3277,-0.3663,-0.4158,-0.4498,-0.4765,-0.4953,-0.4832,-0.5092,-0.5466,-0.5171,-0.6675,-0.8883,0.0,0.0,0.0,0.0,0.0,0.0,0.0,0.0,0.0,0.0,0.0,0.0,0.0,0.0,0.0,0.0,0.0,0.0,2.3822,2.3106,2.2339,2.1515,2.0578,1.9952,1.9713,2.2251,2.265,2.0762,1.3374,0.9574,0.9127,0.7191,0.7898,1.0719,0.9982,1.1041,1.3176,1.0693,1.0527,1.1976,1.2568,1.3253,0.0,0.0,0.0,0.0,0.0,0.0,0.0,0.0,1.8293,1.8321,1.8242,1.8307,1.8436,1.8475,1.8361,1.8167,1.82,1.7908,1.746,1.7033,1.7003,1.6703,1.5432,1.5265,1.5233,1.4687,1.4185,1.3607,1.2776,0.0,0.0,0.0,0.0,0.0,0.0,0.0,0.0,0.0,0.0,0.0,0.0,0.0,0.0,0.0,0.0,0.0,0.0,0.0,0.0,0.0,0.0,0.0,0.2741,0.2518,0.2072,0.1405,-0.0162,-0.1038,-0.1228,-0.1615,-0.1725,-0.1615,-0.167,-0.189,-0.2386,-0.2664,-0.2881,-0.2975,-0.2908,-0.3066,-0.3286,-0.2508,-0.4001,-0.6445,0.0,0.0,0.0,0.0,0.0,0.0,0.0,0.0,0.0,0.0,0.0,0.0,0.0,0.0,0.0,0.0,0.0,0.0,2.378,2.2552,2.1508,2.0839,2.0831,2.0462,1.9702,2.0233,2.0533,2.0625,0.9857,0.4299,0.3802,0.4785,0.5005,0.477,1.134,1.3368,1.1791,1.0262,0.9314,0.9003,1.0043,1.0388,1.0439,0.0,0.0,0.0,0.0,0.0,0.0,0.0,1.8135,1.7922,1.8123,1.7963,1.7801,1.8358,1.737,1.6364,1.7334,1.6779,1.5802,1.534,1.5982,1.6512,1.5774,1.579,1.5816,1.5468,1.4736,1.4268,1.4714,0.0,0.0,0.0,0.0,0.0,0.0,0.0,0.0,0.0,0.0,0.0,0.0,0.0,0.0,0.0,0.0,0.0,0.0,0.0,0.0,0.0,0.0,0.0,0.3909,0.2856,0.2288,0.2205,0.1707,0.1045,0.0392,-0.0112,-0.0224,0.0,0.0,-0.0223,-0.0668,-0.0333,-0.0775,-0.1762,-0.1849,-0.1976,-0.2058,-0.1316,-0.1276,-0.1718,0.0,0.0,0.0,0.0,0.0,0.0,0.0,0.0,0.0,0.0,0.0,0.0,0.0,0.0,0.0,0.0,0.0,0.0,2.2693,2.1936,2.1407,2.1285,2.1279,2.0972,2.027,1.9642,1.8153,1.5784,1.2589,1.0664,1.0047,0.9974,1.036,1.1268,1.1983,1.1902,1.1166,0.9242,0.8353,0.837,0.8456,0.8971,0.9805,0.0,0.0,0.0,0.0,0.0,0.0,0.0,0.0,0.0,1.8163,1.8599,1.8957,1.847,1.8517,1.8648,1.8303,1.7608,1.7151,1.7887,1.7638,0.0,1.8365,1.7705,1.6928,0.0,1.6318,1.5618,1.4784,0.0,0.0,0.0,0.0,0.0,0.0,0.0,0.0,0.0,0.0,0.0,0.0,0.0,0.0,0.0,0.0,0.0,0.0,0.0,0.0,0.0,0.0,0.0,0.4877,0.4873,0.4542,0.3939,0.3599,0.2688,0.13,0.1173,0.1294,0.1459,0.155,0.1452,0.1334,0.1572,0.1389,0.116,0.1881,0.2217,0.2388,0.3111,-0.0162,-0.5004,0.0,0.0,0.0,0.0,0.0,0.0,0.0,0.0,0.0,0.0,2.3025,0.0,0.0,0.0,0.0,0.0,0.0,0.0,0.0,2.1022,2.1007,2.0879,2.1038,2.0956,2.0503,1.9656,1.7918,1.515,1.4957,1.4262,1.3024,1.321,1.3534,1.3912,1.2823,1.1915,1.1063,0.9131,0.8123,0.7759,0.7706,0.8072,0.8797,0.0,0.0,0.0,0.0,0.0,0.0,0.0,0.0,0.0,1.8293,1.8742,1.9016,1.8163,1.8156,1.8285,1.7602,1.7232,1.7234,1.8083,1.8177,1.84,1.9585,0.0,0.0,0.0,0.0,1.7066,0.0,0.0,0.0,0.0,0.0,0.0,0.0,0.0,0.0,0.0,0.0,0.0,0.0,0.0,0.0,0.0,0.0,0.0,0.0,0.0,0.0,0.0,0.0,0.0,0.5706,0.5663,0.5377,0.4858,0.4628,0.3996,0.3083,0.2499,0.2376,0.2659,0.2893,0.3115,0.3209,0.336,0.3348,0.3312,0.4043,0.4415,0.4613,0.5446,0.2745,-0.1353,0.0,0.0,0.0,0.0,0.0,0.0,0.0,0.0,0.0,0.0,2.1898,2.1118,0.0,0.0,0.0,0.0,0.0,0.0,0.0,0.0,2.032,1.9888,2.0322,2.0514,2.0348,1.9954,1.8956,1.7329,1.6723,1.5445,1.3585,1.4737,1.4689,1.3609,1.3542,1.2721,1.1328,0.9731,0.8402,0.7444,0.761,0.7711,0.7806,0.9079,0.0,0.0,0.0,0.0,0.0,0.0,0.0,0.0,1.8422,1.8673,1.8549,1.7664,1.7019,1.6518,1.6153,1.6315,1.6679,1.6928,1.806,0.0,1.9724,1.9455,1.8855,1.8282,0.0,0.0,0.0,0.0,0.0,0.0,0.0,0.0,0.0,0.0,0.0,0.0,0.0,0.0,0.0,0.0,0.0,0.0,0.0,0.0,0.0,0.0,0.0,0.0,0.0,0.0,0.648,0.5794,0.542,0.0,0.5087,0.5105,0.5264,0.383,0.3338,0.3663,0.4174,0.4525,0.4821,0.4994,0.5007,0.4885,0.5083,0.5185,0.5329,0.6275,0.6271,0.5876,0.0,0.0,0.0,0.0,0.0,0.0,0.0,0.0,0.0,0.0,0.0,0.0,0.0,0.0,0.0,0.0,0.0,0.0,0.0,0.0,1.9178,1.9634,2.007,1.9924,1.9191,1.8867,1.809,1.686,1.6349,1.537,1.3946,1.4163,1.374,1.2919,1.2907,1.2219,1.0962,0.9672,0.8798,0.8218,0.7853,0.8277,0.9162,0.9384,1.032,0.0,0.0,0.0,0.0,0.0,0.0,0.0,1.8664,1.9176,1.9384,1.8563,1.818,1.8068,1.8158,1.7763,1.7547,1.8331,1.8866,1.9179,1.8801,1.8995,1.9171,1.8946,1.8203,0.0,0.0,0.0,0.0,0.0,0.0,0.0,0.0,0.0,0.0,0.0,0.0,0.0,0.0,0.0,0.0,0.0,0.0,0.0,0.0,0.0,0.0,0.0,0.0,0.7652,0.7699,0.7511,0.7244,0.0,0.6537,0.6284,0.6094,0.5371,0.5102,0.5257,0.5031,0.5205,0.5646,0.5581,0.581,0.6292,0.6449,0.668,0.7003,0.7419,0.5465,0.2613,0.0,0.0,0.0,0.0,0.0,0.0,0.0,0.0,0.0,0.0,0.0,0.0,0.0,0.0,0.0,0.0,0.0,0.0,0.0,0.0,1.8149,1.9562,2.0234,2.0147,1.9337,1.9045,1.826,1.6886,1.6353,1.5647,1.4763,1.4746,1.417,1.317,1.3233,1.2779,1.1866,1.0922,1.0324,0.9982,0.9724,0.9866,1.0218,1.0493,1.0995,1.1619,1.2384,0.0,0.0,0.0,0.0,0.0,0.0,0.0,1.9639,1.8965,1.863,1.8403,1.7868,1.7768,1.7987,1.9131,0.0,1.9568,1.9271,1.901,1.8897,1.911,0.0,0.0,0.0,0.0,0.0,0.0,0.0,0.0,0.0,0.0,0.0,0.0,0.0,0.0,0.0,0.0,0.0,0.0,0.0,0.0,0.0,0.0,0.0,0.0,0.8956,0.8698,0.8882,0.8472,0.8236,0.8113,0.7777,0.7567,0.7397,0.6465,0.6057,0.6062,0.5906,0.6055,0.6374,0.6214,0.6472,0.6943,0.7016,0.7405,0.7923,0.8111,0.684,0.5061,0.0,0.0,0.0,0.0,0.0,0.0,0.0,0.0,0.0,0.0,0.0,0.0,0.0,0.0,0.0,0.0,0.0,0.0,0.0,0.0,0.0,1.9641,2.0398,2.0416,1.9626,1.9295,1.8416,1.6857,1.6423,1.6035,1.5635,1.5477,1.4861,1.3853,1.4024,1.3719,1.3039,1.257,1.2212,1.1981,1.1928,1.1679,1.1387,1.1766,1.1636,1.1326,1.2026,1.2948,1.4114,1.5806,0.0,0.0,0.0,0.0,2.0025,1.9446,1.9004,1.8568,1.7617,1.7789,1.8491,1.9489,1.9817,0.0,1.9908,1.9139,1.8616,0.0,0.0,0.0,0.0,0.0,0.0,0.0,0.0,0.0,0.0,0.0,0.0,0.0,0.0,0.0,0.0,0.0,0.0,0.0,0.0,0.0,0.0,0.0,1.0687,1.0791,1.0108,0.9856,1.0099,0.9406,0.905,0.909,0.8747,0.8601,0.8563,0.7465,0.688,0.6678,0.6687,0.6848,0.7052,0.6986,0.712,0.7335,0.7335,0.7736,0.8278,0.8471,0.8616,0.8631,0.0,0.0,0.0,0.0,0.0,0.0,0.0,0.0,0.0,0.0,0.0,0.0,0.0,0.0,0.0,0.0,0.0,0.0,1.3999,0.0,0.0,1.9814,2.0158,1.9718,1.846,1.797,1.7203,1.5952,1.6166,1.6267,1.6253,1.515,1.4502,1.4334,1.4651,1.4294,1.3457,1.3691,1.3691,1.3491,1.3096,1.3106,1.3291,1.2195,1.1787,1.1828,1.2026,1.2803,1.4,1.593,1.7759,0.0,0.0,0.0,2.144,2.0893,2.0289,1.9892,2.0289,0.0,1.9672,0.0,1.9367,1.9208,0.0,0.0,1.9116,0.0,0.0,0.0,0.0,0.0,0.0,0.0,0.0,0.0,0.0,0.0,0.0,0.0,0.0,0.0,0.0,0.0,0.0,0.0,0.0,0.0,0.0,1.2079,1.2115,1.2306,1.1752,1.1531,1.1693,1.1148,1.0542,0.9953,0.9315,0.8918,0.8709,0.8791,0.845,0.7753,0.7389,0.7356,0.7615,0.7904,0.7918,0.7803,0.7919,0.7998,0.8101,0.8578,0.8587,0.7861,0.0,0.0,0.0,0.0,0.0,0.0,0.0,0.0,0.0,0.0,0.0,0.0,0.0,0.0,0.0,1.3993,1.359,1.3616,1.419,1.6612,1.8544,1.9667,2.0351,2.0203,1.9133,1.8278,1.7287,1.6194,1.6445,1.6479,1.6455,1.6535,1.612,1.5381,1.5448,1.5203,1.4726,1.4537,1.454,1.4624,1.4478,1.4323,1.4137,1.3491,1.3086,1.2842,1.2842,1.3632,1.4982,1.6807,1.8549,2.0141,2.1174,0.0,0.0,0.0,2.1064,2.0748,2.0846,2.0349,1.9785,0.0,1.9869,1.9711,1.9508,0.0,0.0,0.0,0.0,0.0,0.0,0.0,0.0,0.0,0.0,0.0,0.0,0.0,0.0,0.0,0.0,0.0,0.0,0.0,0.0,0.0,0.0,0.0,1.3432,1.3276,1.3255,1.3336,1.2926,1.2787,1.2938,1.2211,1.1457,1.0705,1.0263,0.9884,0.9597,0.9588,0.9116,0.8277,0.8074,0.8136,0.8431,0.839,0.8456,0.8616,0.8358,0.8471,0.8712,0.8746,0.8668,0.8333,0.0,0.0,0.0,0.0,0.0,0.0,0.0,0.0,0.0,0.0,0.0,0.0,0.0,0.0,0.0,0.0,1.3048,1.3242,1.447,1.6682,1.8366,1.9322,2.0187,2.0255,1.943,1.8394,1.7396,1.6436,1.6435,1.6586,1.6814,1.776,1.7734,1.6856,1.6766,1.6593,1.6232,1.5688,1.5719,1.6091,1.5788,1.5415,1.5079,1.4687,1.419,1.3705,1.361,1.4424,1.5816,1.7392,1.9077,2.0677,2.1807,2.2248,0.0,0.0,0.0,2.1493,2.1166,0.0,2.0225,2.0235,2.0436,2.0431,0.0,0.0,0.0,0.0,0.0,0.0,0.0,0.0,0.0,0.0,0.0,0.0,0.0,0.0,0.0,0.0,0.0,0.0,0.0,0.0,0.0,0.0,0.0,0.0,1.4687,1.4502,1.4359,1.431,1.399,1.3906,1.4044,1.3076,1.2283,1.1641,1.1308,1.0971,1.0601,1.0466,0.9953,0.9173,0.8958,0.9007,0.9145,0.8967,0.9027,0.9238,0.8887,0.8995,0.9284,0.9152,0.9041,0.8883,0.0,0.0,0.0,0.0,0.0,0.0,0.0,0.0,0.0,0.0,0.0,0.0,1.5077,1.4053,1.3292,1.3221,1.2852,1.3142,1.4321,1.5825,1.7303,1.8682,1.9236,0.0,1.8285,1.7666,1.6993,1.6244,1.5969,1.6457,1.7677,1.8037,1.8425,1.8881,1.8874,1.851,1.7894,1.763,1.7849,1.8215,1.6872,1.6517,1.665,1.551,1.4628,1.3978,1.4129,1.4812,1.5898,1.7317,1.908,2.0819,2.1581,2.2402,2.2939,0.0,0.0,0.0,0.0,2.1849,0.0,2.0313,2.0713,0.0,0.0,0.0,0.0,0.0,0.0,0.0,0.0,0.0,0.0,0.0,0.0,0.0,0.0,0.0,0.0,0.0,0.0,0.0,0.0,0.0,0.0,0.0,0.0,0.0,1.5745,1.5717,1.5619,1.5433,1.5154,1.4989,1.4925,1.3874,1.32,1.2916,1.2366,1.1923,1.1535,1.1641,1.1446,1.0918,1.0225,0.9823,0.9683,0.9872,0.9744,0.9494,0.9648,0.9561,0.9379,0.9929,0.9892,0.9021,0.0,0.0,0.0,0.0,0.0,0.0,0.0,0.0,0.0,0.0,0.0,0.0,0.0,1.4631,1.4009,1.3183,1.3155,1.2969,1.2425,1.4846,1.6421,1.677,1.7845,1.8144,1.7489,1.7073,1.6663,1.62,1.6704,1.7378,1.817,1.9506,2.022,2.0385,1.9458,1.887,1.8498,1.8104,1.8184,1.8488,1.7541,1.7242,1.723,1.6179,1.5591,1.5252,0.0,0.0,1.7001,1.8423,2.0035,2.1597,2.2388,2.3068,2.3437,2.2801,0.0,2.2415,0.0,0.0,0.0,2.1541,2.1183,2.1019,0.0,0.0,0.0,0.0,0.0,0.0,0.0,0.0,0.0,0.0,0.0,0.0,0.0,0.0,0.0,0.0,0.0,0.0,0.0,0.0,0.0,0.0,0.0,0.0,1.6954,1.6815,1.6731,1.6671,1.628,1.5844,1.5389,1.4821,1.4278,1.3703,1.3598,1.3175,1.2507,1.259,1.2413,1.1961,1.1729,1.126,1.0725,1.0791,1.0849,1.0819,1.063,1.0382,1.0106,1.0358,1.0077,0.9354,0.0,0.0,0.0,0.0,0.0,0.0,0.0,0.0,0.0,1.7118,0.0,0.0,0.0,0.0,1.3716,1.2628,1.2652,1.2369,1.1447,1.368,1.5088,1.5096,1.612,1.6561,1.6293,1.6046,1.5855,1.5836,1.6835,1.7683,1.8365,2.0138,2.1046,2.1212,2.055,2.0009,1.9556,1.8958,1.8973,1.9347,1.8216,1.815,1.8563,1.7445,1.7091,0.0,0.0,0.0,0.0,0.0,0.0,0.0,2.2731,0.0,0.0,0.0,0.0,0.0,2.2643,0.0,0.0,0.0,0.0,2.1618,0.0,0.0,0.0,0.0,0.0,0.0,0.0,0.0,0.0,0.0,0.0,0.0,0.0,0.0,0.0,0.0,0.0,0.0,0.0,0.0,0.0,0.0,0.0,0.0,1.8014,1.7885,1.7708,1.7518,1.7142,1.66,1.593,1.5664,1.5228,1.4656,1.453,1.4242,1.3723,1.3637,1.347,1.3243,1.3251,1.2634,1.163,1.163,1.1667,1.1693,1.144,1.1175,1.0952,1.099,1.068,1.0217,0.0,0.0,0.0,0.0,0.0,0.0,0.0,0.0,1.8465,1.7054,0.0,0.0,0.0,0.0,0.0,1.1463,1.1357,1.1347,1.1416,1.2388,1.3192,1.3762,1.4053,1.4342,1.4655,1.4515,1.4663,1.5108,1.6256,1.732,1.8266,1.9809,2.0855,2.1377,2.2181,2.2035,2.1183,2.025,2.0425,2.1075,0.0,1.9297,2.0737,0.0,0.0,0.0,1.9211,1.9591,0.0,2.0254,0.0,0.0,0.0,0.0,0.0,0.0,0.0,0.0,0.0,0.0,0.0,0.0,0.0,0.0,0.0,0.0,0.0,0.0,0.0,0.0,0.0,0.0,0.0,0.0,0.0,0.0,0.0,0.0,0.0,0.0,0.0,0.0,0.0,0.0,0.0,0.0,0.0,1.9026,1.8822,1.8823,1.8535,1.795,1.7732,1.7302,1.6664,1.6396,1.6083,1.5736,1.5211,1.5075,1.5241,1.4817,1.4707,1.4758,1.4811,1.3928,1.2413,1.239,1.2199,1.1945,1.2043,1.1982,1.1847,1.1945,1.1763,1.1516,0.0,0.0,0.0,0.0,0.0,0.0,2.131,1.995,1.8642,0.0,0.0,0.0,1.564,1.4654,1.3355,1.1845,1.1791,1.1172,0.9569,1.0602,1.1303,1.1376,1.1769,1.2525,1.3661,1.369,1.4179,1.5108,1.6823,1.8001,1.8752,2.1023,2.2209,2.2387,2.2805,2.286,2.2606,2.1992,2.1881,2.2044,2.0999,2.0625,0.0,0.0,0.0,0.0,0.0,1.9169,1.9925,0.0,2.1032,2.1965,0.0,0.0,0.0,0.0,0.0,0.0,2.3556,0.0,0.0,0.0,0.0,0.0,0.0,0.0,0.0,0.0,0.0,0.0,0.0,0.0,0.0,0.0,0.0,0.0,0.0,0.0,0.0,0.0,0.0,0.0,0.0,0.0,0.0,0.0,1.965,1.9588,1.9378,1.9239,1.8988,1.8627,1.829,1.8031,1.7906,1.7426,1.7182,1.706,1.6813,1.6496,1.6123,1.6041,1.5831,1.5562,1.5604,1.5387,1.4992,1.4259,1.3598,1.3113,1.363,1.3293,1.2615,1.3234,1.2822,1.1884,0.0,0.0,0.0,0.0,0.0,1.9865,2.0769,1.9852,1.896,0.0,0.0,0.0,1.5593,1.4853,1.3763,1.2044,1.1801,1.1099,0.9593,1.0241,1.0706,1.0775,1.0887,1.1618,1.2883,1.2807,1.3369,1.4628,1.636,1.7509,1.822,2.0558,2.1924,2.245,2.2664,2.2963,2.3218,2.2962,0.0,0.0,2.1729,0.0,0.0,2.0483,2.0075,0.0,0.0,0.0,2.1295,2.0998,2.1625,0.0,0.0,0.0,0.0,0.0,0.0,0.0,0.0,0.0,0.0,0.0,0.0,0.0,2.3639,2.3318,0.0,0.0,0.0,0.0,0.0,0.0,0.0,0.0,0.0,0.0,0.0,0.0,0.0,0.0,0.0,0.0,0.0,0.0,0.0,0.0,2.0489,2.0174,2.0311,1.9769,1.9522,1.9641,1.9101,1.8716,1.852,1.8171,1.7966,1.7935,1.762,1.7369,1.7162,1.6987,1.6756,1.6501,1.6699,1.6588,1.6242,1.5933,1.5169,1.4256,1.4679,1.4333,1.3663,1.4173,1.3789,1.297,0.0,0.0,1.0974,1.3543,1.6552,1.8845,1.9461,1.9446,1.9306,0.0,1.7936,1.648,1.5252,1.4576,1.3618,1.2193,1.1539,1.0971,1.0555,1.0618,1.0819,1.1163,1.0901,1.1228,1.23,1.1956,1.2501,1.3873,1.5309,1.6386,1.717,1.9256,2.0833,2.1822,2.2071,0.0,2.3194,0.0,0.0,2.3137,2.1777,2.1973,0.0,0.0,2.1258,2.1918,2.1507,2.2266,2.3244,2.2012,2.2361,0.0,0.0,0.0,0.0,0.0,2.3775,0.0,0.0,0.0,0.0,0.0,0.0,0.0,2.3537,2.386,2.3879,0.0,0.0,0.0,0.0,0.0,0.0,0.0,0.0,0.0,0.0,0.0,0.0,0.0,0.0,0.0,0.0,0.0,2.2095,2.2766,2.1468,2.0885,2.1445,2.0558,2.0308,2.0886,2.0092,1.9448,1.8974,1.8732,1.8574,1.852,1.802,1.7935,1.8176,1.783,1.758,1.7455,1.7894,1.758,1.6806,1.7363,1.6674,1.5316,1.5447,1.5197,1.4788,1.4866,1.4729,1.4422,0.0,0.7852,1.1412,1.4084,1.6981,1.9293,2.0364,1.971,1.9197,1.964,1.8326,1.7178,1.6658,1.507,1.3681,1.2725,1.1304,1.0357,1.0214,0.9893,1.004,1.0611,1.0397,1.0726,1.1752,1.1848,1.2241,1.3054,1.5174,1.6556,1.7238,1.9474,2.0802,2.138,2.1822,2.2186,0.0,0.0,0.0,2.2531,2.2646,0.0,2.2355,2.1467,2.11,2.1124,2.1213,2.1694,2.2308,2.2304,2.2738,2.3307,0.0,0.0,0.0,0.0,0.0,0.0,0.0,0.0,0.0,0.0,0.0,0.0,2.4596,2.5152,2.5393,0.0,0.0,0.0,0.0,0.0,0.0,0.0,0.0,0.0,0.0,0.0,0.0,0.0,0.0,0.0,0.0,0.0,2.3502,2.2914,2.2493,2.2337,2.2508,2.2259,2.2127,2.2163,2.127,2.0757,2.0715,1.9721,1.9277,1.936,1.9094,1.8888,1.8735,1.8645,1.8514,1.8356,1.8434,1.8423,1.8339,1.8145,1.7228,1.597,1.6423,1.6068,1.5403,1.5943,1.5702,1.5052,0.4777,0.7682,1.0764,1.3326,1.6126,1.8429,1.9699,1.9538,1.9476,2.0025,1.88,1.7728,1.7329,1.5498,1.3981,1.3014,1.1735,1.0827,1.0636,1.0479,1.0567,1.1052,1.0664,1.0914,1.1863,1.1763,1.2099,1.2852,1.4312,1.5476,1.6313,1.7903,1.9308,2.052,2.062,2.1039,0.0,0.0,2.2747,2.2317,2.2578,0.0,2.1716,2.1024,2.0842,2.0942,2.1023,2.1432,2.2094,2.2907,2.318,0.0,0.0,2.3846,2.4261,0.0,2.4087,2.4132,0.0,0.0,0.0,2.4404,0.0,0.0,0.0,2.4998,2.5311,0.0,0.0,0.0,0.0,0.0,0.0,0.0,0.0,0.0,0.0,0.0,0.0,0.0,0.0,0.0,0.0,0.0,2.3473,2.3026,2.3282,2.3475,2.3528,2.3079,2.2943,2.3295,2.246,2.1761,2.1301,2.0682,2.0168,1.9843,1.9607,1.9443,1.9345,1.928,1.9093,1.8842,1.8946,1.8941,1.8796,1.827,1.7607,1.6956,1.7103,1.6862,1.6475,1.6863,1.6696,1.6233,0.5197,0.7676,1.0208,1.2484,1.5118,1.731,1.8526,1.8954,1.9265,1.9646,1.8778,1.789,1.7349,1.5529,1.412,1.3465,1.2312,1.1565,1.1509,1.1473,1.1525,1.1677,1.1286,1.1337,1.1975,1.1781,1.1971,1.2529,1.3314,1.4215,1.5184,1.6114,1.7595,1.9458,1.9371,1.999,2.1133,0.0,0.0,2.231,0.0,2.2174,2.1578,2.0798,2.0834,2.1279,2.1214,2.1568,2.2242,2.333,0.0,2.3264,2.357,2.3985,0.0,0.0,0.0,0.0,0.0,0.0,0.0,0.0,0.0,2.4946,0.0,0.0,0.0,2.4326,0.0,0.0,0.0,0.0,0.0,0.0,0.0,0.0,0.0,0.0,0.0,0.0,0.0,0.0,0.0,0.0,2.3709,2.3603,2.4282,2.4655,2.4569,2.3814,2.3689,2.435,2.3585,2.2791,2.1971,2.1581,2.1056,2.0378,2.001,1.9812,1.9825,1.9736,1.9516,1.9258,1.9421,1.9351,1.907,1.8315,1.8083,1.8196,1.7687,1.7439,1.7412,1.7667,1.7669,1.753,0.5506,0.8309,1.1045,1.2638,1.4976,1.6883,1.7496,1.7541,1.7375,1.7152,1.733,1.7246,1.6511,0.0,0.0,0.0,0.0,0.0,1.2844,0.0,1.202,1.2058,1.1989,1.1721,1.122,1.2019,1.2033,1.1326,1.2735,1.3826,1.463,1.5672,1.6941,1.8321,1.8874,0.0,0.0,0.0,2.2643,0.0,2.3052,2.3201,0.0,2.1734,2.1663,2.2264,2.2308,2.248,2.2712,0.0,2.3271,2.3744,0.0,2.4263,2.4639,0.0,0.0,0.0,0.0,0.0,0.0,0.0,2.4929,0.0,0.0,0.0,2.5414,2.5349,0.0,0.0,0.0,0.0,0.0,0.0,0.0,0.0,0.0,0.0,0.0,0.0,0.0,0.0,0.0,0.0,0.0,2.5466,2.6097,2.6196,2.5496,2.5288,2.5253,2.5331,2.4569,2.4093,2.3971,2.2496,2.1632,2.1415,2.063,2.0137,1.9978,1.9955,1.9895,1.9805,1.9829,1.9888,1.986,1.8728,1.8885,1.9706,1.8371,1.7629,1.7436,1.8392,1.866,1.8556,0.606,0.8364,1.0748,1.2397,1.4287,1.596,1.6995,1.7894,1.8264,1.7718,1.7747,0.0,0.0,0.0,0.0,0.0,0.0,1.2531,0.0,0.0,1.2127,1.2127,1.1996,1.1945,1.2056,1.2321,1.2357,1.2215,1.2803,1.3647,1.4721,1.5318,1.6439,1.8094,1.8855,0.0,2.0731,0.0,2.3167,0.0,0.0,0.0,0.0,2.2007,2.1649,2.2118,2.2528,2.2712,2.279,0.0,2.3455,0.0,0.0,0.0,0.0,0.0,0.0,0.0,0.0,0.0,0.0,0.0,0.0,0.0,2.5605,0.0,2.5574,0.0,0.0,0.0,0.0,0.0,0.0,0.0,0.0,0.0,0.0,0.0,0.0,0.0,0.0,0.0,0.0,0.0,0.0,0.0,0.0,2.5925,2.567,2.5637,2.5597,2.5561,2.527,2.4842,2.4319,2.3104,2.2231,2.171,2.0787,2.0308,2.0239,2.0185,2.0121,2.0027,2.0024,2.0064,2.0073,1.9016,1.8949,1.9455,1.8835,1.8587,1.8624,1.9087,1.9133,1.9029,0.6877,0.8712,1.0675,1.2234,1.4,1.5522,1.6662,1.8055,1.869,1.8025,0.0,0.0,1.7575,1.5897,0.0,0.0,1.3861,1.3092,0.0,0.0,1.2428,0.0,0.0,0.0,0.0,1.3077,1.3049,1.3037,1.3145,1.3772,1.4949,1.5184,1.6298,1.8212,0.0,1.9869,2.0876,0.0,2.3424,2.3523,2.4347,2.4365,2.3769,2.2279,2.1779,2.1986,2.2561,2.2842,2.3003,2.3422,2.3741,0.0,2.4096,0.0,0.0,0.0,0.0,0.0,2.4851,0.0,0.0,0.0,0.0,0.0,0.0,0.0,0.0,0.0,0.0,0.0,0.0,0.0,0.0,0.0,0.0,0.0,0.0,0.0,0.0,0.0,0.0,0.0,0.0,0.0,0.0,0.0,2.5629,0.0,2.5331,2.5547,2.5662,2.564,2.5661,2.5369,2.4681,2.3823,2.2968,2.2156,2.1225,2.0653,2.0423,2.0355,2.0266,2.0156,2.0166,2.0199,2.0135,1.9235,1.9082,1.9408,1.92,1.9335,1.9692,1.9627,1.9551,1.9484,0.7857,0.9561,0.0,0.0,1.4349,1.5902,1.6362,1.7248,1.7641,0.0,0.0,0.0,0.0,0.0,0.0,0.0,0.0,1.3215,1.3477,0.0,1.3329,0.0,0.0,1.4249,0.0,0.0,1.4218,1.3119,1.368,1.4317,1.4982,1.5339,1.6612,1.8612,1.9295,2.0643,2.2442,2.2635,2.3147,2.3794,2.3829,2.3399,2.275,0.0,2.2528,2.222,2.2588,0.0,0.0,2.372,2.41,0.0,0.0,0.0,0.0,0.0,0.0,0.0,0.0,0.0,0.0,2.5693,0.0,0.0,0.0,0.0,2.5703,0.0,0.0,0.0,0.0,0.0,2.5574,2.5512,0.0,0.0,0.0,0.0,0.0,0.0,0.0,0.0,0.0,0.0,0.0,2.4365,2.5753,0.0,2.443,2.5139,2.5638,2.5683,2.5703,2.5683,2.5657,2.4783,2.3922,2.3044,2.2167,2.1308,2.0484,2.0429,2.0351,2.0308,2.0352,2.0311,2.0145,1.9333,1.9484,2.0187,1.9407,1.9536,2.0155,1.9957,2.0002,2.0118,0.0,0.0,0.0,0.0,0.0,1.6555,1.6895,1.7733,0.0,0.0,0.0,0.0,0.0,1.6854,1.5872,0.0,0.0,1.3697,1.4264,1.3532,0.0,0.0,0.0,1.4569,0.0,0.0,0.0,0.0,1.5006,1.5479,1.6764,1.6627,1.7464,1.9089,2.0001,2.0959,0.0,0.0,0.0,0.0,0.0,2.3457,2.297,0.0,0.0,2.2591,2.3063,2.3455,0.0,2.4058,2.405,2.392,2.3727,2.3525,2.334,2.3397,2.3867,0.0,0.0,0.0,2.5565,2.4979,0.0,0.0,0.0,0.0,0.0,0.0,0.0,0.0,0.0,0.0,2.4826,2.5282,2.4769,0.0,0.0,0.0,0.0,0.0,0.0,0.0,0.0,0.0,0.0,2.4639,2.475,2.4807,0.0,2.5303,2.5543,2.557,2.5601,2.564,2.5626,2.4765,2.3901,2.3014,2.2159,2.1279,2.0435,2.0419,2.039,2.0367,2.039,2.0303,2.0106,1.9792,1.9819,1.9996,1.9679,1.9734,2.0003,2.0063,2.0085,1.997,0.961,0.0,0.0,0.0,0.0,0.0,0.0,0.0,0.0,0.0,1.8112,0.0,1.8144,0.0,1.5808,0.0,1.4253,1.3842,1.4061,1.3914,0.0,1.4357,1.4915,0.0,0.0,0.0,0.0,0.0,0.0,1.6432,1.7669,1.7583,1.8369,1.9813,0.0,2.1591,2.2329,0.0,2.3589,0.0,0.0,2.3506,0.0,0.0,2.3224,2.301,0.0,2.3327,2.3584,2.3609,2.3451,2.3206,2.3014,2.2759,2.2547,2.2535,2.3208,2.3878,2.3627,2.4608,0.0,2.5,2.527,0.0,2.5676,0.0,0.0,0.0,0.0,0.0,0.0,0.0,2.4124,2.4255,2.3957,2.3923,0.0,2.4551,0.0,0.0,0.0,0.0,0.0,0.0,2.3818,2.4322,2.4201,2.4266,0.0,0.0,2.535,2.5438,2.5517,2.5565,2.5552,2.4948,2.4083,2.2955,2.2325,2.1429,2.0324,2.0276,2.0237,2.0219,2.0192,2.0118,1.9983,1.9915,1.9871,1.9805,1.9724,1.9687,1.9703,1.9948,1.9919,1.9704,0.0,0.0,0.0,0.0,1.5999,0.0,0.0,0.0,1.8672,0.0,1.7459,1.7063,1.6389,1.5851,1.483,1.3094,1.3599,0.0,1.302,1.4396,0.0,0.0,1.5848,1.6238,1.5769,0.0,0.0,0.0,0.0,0.0,1.7733,1.8229,1.9248,2.0703,2.1545,0.0,2.3343,2.331,2.3414,2.3606,2.3531,2.3513,2.3566,2.3837,0.0,2.348,2.2833,2.2776,2.2986,2.2577,2.2422,2.228,2.1772,2.1621,2.1643,2.1691,2.2372,2.3272,2.412,2.496,2.5625,2.5584,0.0,0.0,0.0,0.0,2.5539,0.0,0.0,0.0,0.0,0.0,0.0,2.2716,2.3135,2.3683,0.0,0.0,0.0,0.0,0.0,0.0,0.0,2.4135,2.3957,2.3416,2.4158,2.4309,0.0,0.0,0.0,2.5255,2.537,2.5434,2.5486,2.5318,2.4464,2.2939,2.2711,2.1776,2.023,2.0068,1.9963,1.9904,1.9821,1.9774,1.9775,1.9688,1.9663,1.9632,1.9516,1.9392,1.9291,1.9567,1.9536,1.9323,1.0322,1.2077,1.3815,0.0,1.659,1.7716,0.0,0.0,0.0,0.0,1.7478,1.7124,1.6734,1.5865,1.4851,1.3745,1.3084,0.0,0.0,0.0,0.0,1.5584,1.6543,1.6935,1.6683,1.7426,0.0,1.8464,0.0,0.0,1.9526,1.9367,2.0039,2.1444,0.0,0.0,2.3733,2.3595,2.3518,2.3531,2.3624,2.3798,0.0,0.0,2.4283,2.4281,2.3934,2.3708,2.3498,2.3391,2.271,2.1861,2.1711,2.1273,2.0941,2.1579,2.2402,2.3144,2.3378,2.4077,2.4578,2.3929,2.377,2.3918,0.0,0.0,0.0,0.0,0.0,0.0,0.0,0.0,0.0,2.4732,2.4727,2.4604,0.0,0.0,0.0,0.0,0.0,0.0,0.0,2.2905,2.2704,2.3277,2.3622,2.3722,0.0,0.0,0.0,2.4726,2.4339,2.4524,2.5265,2.4591,2.4034,2.3551,2.2849,2.1937,2.0845,2.0207,1.9928,1.9892,1.9669,1.9529,1.9429,1.9253,1.9127,1.9031,1.8978,1.8945,1.8875,1.9093,1.8959,1.8592,1.0122,0.0,0.0,1.5823,0.0,0.0,1.7744,0.0,0.0,1.7164,1.6939,0.0,1.585,1.5206,1.4497,1.3625,1.3132,0.0,1.413,0.0,0.0,1.6109,1.7067,1.7315,1.6757,1.7793,0.0,1.8665,0.0,0.0,2.03,2.0297,2.0926,2.2078,0.0,2.3451,2.4155,2.4081,2.4002,2.3941,2.4001,0.0,0.0,2.4476,2.4382,2.4185,2.4084,2.3661,2.3141,2.2872,2.2052,2.1137,2.1165,2.0864,2.0605,2.1092,2.2125,2.3101,2.3096,2.3735,2.4274,2.3745,2.335,2.3305,2.4072,2.4238,2.4432,0.0,0.0,0.0,0.0,0.0,0.0,0.0,0.0,0.0,0.0,0.0,0.0,0.0,0.0,0.0,0.0,2.2615,2.2617,2.3287,2.3356,2.324,0.0,0.0,0.0,2.3787,2.417,2.4573,2.493,2.4745,2.4288,2.3568,2.2933,2.2018,2.087,2.034,1.994,1.9591,1.9368,1.9234,1.9146,1.8894,1.8753,1.8643,1.834,1.8145,1.8007,1.8072,1.802,1.7845,0.0,0.0,0.0,0.0,0.0,0.0,0.0,1.8169,0.0,1.6141,0.0,1.5517,1.4369,1.4175,1.3824,1.3141,0.0,1.3665,1.3998,1.5499,1.6382,1.6375,1.7493,1.7645,1.6654,1.807,0.0,0.0,0.0,0.0,2.0496,2.1023,2.1732,2.2642,0.0,0.0,0.0,2.442,2.4407,0.0,2.4163,2.4246,2.4467,2.4369,2.4011,2.3574,2.3587,2.3059,2.2297,2.1794,2.1075,2.0416,2.048,2.0507,2.0507,2.0503,2.1654,2.292,2.2925,2.3488,2.4049,2.3988,2.3344,2.2975,2.3825,2.4018,2.4261,2.51,2.5184,0.0,0.0,0.0,0.0,0.0,0.0,0.0,0.0,0.0,0.0,0.0,0.0,0.0,0.0,0.0,2.3153,2.3375,2.339,0.0,0.0,0.0,0.0,0.0,2.4171,0.0,2.4673,0.0,2.461,2.3366,2.2995,2.2152,2.0871,2.0654,2.0096,1.9297,1.918,1.9039,1.8861,1.8567,1.8378,1.8241,1.7609,1.7238,1.7003,1.6804,1.6848,1.6945,0.0,0.0,0.0,0.0,0.0,1.7579,1.721,1.7192,1.6602,1.4852,1.4659,1.4281,1.3202,1.3042,1.294,1.2871,1.3106,0.0,0.0,0.0,0.0,1.634,1.7832,1.8409,1.78,1.9199,1.9598,0.0,0.0,0.0,2.091,2.1381,2.2173,0.0,0.0,0.0,2.3534,2.3633,0.0,2.3368,2.2741,2.3046,2.379,2.3179,2.2939,2.2962,2.2951,2.2447,2.1743,2.1709,2.1153,2.0481,2.0507,2.0501,2.0492,2.0497,2.1233,2.2029,2.2026,2.213,2.2255,2.2243,2.1551,2.1247,2.2719,2.3041,2.3426,2.4845,2.5126,2.5177,2.5435,0.0,0.0,0.0,0.0,0.0,0.0,0.0,0.0,0.0,0.0,0.0,0.0,0.0,0.0,0.0,0.0,0.0,0.0,0.0,0.0,0.0,0.0,0.0,0.0,0.0,0.0,2.3785,2.3217,2.2776,2.2392,2.1644,2.0789,1.9849,1.9848,1.9227,1.8255,1.8132,1.7793,1.7311,1.6843,1.6612,1.646,1.6056,1.5605,1.5316,0.0,0.0,0.0,0.0,0.0,0.0,0.0,1.6439,0.0,1.4368,1.3883,1.3417,1.2692,1.2686,1.2978,1.3552,1.3637,1.4,1.4695,1.5714,1.6561,1.717,1.7688,0.0,1.8403,1.8966,1.933,1.9463,0.0,0.0,2.1477,2.1803,2.2424,2.3346,0.0,2.442,0.0,0.0,0.0,2.4086,2.2822,2.2664,2.3146,2.2825,2.2472,2.219,2.2217,2.1685,2.1055,2.1547,2.1169,2.0508,2.0501,2.0508,2.0492,2.0503,2.1123,2.1802,2.1792,2.18,2.1783,2.1701,2.1028,2.0643,2.1763,2.2364,2.3015,2.4086,2.4632,2.4879,2.4818,2.4835,0.0,0.0,0.0,0.0,0.0,0.0,0.0,0.0,0.0,0.0,0.0,0.0,0.0,0.0,0.0,0.0,0.0,0.0,0.0,0.0,0.0,0.0,0.0,0.0,0.0,2.3379,2.3084,2.2686,2.2171,2.171,2.1,2.0092,2.0022,1.9528,1.874,1.835,1.7599,1.665,1.635,1.5861,1.5316,1.4972,1.4509,1.4127,0.0,1.1958,0.0,0.0,1.4344,0.0,1.5526,1.6058,1.5793,1.4174,1.3464,1.2966,1.2558,1.2811,1.3416,1.4411,1.4687,1.5173,1.6065,1.6299,1.6797,1.7785,1.7648,1.7821,1.8493,1.8453,1.8858,0.0,0.0,0.0,0.0,2.2237,0.0,0.0,0.0,0.0,0.0,0.0,2.403,2.4457,2.2915,2.2365,2.2474,2.2346,2.1913,2.1363,2.142,2.1013,2.0547,2.1214,2.1014,2.05,2.0508,2.0492,2.0497,2.0471,2.0954,2.1496,2.1487,2.1473,2.1429,2.132,2.0776,2.0481,2.1311,2.2043,2.278,2.3655,2.4197,2.4369,2.3801,2.406,0.0,0.0,0.0,0.0,0.0,0.0,0.0,0.0,0.0,0.0,0.0,0.0,0.0,0.0,0.0,0.0,0.0,0.0,0.0,0.0,0.0,2.3813,2.3756,0.0,2.3493,0.0,2.2849,2.2486,2.1821,2.1788,2.1249,2.0356,2.0221,1.9767,1.9042,1.8375,1.7299,1.6091,1.5866,1.5175,1.431,1.3973,1.3622,1.3353,0.0,0.0,0.0,0.0,0.0,0.0,0.0,1.635,1.6478,1.42,1.3747,1.3488,1.2968,1.3331,1.4032,1.505,1.6102,1.6684,1.6546,1.7835,1.8192,1.7305,1.8106,1.8324,1.7787,1.83,1.8873,0.0,0.0,0.0,0.0,0.0,0.0,0.0,0.0,0.0,0.0,2.3616,2.3514,2.2852,2.1941,2.1661,2.1706,2.0929,2.0624,2.0609,2.0607,2.0598,2.0585,2.0619,2.0552,2.0508,2.0509,2.05,2.0494,2.0437,2.0463,2.0512,2.0462,2.0392,2.033,2.0269,2.0171,2.048,2.1888,2.2269,2.2728,2.4211,2.4264,2.3925,2.3437,2.3283,2.3348,0.0,0.0,0.0,0.0,0.0,0.0,0.0,0.0,0.0,0.0,0.0,0.0,0.0,0.0,0.0,0.0,0.0,0.0,2.4097,0.0,2.2785,2.432,2.297,0.0,2.2634,2.2704,2.2686,2.2591,2.2591,2.1969,2.0921,2.0773,1.9703,1.7976,1.7385,1.6475,1.5444,1.5114,1.4628,1.4052,1.3361,1.3135,1.3148,0.0,0.0,0.0,0.0,0.0,0.0,0.0,1.6039,1.6769,1.6494,1.537,1.4392,1.3856,1.4325,1.5166,1.6422,1.7384,1.8092,1.8513,1.8752,1.8759,1.8409,1.8529,1.8501,1.83,1.8266,1.8732,0.0,0.0,0.0,0.0,0.0,0.0,0.0,0.0,2.4826,2.4801,2.3575,2.3247,2.3388,2.1526,2.0845,2.0897,2.0572,2.0484,2.0504,2.0506,2.0527,2.0541,2.0511,2.0508,2.0506,2.0506,2.0464,2.0422,2.0415,2.0366,2.032,2.0255,2.0219,2.018,2.0079,2.004,2.0283,2.1236,2.1779,2.2349,2.341,2.3654,2.3592,2.3236,2.2965,2.2755,0.0,0.0,0.0,0.0,0.0,0.0,0.0,0.0,0.0,0.0,0.0,2.2064,0.0,0.0,0.0,0.0,0.0,0.0,2.373,0.0,2.2831,2.3737,2.2493,2.1882,2.1953,2.1936,2.1803,2.1549,2.1552,2.1236,2.0667,1.9984,1.9284,1.8505,1.7772,1.6842,1.5814,1.5125,1.4319,1.3527,1.2651,1.2259,1.2151,0.7752,0.0,0.9426,0.0,1.102,1.2335,1.4715,1.612,1.7315,1.8506,1.7671,1.6567,1.5642,1.6144,1.6983,1.8082,1.8884,1.9619,2.03,2.0067,1.9855,1.9725,1.9438,0.0,1.8778,1.8503,1.8818,1.9692,1.9999,0.0,0.0,0.0,0.0,0.0,2.4346,2.5069,2.5283,2.3698,2.3171,2.3276,2.1473,2.0613,2.0441,2.0477,2.0506,2.0507,2.0507,2.0501,2.0506,2.0472,2.0467,2.0464,2.0464,2.0413,2.0366,2.0313,2.0289,2.0227,2.0167,2.0133,2.0069,1.9977,2.007,2.0371,2.1012,2.1692,2.2334,2.3014,2.3174,2.3183,2.2989,2.2652,2.2309,2.1969,0.0,0.0,0.0,0.0,0.0,0.0,2.0423,2.1046,2.0813,0.0,0.0,0.0,0.0,0.0,0.0,0.0,0.0,0.0,0.0,0.0,0.0,2.1973,2.1355,2.1354,2.1293,2.1071,2.0794,2.0745,2.053,2.0108,1.9332,1.8812,1.8405,1.772,1.6728,1.5539,1.4718,1.3807,1.2859,1.2045,1.1616,1.1516,0.7047,0.844,0.9499,0.9947,1.152,1.3363,1.5222,1.6862,1.835,1.9602,2.0527,2.04,1.8737,1.9091,1.9601,1.995,2.078,2.1381,2.1652,2.2048,2.1867,0.0,0.0,2.0384,1.8915,1.9156,1.9269,1.9221,0.0,0.0,2.2437,0.0,2.3945,2.3255,2.4529,2.4292,2.2998,2.3906,2.332,2.1838,2.1796,2.1279,2.0503,2.0507,2.0504,2.0503,2.0494,2.0508,2.0482,2.0413,2.04,2.04,2.04,2.0363,2.0269,2.0134,2.0093,2.0086,2.002,1.9947,1.9881,1.9813,2.0243,2.0865,2.1614,2.2319,2.2933,2.3404,2.3003,2.2608,2.2607,2.2281,2.194,2.1738,0.0,0.0,0.0,0.0,0.0,0.0,2.0956,2.159,2.0888,0.0,0.0,0.0,0.0,0.0,0.0,0.0,0.0,2.4271,2.2994,0.0,2.2791,2.1283,2.0663,2.0991,2.0877,2.0794,2.0794,2.0597,2.0074,1.931,1.9074,1.8327,1.7199,1.6697,1.5637,1.4249,1.3651,1.2883,1.2041,1.1505,1.1394,1.1442,0.3291,0.5541,0.7531,0.8599,1.0383,1.2774,1.5831,1.7467,1.9137,2.1407,2.2664,2.3109,2.2481,2.1591,2.1102,0.0,2.2095,2.2633,0.0,2.3047,2.2815,2.2117,2.2539,2.18,1.9619,2.0192,2.0053,1.9056,0.0,0.0,0.0,2.3479,2.3876,2.3713,2.414,2.4169,2.3809,2.2906,2.2255,2.1757,2.1141,2.0742,2.0502,2.0497,2.0508,2.0499,2.0492,2.0471,2.0437,2.041,2.032,2.02,2.0204,2.0118,2.0039,2.0086,1.9993,1.9918,1.9985,1.9889,1.9751,1.9681,2.0129,2.0756,2.1496,2.2571,2.3361,2.3135,2.296,2.2686,2.2337,2.2056,2.1735,2.1354,0.0,0.0,0.0,0.0,0.0,0.0,0.0,2.0314,0.0,2.0735,0.0,0.0,0.0,0.0,0.0,0.0,0.0,0.0,2.2994,0.0,2.2791,2.1283,2.0545,2.0681,2.0481,2.0258,2.003,1.9594,1.9251,1.8907,1.8171,1.7409,1.6697,1.6213,1.5379,1.4285,1.3459,1.2769,1.2119,1.1058,1.0764,1.0881,-0.2587,0.0907,0.4151,0.5496,0.875,1.2455,1.6227,1.7863,1.9704,2.2617,2.3876,2.4496,2.4436,2.3546,0.0,2.2881,2.3191,2.3538,2.3888,2.3886,2.3728,2.3433,2.3841,2.3161,2.1273,0.0,0.0,1.9677,2.0415,2.1343,2.2433,2.3477,2.4135,2.4469,2.4568,2.4325,2.3778,2.2695,2.1869,2.1268,2.0723,2.0502,2.0494,2.0506,2.0494,2.0499,2.0499,2.0448,2.0355,2.0326,2.0215,2.0105,2.006,1.9943,1.9861,2.0021,1.9896,1.9744,1.9854,1.977,1.9609,1.9513,2.015,2.1079,2.2073,2.2919,2.3376,2.3052,2.2756,2.25,2.2124,2.1718,2.137,2.1039,0.0,2.003,0.0,0.0,0.0,0.0,0.0,0.0,0.0,2.0362,0.0,0.0,0.0,0.0,0.0,0.0,0.0,2.4078,2.2821,0.0,2.2586,2.1073,2.0204,2.0019,1.9702,1.9464,1.9221,1.8817,1.8472,1.8266,1.7394,1.6714,1.617,1.5522,1.4831,1.4045,1.313,1.2404,1.1741,1.0994,1.0695,1.0686,-0.9796,-0.5038,0.0,0.0,0.5857,0.0,1.5762,1.7467,1.9555,2.3179,2.4298,2.4771,2.4822,2.493,2.4847,2.442,0.0,0.0,0.0,2.4556,2.4607,2.4818,2.4818,0.0,2.3445,2.2641,2.1749,2.0755,2.1139,2.1773,2.2648,2.3656,2.4599,2.5413,2.5492,2.4628,2.3109,2.3041,2.2031,2.0503,2.0492,2.0492,2.0499,2.0491,2.0497,2.0497,2.0493,2.0404,2.0289,2.0219,2.0159,2.0079,2.0017,1.9866,1.9744,1.993,1.98,1.9612,1.9669,1.9577,1.9442,1.9305,2.0263,2.1644,2.3093,2.3277,2.3119,2.3102,2.2581,2.2124,2.201,2.1415,2.0877,2.0778,2.017,1.9639,1.9479,0.0,0.0,0.0,0.0,0.0,0.0,1.9897,1.9915,0.0,0.0,0.0,0.0,0.0,2.3407,2.3754,2.2505,2.1907,2.2125,2.0719,1.9698,1.9132,1.8731,1.85,1.85,1.8198,1.7841,1.7421,1.6727,1.617,1.5656,1.4777,1.4089,1.3553,1.2746,1.191,1.1182,1.1243,1.1051,1.0765,0.0,0.0,-0.7495,-0.6633,-0.4314,0.0418,0.9319,1.1376,1.4847,2.3119,2.4801,2.5222,2.5197,2.5147,2.5143,2.5133,2.479,2.4666,2.4814,2.4766,2.4823,2.5012,2.5024,2.4612,2.3719,2.2924,2.1786,2.0335,2.0484,2.134,2.2836,2.319,2.4151,2.552,2.4937,2.4093,2.3061,2.2383,2.15,2.0492,2.0509,2.0499,2.0511,2.0502,2.0497,2.0493,2.038,2.0302,2.0219,2.0148,2.0079,2.0017,2.0004,1.9866,1.9732,1.9884,1.9732,1.9541,1.9609,1.9409,1.9164,1.8964,1.9932,2.1214,2.2335,2.3008,2.3336,2.3144,2.2807,2.2473,2.2124,2.146,2.0829,2.0465,2.0,1.9581,1.925,1.8988,0.0,0.0,1.9002,1.8924,1.9002,1.9016,1.9376,0.0,0.0,0.0,0.0,0.0,2.2768,2.3407,2.2621,2.1898,2.13,2.0333,1.946,1.8655,1.8539,1.85,1.8461,1.8028,1.7476,1.6925,1.6355,1.5579,1.4731,1.4512,1.3906,1.3062,1.2564,1.2109,1.1661,1.112,1.0969,1.1054,-1.8481,-1.5649,-1.2959,-1.2123,-0.9094,-0.3282,0.7185,0.9619,1.3715,2.3376,2.5109,2.5269,2.4805,2.4749,2.4602,2.421,2.4572,2.4936,2.5118,2.505,2.5053,2.5225,2.5236,2.4986,2.4445,2.3707,2.2523,2.0896,2.0554,2.1071,2.2405,2.2875,2.3796,2.5041,2.5019,2.4511,2.3651,2.315,2.2213,2.1055,2.1056,2.0808,2.0457,2.0457,2.0446,2.0404,2.0334,2.0238,2.0152,2.0116,2.0049,1.9982,1.996,1.9842,1.9707,1.9701,1.9601,1.9446,1.9398,1.9146,1.895,1.9009,1.9872,2.096,2.1932,2.2815,2.3336,2.3126,2.2884,2.2581,2.2181,2.1383,2.0665,2.0348,1.9823,1.9362,1.9139,1.9026,0.0,1.8993,1.8841,1.8711,1.8711,1.8711,1.8917,1.9487,0.0,0.0,2.1327,2.1889,2.2449,2.3038,2.2367,2.1669,2.0973,1.9591,1.8651,1.8187,1.7988,1.7908,1.7868,1.7516,1.7034,1.6459,1.5832,1.5142,1.4373,1.414,1.3596,1.2902,1.2594,1.2144,1.1659,1.1333,1.1204,1.1269,-2.4322,-2.0933,-1.7677,-1.6752,-1.2276,-0.509,0.5973,0.8923,1.3474,2.3515,2.521,2.5137,2.4215,2.4163,2.3794,2.2824,2.388,2.4771,2.5186,2.5116,2.5097,2.5209,2.5215,2.5104,2.4866,2.4187,2.3065,2.1494,2.0816,2.0937,2.1796,2.2539,2.3359,2.4238,2.509,2.5004,2.4196,2.4261,2.329,2.1692,2.1706,2.1188,2.0399,2.0399,2.0372,2.0304,2.0296,2.0216,2.0108,2.0088,2.0028,1.9971,1.9926,1.9806,1.9662,1.9527,1.9402,1.928,1.9082,1.8825,1.8647,1.9022,1.9831,2.0755,2.1563,2.2541,2.3217,2.3077,2.2859,2.2581,2.2181,2.1259,2.0465,2.0348,1.9645,1.9101,1.9101,0.0,1.9121,1.9123,1.9013,1.8908,1.8839,1.8729,1.8676,1.8644,1.9655,2.0288,0.0,2.131,2.1981,2.2286,2.1826,2.1241,2.0554,1.8673,1.772,1.772,1.7352,1.7157,1.706,1.6863,1.6454,1.584,1.5164,1.4686,1.4233,1.3668,1.3276,1.2967,1.2608,1.2108,1.1685,1.1693,1.1621,1.1474,-2.4511,-2.3581,-2.2578,-2.1803,-1.9659,-1.3514,-0.007,0.3776,0.9817,2.2775,2.5027,2.5105,2.4277,2.414,2.3786,2.2936,2.3089,2.3553,2.433,2.4379,2.4354,2.4397,2.4382,2.4055,2.3369,2.2511,2.1598,2.0601,2.0479,2.0861,2.1725,2.1845,2.2372,2.3263,2.4138,2.4037,2.3251,2.3986,2.33,2.1692,2.1706,2.1172,2.0399,2.0399,2.0372,2.0296,2.0249,2.0182,2.0069,1.9974,1.9919,1.9908,1.9896,1.977,1.9582,1.9452,1.9162,1.886,1.8789,1.8371,1.7988,1.8224,1.923,2.026,2.0563,2.1947,2.3052,2.2807,2.273,2.2581,2.2248,2.1321,2.0548,2.0481,1.9803,1.9228,1.9101,0.0,1.9195,1.9688,1.9155,1.8924,1.9409,1.8906,1.8728,1.9207,1.9432,1.9824,2.0372,2.0367,2.0362,2.0406,2.0882,2.0385,1.8913,1.7821,1.7282,1.7282,1.724,1.6934,1.6441,1.6299,1.5664,1.4721,1.4236,1.3884,1.3668,1.2958,1.2852,1.3122,1.2412,1.2236,1.2337,1.1999,1.1882,1.1948,-2.4182,-2.3461,-2.2473,-2.0963,-1.8621,-1.26,0.0485,0.4632,1.062,2.2802,2.4492,2.4244,2.3474,2.2983,2.2388,2.1621,2.1951,2.2596,2.3496,2.359,2.4014,2.4905,2.4506,2.4062,2.3652,2.2361,2.146,2.0949,2.0538,2.0534,2.0896,2.1461,2.1932,2.241,2.3712,2.4088,2.3752,2.4587,2.4206,2.2998,2.2546,2.1862,2.1043,2.0546,2.0304,2.0249,2.0162,2.0108,2.0028,1.993,1.9896,1.9884,1.9813,1.9641,1.9427,1.9323,1.9067,1.8715,1.833,1.8103,1.8017,1.8268,1.9166,2.0137,2.0671,2.1816,2.2756,2.2703,2.2554,2.2375,2.222,2.1274,2.0548,2.0514,1.9752,0.0,0.0,1.9614,1.9676,1.9872,1.9563,1.9387,1.9565,1.9298,1.9317,1.9908,1.995,2.0091,2.0386,2.03,2.0003,1.9528,1.9587,1.929,1.8521,1.7626,1.7199,1.7199,1.7031,1.671,1.6269,1.5964,1.532,1.4503,1.4247,1.3941,1.3573,1.3238,1.3084,1.3064,1.289,1.2608,1.2372,1.2304,1.2206,1.2049,-2.3068,-2.1957,-2.0491,-1.8524,-1.5199,-0.9008,0.2203,0.6836,1.2587,2.2447,2.3719,2.3373,2.25,2.1847,2.1183,2.0437,2.0938,2.1687,2.2605,2.2516,2.3191,2.49,2.397,2.3461,2.3595,2.2119,2.1274,2.1093,2.052,2.0199,2.0176,2.0952,2.1357,2.1483,2.3165,2.3922,2.3993,2.5027,2.4965,2.4096,2.3241,2.239,2.1545,2.0653,2.0257,2.0162,2.0108,2.0048,1.996,1.9903,1.988,1.9825,1.9699,1.9489,1.9261,1.92,1.9075,1.8812,1.8022,1.8046,1.8324,1.8468,1.9292,2.0257,2.0857,2.1756,2.2446,2.2473,2.2347,2.2164,2.2039,2.1197,2.0481,2.0364,0.0,0.0,0.0,2.0001,2.0107,2.0102,2.0076,2.0053,2.0004,1.9864,1.995,2.0358,2.04,2.033,2.0189,2.009,1.9627,1.8699,1.8378,1.8222,1.8081,1.7421,1.7031,1.6947,1.6735,1.6367,1.5964,1.5579,1.5028,1.4283,1.4118,1.3894,1.3563,1.3324,1.3132,1.2977,1.3025,1.2696,1.2274,1.2442,1.2295,1.2076,-2.0716,-1.9291,-1.7754,-1.6294,-1.1665,-0.551,0.2424,0.8342,1.4239,2.0847,2.2716,2.2943,2.1646,2.1433,2.1111,2.0373,2.036,2.0766,2.1649,2.0882,2.1223,2.3018,2.1614,2.1104,2.1772,2.0817,2.0273,2.0203,2.0079,2.0021,2.0012,2.0143,2.0227,2.0293,2.2037,2.2824,2.293,2.461,2.4859,2.4041,2.3226,2.2349,2.1429,2.0612,2.0214,2.0117,2.0089,2.0028,1.9903,1.9832,1.977,1.9686,1.956,1.9368,1.92,1.9115,1.9307,1.929,1.8132,1.8318,1.8788,1.8552,1.9578,2.0649,2.0727,2.1502,2.2153,2.1928,2.2039,2.2022,2.1479,2.0926,2.0447,2.0004,0.0,0.0,1.9159,1.9711,2.0226,2.0597,2.0626,2.077,2.1119,2.0682,2.0344,2.04,2.04,2.0147,1.9502,1.9127,1.8421,1.7361,1.75,1.7334,1.6829,1.6778,1.6565,1.6275,1.6231,1.5812,1.4994,1.4949,1.449,1.3658,1.3266,1.3314,1.3515,1.2608,1.248,1.2832,1.2274,1.2076,1.2126,1.2126,1.2126,1.2076,-1.8249,-1.6658,-1.4617,-1.2139,-0.7364,-0.1486,0.5778,1.1232,1.6225,2.1056,2.2136,2.2121,2.1178,2.072,2.0394,2.0184,2.0139,2.0504,2.1427,2.1069,2.1171,2.2002,2.1448,2.1186,2.1359,2.0507,1.9993,1.9854,1.9918,1.9941,1.9931,2.006,2.0116,2.0218,2.1377,2.2192,2.2748,2.3419,2.4111,2.4658,2.3312,2.2553,2.2142,2.1216,2.0547,2.0098,2.0017,1.9941,1.9884,1.9832,1.9699,1.956,1.946,1.9264,1.9125,1.9324,1.9502,1.9547,1.929,1.9401,1.9622,1.9824,2.0274,2.0804,2.1267,2.1699,2.1911,2.1811,2.1721,2.1554,2.134,2.0681,2.0108,1.9934,0.0,1.9339,1.9774,1.9921,1.9955,1.9917,1.9993,2.0105,2.0348,2.0368,2.0709,2.1454,2.0821,2.0288,2.0049,1.8879,1.7976,1.7406,1.7144,1.7018,1.7018,1.6808,1.6637,1.6509,1.6044,1.5501,1.4903,1.4686,1.4222,1.3621,1.361,1.3515,1.3324,1.3132,1.3007,1.2881,1.2745,1.2559,1.2372,1.2501,1.2353,1.2076,-1.5561,-1.3916,-1.1752,-0.8727,-0.3846,0.1775,0.8084,1.3271,1.7589,2.0811,2.1563,2.147,2.0597,2.012,1.9918,2.006,2.0011,2.0238,2.0861,2.0769,2.0916,2.1421,2.121,2.0976,2.0755,2.0226,1.9832,1.9647,1.9775,1.9847,1.9877,1.9977,2.0059,2.0164,2.0986,2.1674,2.2267,2.2814,2.3705,2.4651,2.3513,2.29,2.2565,2.1562,2.0731,2.0038,1.9971,1.9861,1.9757,1.9751,1.9587,1.9402,1.9295,1.9232,1.9233,1.9433,1.9747,2.0125,2.0365,2.0473,2.0602,2.0677,2.0853,2.1197,2.1665,2.1797,2.1797,2.1797,2.1509,2.1198,2.1103,2.0431,1.9829,1.9737,1.9546,1.9483,1.9669,1.9877,1.974,1.9078,1.9596,1.9948,1.9804,2.0185,2.0806,2.1663,2.0913,2.0394,2.017,1.8741,1.7747,1.7406,1.6934,1.6808,1.7031,1.6595,1.6281,1.6194,1.568,1.5187,1.4731,1.4558,1.414,1.3467,1.3763,1.3573,1.3132,1.319,1.3055,1.2774,1.2842,1.2657,1.2372,1.255,1.2403,1.2076,-1.2614,-1.1198,-0.9191,-0.643,-0.1246,0.4052,0.8652,1.4096,1.8275,1.9807,2.0945,2.1086,1.9741,1.9713,1.9847,1.9988,1.9936,1.987,1.98,1.9663,2.0106,2.1235,2.0528,2.0001,1.979,1.9793,1.9701,1.9499,1.9628,1.9725,1.9807,1.988,1.9938,2.0031,2.0827,2.1187,2.1301,2.3046,2.3786,2.3786,2.3809,2.3313,2.2492,2.1567,2.0653,1.9915,1.9971,1.977,1.9499,1.9587,1.9431,1.9186,1.9053,1.9285,1.9538,1.9285,2.0108,2.109,2.1107,2.1451,2.1615,2.0898,2.1251,2.1797,2.1797,2.1797,2.1797,2.1781,2.1415,2.0975,2.0663,2.0174,1.9696,1.9362,1.9744,1.966,1.8495,1.9405,1.9708,1.8336,1.9723,2.0514,1.9856,2.0254,2.059,2.062,2.059,2.032,1.9717,1.8561,1.7666,1.7199,1.685,1.668,1.668,1.5976,1.5412,1.5108,1.5108,1.4834,1.4419,1.4616,1.4129,1.3218,1.3515,1.3344,1.2881,1.2627,1.248,1.248,1.2175,1.2076,1.2076,1.2076,1.2076,1.2076,-0.9852,-0.8736,-0.6663,-0.3187,0.1604,0.6551,1.1253,1.575,1.8971,1.9951,2.0727,2.068,1.9402,1.9536,1.9719,1.9713,1.9701,1.9609,1.9398,1.9518,1.9665,1.982,1.9882,1.983,1.9732,1.9636,1.9587,1.9569,1.962,1.9699,1.9807,1.9915,1.9971,2.0012,2.0195,2.0576,2.1092,2.1497,2.2318,2.3319,2.3364,2.2919,2.2227,2.1942,2.1042,1.9873,1.9707,1.9569,1.9578,2.0077,2.0071,1.9939,2.0134,2.0136,2.0183,2.067,2.0952,2.1208,2.1725,2.1831,2.1748,2.1516,2.1632,2.1738,2.1495,2.1464,2.1371,2.1023,2.0648,2.0345,2.0143,1.9752,1.9398,1.9176,1.9252,1.9222,1.8909,1.9065,1.8993,1.8392,1.8952,1.9363,1.9239,1.9699,2.0127,2.057,1.9777,1.9203,1.9062,1.7689,1.6892,1.685,1.6238,1.5932,1.5932,1.5724,1.5546,1.5457,1.5198,1.4926,1.4616,1.4662,1.4466,1.4035,1.3941,1.36,1.3084,1.2832,1.2501,1.2224,1.2126,1.2076,1.2076,1.2076,1.2076,1.2076,-0.796,-0.6612,-0.4232,-0.0597,0.3885,0.8554,1.3043,1.6927,1.9637,2.05,2.08,2.0575,1.9593,1.9782,1.9822,1.9467,1.9438,1.9368,1.92,1.9383,1.9398,1.917,1.946,1.9592,1.9456,1.946,1.9446,1.9435,1.9489,1.9587,1.977,1.9844,1.988,1.9837,1.9813,2.0169,2.0872,2.1102,2.1911,2.3063,2.308,2.2696,2.2054,2.1708,2.0862,1.9837,1.9655,1.9499,1.9531,2.0195,2.0409,2.0403,2.043,2.0518,2.0688,2.1079,2.1275,2.1474,2.1922,2.1911,2.1797,2.1797,2.1797,2.1768,2.1556,2.1402,2.1214,2.0942,2.0429,2.0,1.9899,1.9551,1.9263,1.9411,1.9378,1.9282,1.9071,1.8768,1.8504,1.8289,1.8465,1.8665,1.8981,1.9277,1.9564,1.9948,1.9391,1.8988,1.8922,1.7562,1.6879,1.7105,1.6106,1.5686,1.5887,1.5563,1.5412,1.5412,1.5198,1.5074,1.5034,1.4925,1.4716,1.4514,1.4445,1.3899,1.3035,1.3106,1.2831,1.2353,1.2166,1.2215,1.2353,1.2166,1.2076,1.2076,-0.641,-0.4477,-0.1695,0.1568,0.6071,1.0492,1.4301,1.7731,2.0209,2.1213,2.1051,2.0654,2.0225,2.0336,2.015,1.9319,1.92,1.9152,1.9152,1.9235,1.9202,1.907,1.9266,1.9316,1.9191,1.9316,1.9329,1.9219,1.9344,1.9508,1.9686,1.9686,1.966,1.9601,1.9629,1.997,2.062,2.1467,2.2259,2.2941,2.296,2.2604,2.1958,2.1261,2.0504,1.9851,1.9849,1.9674,1.9547,2.0191,2.0586,2.0761,2.0322,2.0634,2.111,2.0872,2.1267,2.1797,2.1797,2.1797,2.1781,2.1797,2.1797,2.1781,2.1751,2.1495,2.1262,2.1263,2.0559,1.997,1.9995,1.9605,1.9411,1.9843,1.9958,1.9717,1.9058,1.8674,1.8438,1.827,1.8316,1.8505,1.8958,1.9008,1.8995,1.9058,1.9266,1.9326,1.9117,1.7906,1.7338,1.7665,1.6358,1.5913,1.6432,1.5649,1.52,1.5108,1.5154,1.5279,1.5519,1.5337,1.5043,1.4729,1.5007,1.4261,1.29,1.332,1.3242,1.2725,1.2274,1.2403,1.2716,1.2264,1.2126,1.2175,-0.2479,-0.055,0.1912,0.4793,1.0173,1.4609,1.6186,1.8608,2.0479,2.1005,2.1105,2.0997,2.0686,2.0825,2.0601,1.9736,1.9129,1.8789,1.8734,1.8984,1.9001,1.8734,1.9051,1.9427,1.9811,1.9429,1.9282,1.936,1.9431,1.9546,1.9686,1.966,1.9614,1.962,1.9811,2.0078,2.044,2.1558,2.2216,2.2589,2.3268,2.2733,2.1607,2.2154,2.1544,2.0391,2.0804,2.0806,2.07,2.1096,2.1529,2.1863,2.1746,2.1687,2.1653,2.1578,2.1635,2.1708,2.1708,2.1694,2.1664,2.1724,2.1708,2.1648,2.1464,2.1151,2.0936,2.0972,2.0624,2.0374,2.072,2.0662,2.044,1.9907,2.021,2.026,1.953,1.9759,1.9894,1.9457,1.9422,1.9345,1.9004,1.9016,1.9172,1.9571,1.902,1.8784,1.9068,1.7958,1.7291,1.7326,1.6711,1.6446,1.655,1.6348,1.59,1.5119,1.5533,1.5749,1.5804,1.6127,1.5838,1.5034,1.5001,1.4348,1.3249,1.2987,1.2814,1.2702,1.2245,1.2403,1.2716,1.2264,1.2353,1.2589,0.2275,0.3724,0.5508,0.8629,1.2158,1.5203,1.7036,1.9089,2.0701,2.1378,2.1088,2.0942,2.1249,2.1316,2.119,2.0823,1.9785,1.9112,1.9092,1.8966,1.8807,1.8604,1.9237,1.9525,1.9431,1.9939,2.0063,1.9784,1.9574,1.9446,1.946,1.9489,1.9383,1.9198,1.9651,2.0037,2.04,2.1404,2.2166,2.2739,2.2807,2.2485,2.1986,2.2078,2.168,2.1054,2.1279,2.1386,2.1414,2.1334,2.1708,2.2164,2.2027,2.1869,2.1738,2.1708,2.1694,2.1634,2.1634,2.162,2.1702,2.2044,2.2001,2.1746,2.1294,2.1181,2.1124,2.0944,2.084,2.0753,2.0633,2.084,2.0804,2.0296,2.0484,2.0628,2.0429,2.0229,2.0232,2.0465,1.9847,1.9318,1.9016,1.9682,1.993,1.9368,1.928,1.9106,1.8761,1.787,1.74,1.7606,1.6989,1.6738,1.6979,1.675,1.6359,1.5843,1.6118,1.6371,1.6612,1.6623,1.645,1.6177,1.5866,1.5133,1.4162,1.3835,1.3576,1.3355,1.2637,1.287,1.3447,1.2461,1.2403,1.2832,0.5819,0.6944,0.8218,1.1637,1.3006,1.4611,1.7526,1.9352,2.0714,2.1672,2.1039,2.086,2.1738,2.1675,2.1663,2.1838,2.056,1.9703,1.9584,1.9112,1.8816,1.8797,1.9535,1.9789,1.9413,2.0656,2.0949,2.0192,1.9892,1.9701,1.9585,1.9634,1.9449,1.9087,1.9671,2.0179,2.0625,2.1334,2.2193,2.3025,2.2382,2.2287,2.2488,2.1963,2.1751,2.1716,2.171,2.1789,2.1868,2.1402,2.1619,2.2068,2.1797,2.1694,2.1694,2.162,2.1589,2.1606,2.1737,2.1738,2.1902,2.2589,2.2506,2.2111,2.1487,2.1503,2.1533,2.1265,2.1282,2.1199,2.0761,2.1029,2.1223,2.0912,2.0941,2.1069,2.126,2.0595,2.0447,2.136,2.0369,1.9496,1.9295,2.0545,2.0737,1.9192,1.9726,1.9664,1.855,1.7954,1.7756,1.8073,1.7271,1.7082,1.7507,1.7094,1.6774,1.6712,1.6837,1.7008,1.7201,1.6768,1.6688,1.6938,1.6493,1.571,1.4783,1.471,1.4449,1.4094,1.3275,1.3531,1.4244,1.293,1.2607,1.289,0.475,0.6436,0.8365,1.1354,1.338,1.5544,1.8321,1.9398,2.0124,2.0782,2.0926,2.1266,2.1888,2.1657,2.1498,2.1718,2.0841,2.0056,1.9547,1.9454,1.9447,1.9565,1.9737,2.0439,2.1786,2.1482,2.0949,2.0192,2.088,2.1225,2.1171,2.0851,2.0652,2.0604,2.0818,2.108,2.1368,2.1898,2.2504,2.3077,2.2972,2.2705,2.2404,2.299,2.2837,2.2342,2.2728,2.2555,2.2095,2.1807,2.1757,2.184,2.1738,2.1694,2.1694,2.162,2.1511,2.1564,2.2199,2.2346,2.2492,2.3258,2.3403,2.3165,2.2399,2.1987,2.1909,2.2355,2.2179,2.2104,2.2468,2.2553,2.2304,2.1598,2.1865,2.196,2.1372,2.1605,2.1921,2.2142,2.206,2.1613,2.0498,2.0961,2.0971,2.0175,1.9901,1.9538,1.903,1.876,1.8447,1.8084,1.7958,1.7912,1.7981,1.7912,1.765,1.7126,1.765,1.7469,1.6642,1.6424,1.5883,1.5154,1.5432,1.4964,1.4026,1.4025,1.4033,1.4023,1.397,1.4144,1.4381,1.4045,1.3441,1.2842,0.5673,0.7498,0.9555,1.2206,1.4339,1.6421,1.8826,1.9624,2.0174,2.0731,2.0764,2.1007,2.1658,2.177,2.1888,2.2194,2.137,2.0803,2.0679,2.0229,1.9992,2.0095,2.0551,2.0905,2.1104,2.1859,2.1799,2.0868,2.1306,2.1349,2.1052,2.0951,2.0714,2.0424,2.0892,2.1046,2.1026,2.1669,2.2209,2.2669,2.2747,2.2807,2.2909,2.3328,2.3216,2.277,2.2626,2.2429,2.2164,2.1899,2.1797,2.1797,2.1708,2.1927,2.2177,2.2131,2.2329,2.2638,2.2963,2.3027,2.3205,2.3921,2.3922,2.3765,2.3793,2.3498,2.3041,2.2443,2.2439,2.2527,2.2425,2.2915,2.3037,2.2255,2.2828,2.3271,2.2921,2.2746,2.2595,2.2315,2.2645,2.2473,2.147,2.1525,2.1313,2.0517,2.0334,1.9912,1.9033,1.9192,1.9099,1.8575,1.885,1.9011,1.9011,1.9011,1.8885,1.8576,1.8101,1.7342,1.6411,1.6669,1.6357,1.5628,1.5496,1.5129,1.4735,1.4347,1.412,1.4005,1.4058,1.4053,1.4037,1.4758,1.421,1.3223]}]]